[[{"header":{"parameterUnit":"m.s-1","parameterCategory":1,"la1":30.6,"la2":29.2853,"lo1":-89.7004,"lo2":-87.6739,"dy":0.0162,"dx":0.0183,"nx":112,"ny":82,"refTime":"2023-09-26T12:00:00:Z","depth":0,"parameterNumber":2,"parameterNumberName":"U-component_of_WINDS"},"data":[0.0,0.0,0.0,0.0,0.0,0.0,0.0,0.0,0.0,0.0,0.0,0.0,0.0,0.0,0.0,0.0,0.0,0.0,0.0,0.0,0.0,0.0,0.0,0.0,0.0,0.0,0.0,0.0,0.0,0.0,0.0,0.0,0.0,0.0,0.0,0.0,0.0,0.0,0.0,0.0,0.0,0.0,0.0,0.0,0.0,0.0,0.0,0.0,0.0,0.0,0.0,0.0,0.0,0.0,0.0,0.0,0.0,0.0,0.0,0.0,0.0,0.0,0.0,0.0,0.0,0.0,0.0,0.0,0.0,0.0,0.0,0.0,0.0,0.0,0.0,0.0,0.0,0.0,0.0,0.0,0.0,0.0,0.0,0.0,0.0,0.0,0.0,0.0,0.0,0.0,-0.0415,-0.0233,0.1201,0.2181,0.2265,0.3687,0.4303,0.3684,0.0,0.0,0.0,0.0,0.0,0.0,0.0,0.0,0.0,0.0,0.0,0.0,0.0,0.0,0.0,0.0,0.0,0.0,0.0,0.0,0.0,0.0,0.0,0.0,0.0,0.0,0.0,0.0,0.0,0.0,0.0,0.0,0.0,0.0,0.0,0.0,0.0,0.0,0.0,0.0,0.0,0.0,0.0,0.0,0.0,0.0,0.0,0.0,0.0,0.0,0.0,0.0,0.0,0.0,0.0,0.0,0.0,0.0,0.0,0.0,0.0,0.0,0.0,0.0,0.0,0.0,0.0,0.0,0.0,0.0,0.0,0.0,0.0,0.0,0.0,0.0,0.0,0.0,0.0,0.0,0.0,0.0,0.0,0.0,0.0,0.0,0.0,0.0,0.0,0.0,0.0,0.0,0.0,0.0,0.0,0.0,0.0,0.0,0.0,0.0,0.0,0.0,0.0,0.0,-0.2142,-0.0904,-0.053,-0.014,0.0364,0.0672,0.0911,0.1127,0.0,0.0,0.0,0.0,0.0,0.0,0.0,0.0,0.0,0.0,0.0,0.0,0.0,0.0,0.0,0.0,0.0,0.0,0.0,0.0,0.0,0.0,0.0,0.0,0.0,0.0,0.0,0.0,0.0,0.0,0.0,0.0,0.0,0.0,0.0,0.0,0.0,0.0,0.0,0.0,0.0,0.0,0.0,0.0,0.0,0.0,0.0,0.0,0.0,0.0,0.0,0.0,0.0,0.0,0.0,0.0,0.0,0.0,0.0,0.0,0.0,0.0,0.0,0.0,0.0,0.0,0.0,0.0,0.0,0.0,0.0,0.0,0.0,0.0,0.0,0.0,0.0,0.0,0.0,0.0,0.0,0.0,0.0,0.0,0.0,0.0,0.0,0.0,0.0,0.0,0.0,0.0,0.0,0.0,0.0,0.0,0.0,0.0,0.0,0.0,0.0,0.0,0.0,-0.2929,-0.2502,-0.1507,-0.1093,-0.0785,-0.0505,-0.0196,0.0161,0.0576,0.1298,0.0,0.0,0.0,0.0,0.0,0.0,0.0,0.0,0.0,0.0,0.0,0.0,0.0,0.0,0.0,0.0,0.0,0.0,0.0,0.0,0.0,0.0,0.0,0.0,0.0,0.0,0.0,0.0,0.0,0.0,0.0,0.0,0.0,0.0,0.0,0.0,0.0,0.0,0.0,0.0,0.0,0.0,0.0,0.0,0.0,0.0,0.0,0.0,0.0,0.0,0.0,0.0,0.0,0.0,0.0,0.0,0.0,0.0,0.0,0.0,0.0,0.0,0.0,0.0,0.0,0.0,0.0,0.0,0.0,0.0,0.0,0.0,0.0,0.0,0.0,0.0,0.0,0.0,0.0,0.0,0.0,0.0,0.0,0.0,0.0,0.0,0.0,0.0,0.0,0.0,0.0,0.0,0.0,0.0,0.0,0.0,0.0,0.0,0.0,0.0,0.0,0.0,-0.2432,-0.2277,-0.1847,-0.1374,-0.1121,-0.1121,-0.0701,-0.0242,0.0144,-0.0262,0.0,0.0,0.0,0.0,0.0,0.0,0.0,0.0,0.0,0.0,0.0,0.0,0.0,0.0,0.0,0.0,0.0,0.0,0.0,0.0,0.0,0.0,0.0,0.0,0.0,0.0,0.0,0.0,0.0,0.0,0.0,0.0,0.0,0.0,0.0,0.0,0.0,0.0,0.0,0.0,0.0,0.0,0.0,0.0,0.0,0.0,0.0,0.0,0.0,0.0,0.0,0.0,0.0,0.0,0.0,0.0,0.0,0.0,0.0,0.0,0.0,0.0,0.0,0.0,0.0,0.0,0.0,0.0,0.0,0.0,0.0,0.0,0.0,0.0,0.0,0.0,0.0,0.0,0.0,0.0,0.0,0.0,0.0,0.0,0.0,0.0,0.0,0.0,0.0,0.0,0.0,0.0,0.0,0.0,0.0,0.0,0.0,0.0,0.0,0.0,0.0,0.0,-0.2363,-0.1717,-0.178,-0.1767,-0.1739,-0.1739,-0.1711,-0.1503,-0.1105,-0.112,0.0,0.0,0.0,0.0,0.0,0.0,0.0,0.0,0.0,0.0,0.0,0.0,0.0,0.0,0.0,0.0,0.0,0.0,0.0,0.0,0.0,0.0,0.0,0.0,0.0,0.0,0.0,0.0,0.0,0.0,0.0,0.0,0.0,0.0,0.0,0.0,0.0,0.0,0.0,0.0,0.0,0.0,0.0,0.0,0.0,0.0,0.0,0.0,0.0,0.0,0.0,0.0,0.0,0.0,0.0,0.0,0.0,0.0,0.0,0.0,0.0,0.0,0.0,0.0,0.0,0.0,0.0,0.0,0.0,0.0,0.0,0.0,0.0,0.0,0.0,0.0,0.0,0.0,0.0,0.0,0.0,0.0,0.0,0.0,0.0,0.0,0.0,0.0,0.0,0.0,0.0,0.0,0.0,0.0,0.0,0.0,0.0,0.0,0.0,0.0,0.0,0.0,-0.3491,-0.3137,-0.2433,-0.2356,-0.2216,-0.1823,-0.1795,-0.1637,-0.1225,0.0,0.0,0.0,0.0,0.0,0.0,0.0,0.0,0.0,0.0,0.0,0.0,0.0,0.0,0.0,0.0,0.0,0.0,0.0,0.0,0.0,0.0,0.0,0.0,0.0,0.0,0.0,0.0,0.0,0.0,0.0,0.0,0.0,0.0,0.0,0.0,0.0,0.0,0.0,0.0,0.0,0.0,0.0,0.0,0.0,0.0,0.0,0.0,0.0,0.0,0.0,0.0,0.0,0.0,0.0,0.0,0.0,0.0,0.0,0.0,0.0,0.0,0.0,0.0,0.0,0.0,0.0,0.0,0.0,0.0,0.0,0.0,0.0,0.0,0.0,0.0,0.0,0.0,0.0,0.0,0.0,0.0,0.0,0.0,0.0,0.0,0.0,0.0,0.0,0.0,0.0,0.0,0.0,0.0,0.0,0.0,0.0,0.0,0.0,0.0,0.0,0.0,-0.3854,-0.3992,-0.3894,-0.3085,-0.2973,-0.2748,-0.2132,-0.2076,-0.1879,-0.1418,0.0,0.0,0.0,0.0,0.0,0.0,0.0,0.0,0.0,0.0,0.0,0.0,0.0,0.0,0.0,0.0,0.0,0.0,0.0,0.0,0.0,0.0,0.0,0.0,0.0,0.0,0.0,0.0,0.0,0.0,0.0,0.0,0.0,0.0,0.0,0.0,0.0,0.0,0.0,0.0,0.0,0.0,0.0,0.0,0.0,0.0,0.0,0.0,0.0,0.0,0.0,0.0,0.0,0.0,0.0,0.0,0.0,0.0,0.0,0.0,0.0,0.0,0.0,0.0,0.0,0.0,0.0,0.0,0.0,0.0,0.0,0.0,0.0,0.0,0.0,0.0,0.0,0.0,0.0,0.0,0.0,0.0,0.0,0.0,0.0,0.0,0.0,0.0,0.0,0.0,0.0,0.0,0.0,0.0,0.0,0.0,0.0,0.0,0.0,0.0,0.0,0.0,-0.3803,-0.3648,-0.3614,-0.3614,-0.3614,-0.3365,-0.2748,-0.2692,-0.2444,0.0,0.0,0.0,0.0,0.0,0.0,0.0,0.0,0.0,0.0,0.0,0.0,0.0,0.0,0.0,0.0,0.0,0.0,0.0,0.0,0.0,0.0,0.0,0.0,0.0,0.0,0.0,0.0,0.0,0.0,0.0,0.0,0.0,0.0,0.0,0.0,0.0,0.0,0.0,0.0,0.0,0.0,0.0,0.0,0.0,0.0,0.0,0.0,0.0,0.0,0.0,0.0,0.0,0.0,0.0,0.0,0.0,0.0,0.0,0.0,0.0,0.0,0.0,0.0,0.0,0.0,0.0,0.0,0.0,0.0,0.0,0.0,0.0,0.0,0.0,0.0,0.0,0.0,0.0,0.0,0.0,0.0,0.0,0.0,0.0,0.0,0.0,0.0,0.0,0.0,0.0,0.0,0.0,0.0,0.0,0.0,0.0,0.0,0.0,0.0,0.0,0.0,0.0,-0.512,-0.4837,-0.4507,-0.4121,-0.4097,-0.3898,-0.3388,-0.2913,-0.257,-0.2446,0.0,0.0,0.0,0.0,0.0,0.0,0.0,0.0,0.0,0.0,0.0,0.0,0.0,0.0,0.0,0.0,0.0,0.0,0.0,0.0,0.0,0.0,0.0,0.0,0.0,0.0,0.0,0.0,0.0,0.0,0.0,0.0,0.0,0.0,0.0,0.0,0.0,0.0,0.0,0.0,0.0,0.0,0.0,0.0,0.0,0.0,0.0,0.0,0.0,0.0,0.0,0.0,0.0,0.0,0.0,0.0,0.0,0.0,0.0,0.0,0.0,0.0,0.0,0.0,0.0,0.0,0.0,0.0,0.0,0.0,0.0,0.0,0.0,0.0,0.0,0.0,0.0,0.0,0.0,0.0,0.0,0.0,0.0,0.0,0.0,0.0,0.0,0.0,0.0,0.0,0.0,0.0,0.0,0.0,0.0,0.0,0.0,0.0,0.0,0.0,0.0,0.0,-0.5761,-0.5422,-0.5103,-0.4766,-0.4742,-0.4516,-0.4002,-0.3581,-0.3158,-0.2702,0.0,0.0,0.0,0.0,0.0,0.0,0.0,0.0,0.0,0.0,0.0,0.0,0.0,0.0,0.0,0.0,0.0,0.0,0.0,0.0,0.0,0.0,0.0,0.0,0.0,0.0,0.0,0.0,0.0,0.0,0.0,0.0,0.0,0.0,0.0,0.0,0.0,0.0,0.0,0.0,0.0,0.0,0.0,0.0,0.0,0.0,0.0,0.0,0.0,0.0,0.0,0.0,0.0,0.0,0.0,0.0,0.0,0.0,0.0,0.0,0.0,0.0,0.0,0.0,0.0,0.0,0.0,0.0,0.0,0.0,0.0,0.0,0.0,0.0,0.0,0.0,0.0,0.0,0.0,0.0,0.0,0.0,0.0,0.0,0.0,0.0,0.0,0.0,0.0,0.0,0.0,0.0,0.0,0.0,0.0,0.0,0.0,0.0,0.0,0.0,0.0,0.0,-0.5968,-0.5595,-0.5389,-0.5369,-0.5369,-0.5174,-0.462,-0.4529,-0.3966,-0.2758,0.0,0.0,0.0,0.0,0.0,0.0,0.0,0.0,0.0,0.0,0.0,0.0,0.0,0.0,0.0,0.0,0.0,0.0,0.0,0.0,0.0,0.0,0.0,0.0,0.0,0.0,0.0,0.0,0.0,0.0,0.0,0.0,0.0,0.0,0.0,0.0,0.0,0.0,0.0,0.0,0.0,0.0,0.0,0.0,0.0,0.0,0.0,0.0,0.0,0.0,0.0,0.0,0.0,0.0,0.0,0.0,0.0,0.0,0.0,0.0,-1.271,-1.2654,0.0,0.0,0.0,0.0,0.0,0.0,0.0,0.0,0.0,0.0,0.0,0.0,0.0,0.0,0.0,0.0,0.0,0.0,0.0,0.0,0.0,0.0,0.0,0.0,0.0,0.0,0.0,0.0,0.0,0.0,0.0,0.0,0.0,0.0,0.0,0.0,0.0,0.0,0.0,0.0,-0.6673,-0.578,-0.5194,-0.524,-0.5248,-0.5245,-0.5206,-0.4729,-0.4105,-0.335,-0.2871,0.0,0.0,0.0,0.0,0.0,0.0,0.0,0.0,0.0,0.0,0.0,0.0,0.0,0.0,0.0,0.0,0.0,0.0,0.0,0.0,0.0,0.0,0.0,0.0,0.0,0.0,0.0,0.0,0.0,0.0,0.0,0.0,0.0,0.0,0.0,0.0,0.0,0.0,0.0,0.0,0.0,0.0,0.0,0.0,0.0,0.0,0.0,0.0,0.0,0.0,0.0,0.0,0.0,0.0,0.0,0.0,0.0,0.0,0.0,-1.1869,-1.2008,0.0,0.0,0.0,0.0,0.0,0.0,0.0,0.0,0.0,0.0,0.0,0.0,0.0,0.0,0.0,0.0,0.0,0.0,0.0,0.0,0.0,0.0,0.0,0.0,0.0,0.0,0.0,0.0,0.0,0.0,0.0,0.0,0.0,0.0,0.0,0.0,0.0,0.0,0.0,0.0,-0.6461,-0.5782,-0.5354,-0.5374,-0.5378,-0.5427,-0.5504,-0.518,-0.4609,-0.3702,-0.3372,0.0,0.0,0.0,0.0,0.0,0.0,0.0,0.0,0.0,0.0,0.0,0.0,0.0,0.0,0.0,0.0,0.0,0.0,0.0,0.0,0.0,0.0,0.0,0.0,0.0,0.0,0.0,0.0,0.0,0.0,0.0,0.0,0.0,0.0,0.0,0.0,0.0,0.0,0.0,0.0,0.0,0.0,0.0,0.0,0.0,0.0,0.0,0.0,0.0,0.0,0.0,0.0,0.0,-1.1713,-1.1702,-1.1702,-1.1928,-1.1556,-1.0728,-1.0987,-1.134,-1.1637,-1.0971,0.0,0.0,0.0,0.0,0.0,0.0,0.0,0.0,0.0,0.0,0.0,0.0,0.0,0.0,0.0,0.0,0.0,0.0,0.0,0.0,0.0,0.0,-0.6796,-0.7176,-0.6603,-0.6458,-0.8292,0.0,0.0,0.0,0.0,0.0,0.0,0.0,0.0,0.0,0.0,0.0,-0.5983,-0.5728,-0.5614,-0.5614,-0.5614,-0.5614,-0.5614,-0.5614,-0.5145,-0.4033,-0.3921,-0.3377,0.0,0.0,0.0,0.0,0.0,0.0,0.0,0.0,0.0,0.0,0.0,0.0,0.0,0.0,0.0,0.0,0.0,0.0,0.0,0.0,0.0,0.0,0.0,0.0,0.0,0.0,0.0,0.0,0.0,0.0,0.0,0.0,-1.0409,-1.0651,0.0,0.0,0.0,0.0,0.0,0.0,0.0,0.0,0.0,0.0,0.0,0.0,0.0,-1.2093,-1.1639,-1.1419,-1.1195,-1.0939,-1.0663,-1.0524,-1.0524,-1.0552,-1.0629,-1.0659,-1.0161,0.0,-1.0489,-1.123,0.0,0.0,0.0,0.0,0.0,0.0,0.0,0.0,0.0,0.0,0.0,0.0,0.0,0.0,0.0,0.0,0.0,0.0,0.0,0.0,0.0,0.0,-0.7628,-0.8247,-0.7242,-0.6479,-0.76,-0.7178,-0.6724,-0.7262,-0.7031,-0.6864,0.0,0.0,0.0,0.0,0.0,0.0,-0.5841,-0.5688,-0.5614,-0.5614,-0.5614,-0.5614,-0.5614,-0.5614,-0.5321,-0.4708,-0.4118,-0.3453,-0.2658,-0.2169,0.0,0.0,0.0,0.0,0.0,0.0,0.0,0.0,0.0,0.0,0.0,0.0,0.0,0.0,0.0,0.0,0.0,0.0,0.0,0.0,0.0,0.0,0.0,0.0,0.0,0.0,0.0,0.0,0.0,-0.9792,-1.0513,-1.0171,-1.1331,-1.1953,0.0,0.0,0.0,0.0,0.0,0.0,0.0,0.0,0.0,-1.102,-1.1096,-1.0724,-0.9911,-1.0439,-1.0535,-1.0254,-1.0435,-1.0532,-1.0532,-1.0532,-1.0759,-1.1129,-1.0847,-1.086,-1.1094,-1.0927,-1.0886,-1.0901,0.0,0.0,0.0,0.0,-0.9788,-1.0104,-0.9737,-1.0377,-1.1345,-1.1121,0.0,0.0,0.0,0.0,0.0,0.0,0.0,-0.8855,-0.8633,-0.781,-0.7189,-0.7796,-0.696,-0.6147,-0.6584,-0.6237,-0.6022,-0.6707,-0.6584,-0.649,-0.6844,-0.7025,0.0,0.0,0.0,-0.6188,-0.5635,-0.5674,-0.5768,-0.5768,-0.5768,-0.5768,-0.5768,-0.5768,-0.5493,-0.4891,-0.4586,-0.4096,-0.3401,-0.2829,-0.2438,0.0,0.0,0.0,0.0,0.0,0.0,0.0,0.0,0.0,0.0,0.0,0.0,0.0,0.0,0.0,0.0,0.0,0.0,0.0,0.0,0.0,0.0,0.0,0.0,0.0,0.0,0.0,0.0,-0.9054,-0.9929,-0.9589,-1.0707,-1.1348,0.0,0.0,0.0,0.0,0.0,0.0,-1.1765,-1.1129,-1.057,-1.016,-1.0263,-0.9886,-0.9042,-0.9923,-1.0273,-1.0047,-1.0515,-1.072,-1.072,-1.072,-1.0995,-1.1446,-1.1446,-1.1587,-1.1741,-1.0935,-1.0866,-1.1237,-1.095,-1.0664,-1.043,-1.0255,-1.0373,-1.0541,-1.0146,-1.0897,-1.1968,-1.172,-1.1991,-1.2349,-1.1927,0.0,0.0,0.0,0.0,-0.9528,-0.9543,-0.8119,-0.6779,-0.7165,-0.6503,-0.5758,-0.5758,-0.5479,-0.5469,-0.6205,-0.6128,-0.6072,-0.6483,-0.6706,0.0,-0.5602,-0.5943,-0.6084,-0.5432,-0.568,-0.5886,-0.5886,-0.5886,-0.5886,-0.5886,-0.5886,-0.5702,-0.5172,-0.4988,-0.4681,-0.4189,-0.3545,-0.3108,-0.2848,0.0,0.0,0.0,0.0,0.0,0.0,0.0,0.0,0.0,0.0,0.0,0.0,0.0,0.0,0.0,0.0,0.0,0.0,0.0,0.0,0.0,0.0,0.0,0.0,0.0,0.0,0.0,0.0,0.0,-0.8507,-0.9873,0.0,0.0,0.0,0.0,-1.23,-1.1288,-1.1054,-1.1934,-1.0811,-1.0191,-1.0305,-1.0285,-1.0345,-1.0494,-1.0554,-1.0651,-1.0763,-1.0793,-1.0793,-1.0793,-1.0793,-1.0982,-1.1322,-1.1322,-1.1511,-1.1806,-1.1749,-1.1733,-1.1717,-1.133,-1.1155,-1.107,-1.0427,-1.0792,-1.1577,-1.1234,-1.1994,-1.3138,-1.3311,-1.3368,-1.3059,-1.1534,-1.1339,0.0,0.0,-0.9572,-0.9615,-0.8567,-0.7582,-0.69,-0.6914,-0.6116,-0.5331,-0.5331,-0.5363,-0.5504,-0.5849,-0.5557,-0.5307,-0.5539,0.0,-0.5435,-0.493,-0.526,-0.5467,-0.5244,-0.561,-0.5886,-0.5886,-0.5886,-0.5886,-0.5886,-0.5886,-0.5886,-0.5855,-0.5268,-0.4896,-0.4865,-0.422,-0.3569,-0.3009,-0.2821,0.0,0.0,0.0,0.0,0.0,0.0,0.0,0.0,0.0,0.0,0.0,0.0,0.0,0.0,0.0,0.0,0.0,0.0,0.0,0.0,0.0,0.0,0.0,0.0,0.0,0.0,0.0,0.0,-0.9099,-0.961,0.0,-0.968,-1.0111,-1.0512,-1.0781,-1.0544,-1.0606,-1.1078,-1.0663,-1.0478,-1.0606,-1.0614,-1.0673,-1.0733,-1.0943,-1.0974,-1.0785,-1.1035,-1.1126,-1.1126,-1.1126,-1.1307,-1.1617,-1.1617,-1.1677,-1.1806,-1.1806,-1.1806,-1.179,-1.163,-1.1581,-1.157,-1.131,-1.145,-1.1764,-1.1624,-1.2001,-1.2552,-1.244,-1.2401,-1.2251,-1.1696,-1.1642,-1.173,-1.1498,-1.0985,-1.0524,-1.0724,-0.9456,-0.8075,-0.7867,-0.7043,-0.6163,-0.5498,-0.5369,-0.5492,-0.5831,-0.5614,-0.5406,-0.5496,-0.5655,-0.5655,-0.5289,-0.5524,-0.5719,-0.5658,-0.5837,-0.5975,-0.5975,-0.6055,-0.6088,-0.6088,-0.6088,-0.6088,-0.6088,-0.5863,-0.5736,-0.5736,-0.463,-0.3933,-0.3714,-0.2812,-0.2152,0.0,0.0,0.0,0.0,0.0,0.0,0.0,0.0,0.0,0.0,0.0,0.0,0.0,0.0,0.0,0.0,0.0,0.0,0.0,0.0,0.0,0.0,0.0,0.0,0.0,-0.9378,-0.9977,-0.96,-0.9729,-0.9838,-0.9815,-0.9874,-1.0003,-1.018,-1.0374,-1.0576,-1.0808,-1.0845,-1.0928,-1.1126,-1.1126,-1.1156,-1.121,-1.1423,-1.1455,-1.1295,-1.154,-1.1632,-1.1632,-1.1632,-1.1627,-1.1598,-1.1784,-1.1727,-1.1546,-1.1733,-1.1806,-1.1806,-1.1806,-1.1806,-1.1776,-1.1557,-1.1625,-1.1776,-1.1677,-1.1801,-1.1941,-1.1659,-1.1294,-1.0957,-1.0783,-1.0418,-1.013,-1.0347,-0.9795,-0.9279,-0.9909,-0.8605,-0.7149,-0.7154,-0.6447,-0.5579,-0.4902,-0.4855,-0.4912,-0.4919,-0.5297,-0.5606,-0.5484,-0.5614,-0.5643,-0.5369,-0.5455,-0.5532,-0.5594,-0.5727,-0.5841,-0.5841,-0.6055,-0.6086,-0.5857,-0.5942,-0.5831,-0.5468,-0.5595,-0.5615,-0.5468,-0.4677,-0.4162,-0.3943,-0.2777,-0.2044,-0.1723,0.0,0.0,0.0,0.0,0.0,0.0,0.0,0.0,0.0,0.0,0.0,0.0,0.0,0.0,0.0,0.0,0.0,0.0,0.0,0.0,0.0,0.0,0.0,-0.8511,-0.9323,-0.9934,-0.9929,-1.0186,-1.0412,-1.0606,-1.0621,-1.0688,-1.0808,-1.0823,-1.0974,-1.1299,-1.1284,-1.1434,-1.1752,-1.179,-1.1841,-1.1973,-1.1997,-1.2094,-1.2304,-1.2304,-1.2304,-1.2304,-1.2304,-1.1922,-1.126,-1.1778,-1.1646,-1.1082,-1.1603,-1.1823,-1.1823,-1.1815,-1.1776,-1.1686,-1.1035,-1.1186,-1.1677,-1.1314,-1.1309,-1.1433,-1.1016,-1.0169,-0.9178,-0.865,-0.7609,-0.6527,-0.6039,-0.5896,-0.5896,-0.5896,-0.4943,-0.4119,-0.4739,-0.4176,-0.35,-0.3469,-0.3733,-0.3771,-0.3114,-0.4533,-0.5724,-0.5411,-0.535,-0.5261,-0.4998,-0.4856,0.0,-0.4946,-0.5261,-0.5475,-0.5475,-0.5886,-0.5889,-0.5158,-0.5403,-0.5143,-0.4082,-0.4371,-0.4404,-0.4024,-0.4364,-0.4228,-0.3578,-0.2782,-0.2186,-0.1817,0.0,0.0,0.0,0.0,0.0,0.0,0.0,0.0,0.0,0.0,0.0,0.0,0.0,0.0,0.0,0.0,0.0,0.0,0.0,0.0,0.0,-0.9792,-0.9965,-1.0246,-1.04,-1.0575,-1.0875,-1.0985,-1.1062,-1.1109,-1.1116,-1.123,-1.1496,-1.1526,-1.1557,-1.1647,-1.1286,-1.1126,-1.122,-1.1313,-1.1365,-1.1414,-1.1932,-1.2255,-1.2304,-1.2304,-1.2304,-1.2304,-1.2304,-1.2199,-1.202,-1.2135,-1.2117,-1.1947,-1.2101,-1.2158,-1.2134,-1.1874,-1.1496,-1.1065,-1.0883,-1.0611,-1.0153,-0.8753,-0.8548,-0.8659,-0.7122,-0.6385,-0.6114,-0.5964,-0.5686,-0.5474,-0.58,-0.5886,-0.5886,-0.5886,-0.5634,-0.5161,-0.4377,-0.3981,-0.3611,-0.2913,-0.2844,-0.2923,-0.2983,-0.3424,-0.3831,-0.3986,-0.4007,-0.4083,-0.4246,-0.4252,-0.4246,-0.4264,-0.4437,-0.4734,-0.5238,-0.5217,-0.521,-0.5301,-0.5136,-0.478,-0.4237,-0.4322,-0.4346,-0.4215,-0.3798,-0.328,-0.26,-0.226,-0.2065,0.0,0.0,0.0,0.0,0.0,0.0,0.0,0.0,0.0,0.0,0.0,0.0,0.0,0.0,0.0,0.0,0.0,0.0,0.0,0.0,0.0,0.0,-0.9448,-0.9959,-1.0809,-1.1064,-1.1239,-1.1471,-1.1526,-1.1526,-1.1526,-1.1526,-1.1587,-1.1776,-1.1806,-1.1806,-1.1806,-1.1505,-1.1228,-1.1,-1.1354,-1.1454,-1.1338,-1.2052,-1.245,-1.2499,-1.2499,-1.2499,-1.2499,-1.2499,-1.2369,-1.2093,-1.232,-1.2247,-1.1957,-1.187,-1.183,-1.1815,0.0,0.0,0.0,0.0,-0.9218,-0.8433,-0.6747,-0.6366,-0.6403,-0.4942,-0.4124,-0.368,-0.368,-0.3293,-0.2942,-0.3308,-0.3414,-0.3413,-0.3434,-0.3415,-0.3304,-0.2809,-0.2714,-0.2564,-0.1983,-0.1881,-0.1866,-0.1761,-0.1729,0.0,-0.2186,-0.2832,-0.3363,-0.36,-0.36,-0.3595,-0.3618,-0.3823,-0.4094,-0.4475,-0.4559,-0.4574,-0.4492,-0.4435,0.0,0.0,0.0,-0.3634,-0.3634,-0.3213,0.0,0.0,0.0,-0.1824,-0.1083,-0.1015,0.0,0.0,0.0175,0.1253,0.0,0.0,0.0,0.0,0.0,0.0,0.0,0.0,0.0,0.0,0.0,0.0,0.0,0.0,0.0,0.0,-0.8756,-0.9247,-1.0493,-1.1194,-1.1625,-1.1776,-1.1806,-1.1806,-1.1806,-1.1806,-1.1806,-1.1806,-1.1806,-1.1806,-1.1806,-1.1766,0.0,0.0,0.0,-1.1819,-1.1533,-1.2271,-1.2678,-1.2807,-1.2807,-1.2807,-1.2807,-1.2708,-1.2363,-1.1831,-1.2234,-1.2011,-1.1387,-1.1228,-1.1089,-1.1018,-1.0989,-1.0968,-1.0707,-0.8529,-0.7399,-0.6737,-0.5065,0.0,0.0,-0.37,-0.2707,-0.1775,-0.1775,-0.0935,0.0,0.0,0.0,0.0,0.0,0.0,-0.0149,-0.0734,-0.0949,-0.0958,-0.0892,-0.092,-0.0779,-0.0133,0.0,-0.0094,-0.0433,-0.1768,-0.2829,-0.2906,-0.2907,-0.2923,-0.2994,-0.3271,-0.3476,-0.3537,-0.3892,0.0,-0.326,-0.3509,-0.3257,-0.2248,-0.2472,-0.2648,-0.2648,-0.2648,-0.2595,-0.2472,-0.23,-0.1413,0.0183,0.0335,0.1073,0.2312,0.1241,0.2045,0.0,0.0,0.0,0.0,0.0,0.0,0.0,0.0,0.0,0.0,0.0,0.0,0.0,0.0,0.0,-0.9084,-0.8958,-0.9093,-0.9893,-1.0095,-1.0581,-1.1686,-1.1806,-1.1806,-1.1806,-1.1806,-1.1806,-1.1806,-1.1806,-1.1806,-1.1806,-1.1492,-1.1281,-1.1147,-1.1598,-1.1823,-1.1749,-1.2426,-1.2767,-1.2807,-1.2807,0.0,-1.2766,-1.2239,-1.1906,-1.176,-1.126,-1.1002,-1.0832,-1.0825,-1.0465,-0.9978,-0.9684,-0.9602,-0.9285,-0.6812,-0.607,-0.587,-0.298,-0.2256,-0.2349,-0.116,-0.0585,-0.0393,-0.0393,-0.0197,0.0,0.0,0.0,0.0,0.0,0.0,-0.0033,-0.0166,-0.0201,-0.0201,-0.0201,-0.0199,-0.0166,-0.0034,0.0,-0.0099,-0.0436,-0.1029,-0.1572,-0.185,-0.2168,-0.236,-0.2367,-0.2424,-0.2671,-0.3228,-0.3105,-0.3071,-0.3182,-0.3031,-0.2722,-0.2214,-0.2265,-0.2285,-0.2285,-0.2285,-0.2271,-0.2272,-0.1102,-0.0326,0.0033,0.1184,0.2484,0.3861,0.3633,0.3821,0.0,0.0,0.0,0.0,0.0,0.0,0.0,0.0,0.0,0.0,0.0,-0.8666,-0.8283,0.0,-0.8108,-0.8231,-0.8125,-0.8111,-0.832,-0.8903,-0.967,-1.0679,-1.08,-1.08,-1.08,-1.08,-1.08,-1.08,-1.08,-1.0837,-1.0889,-1.0702,-1.0502,-1.031,-1.0813,-1.0984,-1.0702,-1.1384,-1.1743,-1.1743,-1.1743,-1.1743,-1.1743,-1.1413,-1.1247,-1.1214,-1.085,-1.0684,-1.0684,-1.0352,-0.935,-0.8035,-0.7858,-0.7812,-0.7457,-0.4737,-0.3912,-0.3763,-0.1464,-0.0803,-0.0889,-0.0231,0.0,0.0,0.0,0.0,0.0,0.0,0.0,0.0,0.0,0.0,0.0,0.0,0.0,0.0,0.0,0.0,0.0,0.0,0.0,-0.0067,-0.0236,-0.0572,-0.0909,-0.1279,-0.1515,-0.1649,-0.1649,-0.1784,-0.2019,-0.2354,-0.2427,-0.2513,-0.2685,-0.2557,-0.2384,-0.2218,-0.2189,-0.2189,-0.2189,-0.2189,-0.2189,-0.2189,-0.148,-0.0403,0.1041,0.1746,0.3222,0.5409,0.5409,0.5409,0.0,0.0,0.0,0.0,0.0,0.0,0.0,-0.8517,-0.8598,-0.8517,-0.8553,-0.842,-0.7783,-0.7523,-0.7315,-0.6992,-0.6771,-0.6652,-0.6689,-0.7586,-0.8549,-0.9374,-0.966,-0.9792,-0.9792,-0.9819,-0.9832,-0.9832,-0.9859,-0.9927,-1.0024,-1.0058,-0.9932,-0.96,-1.0174,-1.0262,-0.9806,-1.0408,-1.0684,-1.0684,-1.0684,-1.0684,-1.0684,-1.0585,-1.0518,-1.0485,-1.0352,-1.012,-0.9815,-0.9283,-0.7841,-0.5971,-0.567,-0.557,-0.5268,-0.2956,-0.2084,-0.1882,-0.0505,0.0,0.0,0.0,0.0,0.0,0.0,0.0,0.0,0.0,0.0,0.0,0.0,0.0,0.0,0.0,0.0,0.0,0.0,0.0,0.0,0.0,0.0,0.0,0.0,-0.0236,-0.0539,-0.0909,-0.1043,-0.1111,-0.1178,-0.1447,-0.1616,-0.1717,-0.2019,-0.219,-0.2197,-0.2203,-0.2207,-0.2207,-0.2207,-0.2207,-0.2207,-0.2207,-0.207,-0.1765,-0.1492,-0.0034,0.2571,0.2877,0.4231,0.6542,0.6542,0.6522,-0.8249,-0.7384,-0.6757,-0.6857,-0.7125,-0.7309,0.0,-0.7455,-0.7879,-0.7466,-0.7695,-0.7966,-0.7878,-0.6914,-0.6107,-0.6059,-0.5061,-0.4679,-0.5839,-0.6123,-0.6737,-0.8112,-0.9198,-0.9792,-0.9792,-0.9913,-0.9994,-0.9994,-1.0078,-1.0152,-1.0172,-1.03,-1.0329,-1.0295,-1.0523,-1.0637,-1.0583,-1.065,-1.0684,-1.0684,-1.0684,-1.0684,-1.0684,-1.0081,-0.9815,-0.9782,-0.9117,-0.8084,-0.6878,-0.6811,-0.5871,-0.4395,-0.309,-0.2588,-0.2554,-0.2218,-0.2084,-0.1882,-0.0505,0.0,0.0,0.0,0.0,0.0,0.0,0.0,0.0,0.0,0.0,0.0,0.0,0.0,0.0,0.0,0.0,0.0,0.0,0.0,0.0,0.0,0.0,0.0,0.0,-0.0034,-0.0168,-0.0505,-0.0875,-0.1212,-0.1515,-0.1582,-0.175,-0.2087,-0.2188,-0.2199,-0.2192,-0.2185,-0.2201,-0.2201,-0.2201,-0.2201,-0.2201,-0.2201,-0.157,-0.0174,0.108,0.2575,0.4316,0.5573,0.6345,0.6662,0.6662,0.6611,-0.7591,-0.7265,-0.7051,-0.71,-0.7361,-0.7559,-0.7383,-0.7646,-0.7842,-0.7641,-0.7761,-0.7653,-0.6888,-0.6107,-0.5413,-0.4833,-0.4115,-0.361,-0.3614,-0.4264,-0.4684,-0.4553,-0.5629,-0.6939,-0.8431,-0.8815,-0.8887,-0.8684,-0.8899,-0.9058,-0.9136,-0.9196,-0.9261,-0.9333,-0.9425,-0.9489,-0.9489,-0.9489,-0.9525,-0.9603,-0.9603,-0.9611,-0.9621,-0.8444,-0.741,-0.6556,-0.6218,-0.5738,-0.519,-0.519,-0.4332,-0.2956,-0.2354,-0.1599,-0.0884,-0.0877,-0.0875,-0.0807,-0.0202,0.0,0.0,0.0,0.0,0.0,0.0,0.0,0.0,0.0,0.0,0.0,0.0,0.0,0.0,0.0,0.0,0.0,0.0,0.0,0.0,0.0,0.0,0.0,0.0,0.0,-0.0034,-0.0172,-0.0342,-0.0513,-0.0655,-0.1034,-0.1552,-0.2138,-0.2207,-0.2213,-0.219,-0.2204,-0.221,-0.221,-0.221,-0.221,-0.221,-0.1332,-0.056,0.007,0.1574,0.3077,0.4617,0.5178,0.5915,0.6725,0.7178,0.7373,-0.7193,-0.7264,-0.7327,-0.7457,-0.7649,-0.7821,-0.7886,-0.7903,-0.7811,-0.7408,-0.7342,-0.6931,-0.5602,-0.4868,-0.4211,-0.3491,-0.2866,-0.236,-0.2048,-0.28,-0.3175,-0.2641,-0.3396,-0.4647,-0.6457,-0.6898,-0.7123,-0.7291,-0.7563,-0.7749,-0.783,-0.8235,-0.8503,-0.8584,-0.8622,-0.8672,-0.8672,-0.8262,-0.8082,-0.8196,-0.7746,-0.7583,-0.7583,-0.6461,-0.5346,-0.43,-0.43,-0.4055,-0.3706,-0.3693,-0.2819,-0.1531,-0.151,-0.0888,0.0,0.0,0.0,0.0,0.0,0.0,0.0,0.0,0.0,0.0,0.0,0.0,0.0,0.0,0.0,0.0,0.0,0.0,0.0,0.0,0.0,0.0,0.0,0.0,0.0,0.0,0.0,0.0,0.0,0.0,0.0,0.0,0.0,-0.0035,-0.014,-0.0807,-0.1509,-0.214,-0.2218,-0.2222,-0.2222,-0.2229,-0.2234,-0.2234,-0.2234,-0.2022,-0.1595,-0.0531,0.0495,0.1345,0.2475,0.3784,0.527,0.5479,0.6081,0.7112,0.7921,0.8273,-0.7122,-0.7018,-0.6937,-0.7376,-0.7495,-0.7589,-0.7848,-0.7903,-0.7536,-0.6215,-0.5947,-0.5565,-0.4213,-0.2957,-0.2087,-0.2059,-0.0966,-0.0547,-0.1835,-0.2028,-0.2547,-0.3864,-0.406,-0.4059,-0.3941,-0.4092,-0.4827,-0.6239,-0.6415,-0.6468,-0.6473,-0.7812,-0.8584,-0.859,-0.8738,-0.8798,-0.8798,-0.738,-0.6662,-0.6666,-0.5169,-0.4439,-0.4439,-0.4404,-0.4335,-0.43,-0.43,-0.3499,-0.217,-0.2175,-0.1339,-0.0069,-0.0068,-0.0034,0.0,0.0,0.0,0.0,0.0,0.0,0.0,0.0,0.0,0.0,0.0,0.0,0.0,0.0,0.0,0.0,0.0,0.0,0.0,0.0,0.0,0.0,0.0,0.0,0.0,0.0,0.0,0.0,0.0,0.0,0.0,0.0,0.0,-0.0107,-0.0457,-0.1192,-0.1824,-0.2175,-0.2273,-0.2289,-0.2289,-0.2315,-0.2293,-0.2293,-0.2293,-0.1638,-0.0146,-0.0036,0.1455,0.4506,0.4615,0.538,0.6946,0.7661,0.8023,0.8059,0.8894,0.9255,-0.6969,-0.7095,-0.7289,-0.7452,-0.7638,-0.7548,-0.6743,-0.6558,-0.6197,-0.4838,-0.4574,-0.4184,-0.2886,-0.228,-0.1696,-0.0821,-0.0307,-0.0154,-0.0624,-0.0663,-0.0835,-0.1332,-0.1365,-0.1727,-0.2604,-0.3633,-0.4348,-0.4618,-0.4862,-0.4997,-0.4997,-0.5481,-0.5746,-0.5746,-0.579,-0.583,-0.583,-0.5333,-0.5124,-0.5206,-0.4753,-0.4004,-0.2977,-0.326,-0.2788,-0.1786,-0.2066,-0.1901,-0.1421,-0.145,-0.1171,-0.0786,-0.0811,-0.0807,-0.0806,-0.0798,-0.0796,-0.0725,-0.0169,0.0,0.0,0.0,0.0,0.0,0.0,0.0,0.0,0.0,0.0,0.0,0.0,0.0,0.0,0.0,0.0,0.0,0.0,0.0,0.0,0.0,0.0,0.0,0.0,0.0,-0.0108,-0.0362,-0.0399,-0.0543,-0.0901,-0.144,-0.1907,-0.2232,-0.2276,-0.2283,-0.2283,-0.2291,-0.2296,-0.2296,-0.1348,-0.0546,-0.0036,0.2002,0.3855,0.5413,0.6431,0.7489,0.8543,0.876,0.8904,0.8904,0.9735,1.0095,-0.6471,-0.6569,-0.668,-0.6304,-0.635,-0.6233,-0.5378,-0.5171,-0.4801,-0.35,-0.3215,-0.2829,-0.1526,-0.1275,-0.0996,-0.0126,0.0,-0.0031,-0.0166,-0.0193,-0.022,-0.036,-0.0407,-0.0737,-0.1664,-0.2457,-0.3005,-0.3173,-0.3402,-0.3518,-0.3503,-0.4001,-0.4293,-0.4311,-0.4335,-0.4437,-0.4577,-0.405,-0.3645,-0.3286,-0.3385,-0.2888,-0.1907,-0.2159,-0.1697,-0.0653,-0.0986,-0.1094,-0.1045,-0.1101,-0.1151,-0.1194,-0.1215,-0.1208,-0.1207,-0.1197,-0.1192,-0.1119,-0.0619,-0.0444,-0.0444,-0.0444,-0.0444,-0.0444,-0.0444,-0.0412,-0.0415,-0.0415,-0.0418,-0.0421,-0.0421,-0.0421,-0.0386,-0.0247,-0.0212,-0.0177,-0.0036,0.0,0.0,0.0,0.0,0.0,0.0,0.0,-0.0146,-0.0547,-0.073,-0.0949,-0.1349,-0.164,-0.1932,-0.226,-0.2296,-0.2296,-0.2296,-0.2296,-0.2078,-0.1531,-0.0546,0.051,0.1638,0.3639,0.531,0.6608,0.7593,0.8502,0.9302,0.959,0.9735,0.9735,1.0527,1.0919,-0.5738,-0.5467,-0.5225,-0.419,-0.3949,-0.3925,-0.3865,-0.3865,-0.3479,-0.2221,-0.195,-0.1561,-0.0285,-0.0031,-0.0032,-0.0064,-0.0063,-0.0159,-0.0467,-0.0536,-0.066,-0.1047,-0.1107,-0.1089,-0.1104,-0.0753,-0.0966,-0.1991,-0.2024,-0.2039,-0.2068,-0.3396,-0.4146,-0.4158,-0.4254,-0.4496,-0.489,-0.3498,-0.225,-0.111,-0.111,-0.1153,-0.1203,-0.1203,-0.1127,-0.0962,-0.1169,-0.116,-0.0997,-0.1192,-0.1253,-0.1252,-0.1272,-0.1265,-0.1265,-0.1265,-0.1265,-0.1265,-0.1265,-0.1229,-0.1192,-0.1192,-0.1192,-0.1192,-0.1192,-0.1193,-0.1194,-0.1194,-0.1194,-0.1195,-0.1195,-0.1195,-0.1093,-0.0714,-0.0645,-0.0539,-0.0146,-0.0073,-0.0073,-0.0073,-0.0073,-0.0073,-0.0073,-0.0073,-0.0182,-0.0584,-0.0986,-0.1388,-0.175,-0.1822,-0.1932,-0.226,-0.2296,-0.226,-0.2187,-0.2188,-0.1532,0.0036,0.0255,0.1641,0.4665,0.4883,0.5974,0.8191,0.8227,0.863,0.9432,1.0221,1.0582,1.0582,1.1316,1.1678,-0.5693,-0.5196,-0.4756,-0.4728,-0.4721,-0.4456,-0.346,-0.324,-0.2839,-0.1518,-0.124,-0.112,-0.0754,-0.0664,-0.0688,-0.0741,-0.0711,-0.0703,-0.0794,-0.0873,-0.0954,-0.0945,-0.1052,-0.11,-0.109,-0.105,-0.1152,-0.1404,-0.1141,-0.1129,-0.1408,-0.1803,-0.2,-0.1991,-0.1962,-0.2002,-0.2109,-0.1752,-0.1395,-0.111,-0.1157,-0.1194,-0.1223,-0.1474,-0.156,-0.1521,-0.1829,-0.1941,-0.1931,-0.1993,-0.2015,-0.203,-0.2024,-0.2021,-0.2021,-0.2021,-0.2021,-0.2021,-0.2021,-0.1675,-0.1192,-0.1192,-0.1192,-0.1192,-0.1192,-0.1201,-0.121,-0.121,-0.1183,-0.1192,-0.1192,-0.1192,-0.1157,-0.1088,-0.1053,-0.1018,-0.0912,-0.0876,-0.0876,-0.0876,-0.0876,-0.0876,-0.0876,-0.0876,-0.1021,-0.1422,-0.158,-0.1695,-0.1788,-0.2005,-0.2187,-0.2296,-0.2296,-0.1822,-0.0692,-0.0551,0.0185,0.1772,0.3609,0.4971,0.5795,0.7509,0.8969,1.0168,1.0199,1.0576,1.139,1.1575,1.1686,1.1686,1.1871,1.2002,-0.463,-0.4199,-0.3739,-0.3382,-0.3299,-0.3083,-0.2286,-0.212,-0.191,-0.1103,-0.0964,-0.0946,-0.091,-0.09,-0.0926,-0.0976,-0.0941,-0.0958,-0.1125,-0.1236,-0.1323,-0.1429,-0.1509,-0.1546,-0.1587,-0.1475,-0.1508,-0.1678,-0.1161,-0.0959,-0.1171,-0.1215,-0.1194,-0.1145,-0.111,-0.1178,-0.1348,-0.1534,-0.1614,-0.1623,-0.1672,-0.1682,-0.1725,-0.1909,-0.198,-0.195,-0.2187,-0.226,-0.2256,-0.2322,-0.2358,-0.2334,-0.2358,-0.2353,-0.235,-0.2301,-0.2296,-0.2296,-0.2296,-0.2022,-0.1677,-0.1677,-0.1677,-0.1677,-0.1677,-0.1685,-0.1695,-0.1695,-0.1668,-0.1678,-0.1678,-0.1678,-0.1641,-0.1495,-0.1459,-0.1422,-0.1241,-0.1204,-0.1204,-0.1204,-0.1209,-0.1213,-0.1213,-0.1219,-0.1261,-0.126,-0.1268,-0.1196,-0.1001,-0.1779,-0.2335,-0.2335,-0.137,-0.037,0.0481,0.1637,0.2985,0.4556,0.5972,0.7014,0.7694,0.9013,1.0073,1.0865,1.0902,1.1314,1.2098,1.2098,1.2098,1.2098,1.2098,1.2132,-0.3288,-0.2931,-0.2575,-0.152,-0.1234,-0.1238,-0.1174,-0.113,-0.1112,-0.1035,-0.1031,-0.1025,-0.1014,-0.1021,-0.1031,-0.1097,-0.1081,-0.1162,-0.148,-0.1569,-0.1714,-0.2045,-0.2092,-0.2117,-0.2205,-0.1946,-0.1922,-0.229,-0.1716,-0.1343,-0.1357,-0.1357,-0.131,-0.1248,-0.1253,-0.1426,-0.1759,-0.2142,-0.2315,-0.2301,-0.2307,-0.2335,-0.2386,-0.2386,-0.2353,-0.2237,-0.2367,-0.235,-0.224,-0.2371,-0.2386,-0.2382,-0.2278,-0.2229,-0.2225,-0.2051,-0.2005,-0.2005,-0.2005,-0.2005,-0.2041,-0.2223,-0.2296,-0.2296,-0.2296,-0.2296,-0.2296,-0.2296,-0.2223,-0.215,-0.215,-0.215,-0.2078,-0.1786,-0.1786,-0.1786,-0.1422,-0.1279,-0.1171,-0.1063,-0.1036,-0.1043,-0.1043,-0.109,-0.0984,-0.0568,-0.0531,-0.0379,0.0038,-0.1175,-0.1968,-0.1778,0.0189,0.1658,0.2073,0.4148,0.6077,0.7628,0.7867,0.8521,0.9855,1.0005,1.0381,1.1108,1.1108,1.1446,1.2159,1.2159,1.2159,1.2159,1.2159,1.2227,-0.3179,-0.2506,-0.1878,-0.1978,-0.2017,-0.2017,-0.2008,-0.1918,-0.182,-0.1731,-0.167,-0.1658,-0.1637,-0.1646,-0.1656,-0.1743,-0.173,-0.1719,-0.1749,-0.1886,-0.1968,-0.1931,-0.2041,-0.2148,-0.2271,-0.2185,-0.2175,-0.2285,-0.2186,-0.2108,-0.2127,-0.2125,-0.2086,-0.2007,-0.2048,-0.2132,-0.2212,-0.2337,-0.2365,-0.2371,-0.2395,-0.2375,-0.2386,-0.2386,-0.2371,-0.2348,-0.2375,-0.2371,-0.235,-0.2375,-0.2386,-0.2344,-0.168,-0.1412,-0.1335,-0.0659,-0.0401,-0.0401,-0.0401,-0.0401,-0.0619,-0.1895,-0.2296,-0.2296,-0.2296,-0.2296,-0.2296,-0.2296,-0.1859,-0.1384,-0.1384,-0.1384,-0.1384,-0.1311,-0.1786,-0.2187,-0.2114,-0.158,-0.0929,-0.0263,-0.0113,-0.0113,-0.0113,-0.0151,-0.0114,-0.0038,-0.0076,-0.0077,0.0,-0.019,0.0189,0.1585,0.2111,0.3466,0.6101,0.6846,0.7807,0.9383,1.0201,1.0726,1.0996,1.1651,1.2074,1.2234,1.2234,1.2273,1.2427,1.2427,1.2427,1.2427,1.2427,1.244,-0.2635,-0.2293,-0.1952,-0.2154,-0.2189,-0.2168,-0.2056,-0.2004,-0.1908,-0.1816,-0.1768,-0.1748,-0.1748,-0.1748,-0.1789,-0.1881,-0.1889,-0.191,-0.1943,-0.2031,-0.2092,-0.2049,-0.2098,-0.2162,-0.2236,-0.2204,-0.2196,-0.224,-0.2236,-0.2253,-0.229,-0.2305,-0.2313,-0.2315,-0.2342,-0.235,-0.2337,-0.238,-0.2409,-0.2463,-0.1983,-0.1803,-0.1814,-0.1351,-0.1154,-0.1147,-0.1147,-0.1201,-0.1313,-0.1236,-0.123,-0.1276,-0.0776,-0.0557,-0.0519,-0.0146,0.0,0.0,0.0,0.0,-0.0109,-0.0874,-0.1093,-0.1093,-0.1093,-0.1093,-0.1093,-0.1093,-0.0838,-0.0583,-0.0583,-0.0586,-0.0589,-0.0589,-0.0814,-0.1041,-0.1041,-0.0747,-0.0376,0.0038,0.0076,0.0038,0.0038,0.0038,0.0193,0.0656,0.1433,0.2137,0.2564,0.34,0.3579,0.2653,0.453,0.6444,0.7982,0.9379,1.046,1.1203,1.1689,1.1921,1.1921,1.2308,1.2501,1.2501,1.2501,1.2501,1.2501,1.2501,1.2501,1.2501,1.2501,1.2501,-0.2093,-0.2152,-0.2189,-0.2189,-0.2189,-0.2119,-0.1826,-0.1814,-0.1788,-0.1419,-0.1526,-0.166,-0.1558,-0.1655,-0.1771,-0.1887,-0.19,-0.1951,-0.2066,-0.2088,-0.212,-0.2181,-0.2189,-0.214,-0.2015,-0.1963,-0.1891,-0.1705,-0.1692,-0.1891,-0.2308,-0.2148,-0.2059,-0.2118,-0.1979,-0.1872,-0.1872,-0.1896,-0.1917,-0.1975,-0.1277,-0.0971,-0.1017,-0.0313,0.0,-0.0038,-0.0038,-0.0111,-0.0282,-0.0148,-0.0184,-0.0282,0.011,0.0223,0.026,0.0439,0.051,0.051,0.051,0.051,0.051,0.0512,0.0292,0.0,0.0,0.0,0.0,0.0,0.011,0.0256,0.0257,0.0296,0.0224,0.0075,0.0075,0.0152,0.0304,0.0342,0.0418,0.0572,0.0577,0.0542,0.0542,0.0546,0.0785,0.1454,0.2667,0.3877,0.4857,0.646,0.6612,0.4339,0.7069,0.9211,0.9565,1.1366,1.2501,1.2501,1.2501,1.2501,1.2501,1.2501,1.2501,1.2501,1.2501,1.2501,1.2501,1.2501,1.2501,1.2501,1.2501,1.2501,-0.2032,-0.2183,-0.2189,-0.2189,-0.2189,-0.203,-0.1397,-0.1583,-0.1599,-0.0468,-0.097,-0.1502,-0.1129,-0.145,-0.1827,-0.1983,-0.1926,-0.1911,-0.2006,-0.2062,-0.212,-0.2181,-0.2189,-0.1957,-0.1335,-0.118,-0.0826,-0.0144,-0.011,-0.0777,-0.2295,-0.1631,-0.1225,-0.1226,-0.057,-0.0231,-0.0231,-0.0233,-0.0235,-0.0235,-0.0157,-0.0117,-0.0116,-0.0039,-0.0038,-0.0076,-0.0076,-0.0184,-0.0282,-0.0148,-0.0184,-0.0211,0.0659,0.1003,0.1076,0.1831,0.2078,0.2078,0.2078,0.2078,0.2081,0.2144,0.1177,0.0,0.0,0.0,0.0,0.0,0.0519,0.1115,0.1166,0.117,0.0983,0.0265,0.0113,0.0304,0.1037,0.1193,0.139,0.2149,0.2273,0.2275,0.2275,0.2277,0.2278,0.2396,0.2514,0.3179,0.4779,0.646,0.7981,0.9182,0.9654,1.0513,1.203,1.2385,1.2501,1.2501,1.2501,1.2501,1.2501,1.2501,1.2501,1.2501,1.2501,1.2501,1.2501,1.2501,1.2501,1.2501,1.2501,1.2501,-0.0801,-0.0885,-0.0875,-0.0875,-0.0875,-0.0794,-0.0523,-0.0631,-0.0614,-0.0135,-0.0315,-0.0526,-0.0379,-0.083,-0.1277,-0.1324,-0.1666,-0.1954,-0.21,-0.2136,-0.2019,-0.1652,-0.159,-0.1275,-0.0427,-0.0314,-0.014,0.0145,0.0036,-0.0296,-0.092,-0.0611,-0.0419,-0.0423,-0.0155,0.0,0.0,0.0,0.0,0.0,0.0505,0.0733,0.0725,0.122,0.1439,0.1422,0.1422,0.1281,0.1082,0.1288,0.1233,0.1149,0.1638,0.1836,0.1872,0.2191,0.2345,0.236,0.236,0.2372,0.2352,0.2402,0.1985,0.1454,0.1454,0.1454,0.1456,0.1463,0.1691,0.1919,0.1966,0.198,0.1957,0.1623,0.1548,0.1628,0.1948,0.2028,0.211,0.2433,0.2514,0.2514,0.2514,0.2514,0.2514,0.2514,0.4236,0.576,0.642,0.8837,1.0785,1.145,1.1488,1.176,1.2424,1.2501,1.2501,1.2501,1.2501,1.2501,1.2501,1.2501,1.2501,1.2501,1.2501,1.2501,1.2501,1.2501,1.2501,1.2501,1.2501,1.2501,0.0,0.0,0.0,0.0,0.0,0.0032,0.0211,0.0118,0.0058,0.0426,0.0292,0.0161,0.0297,-0.0166,-0.0623,-0.0643,-0.1018,-0.1369,-0.1591,-0.1578,-0.137,-0.0932,-0.0865,-0.0503,0.0393,0.0719,0.0873,0.0888,0.0738,0.0676,0.0744,0.074,0.0623,0.0393,0.0628,0.0746,0.0746,0.0744,0.0739,0.0733,0.1307,0.155,0.151,0.2132,0.2375,0.235,0.2349,0.2237,0.2077,0.2249,0.2213,0.2082,0.2263,0.2346,0.2348,0.2319,0.2373,0.2391,0.2391,0.2406,0.2387,0.2433,0.2436,0.2439,0.2447,0.2399,0.2387,0.2435,0.2443,0.2412,0.2412,0.2466,0.2488,0.2508,0.2514,0.2514,0.2514,0.2514,0.2514,0.2514,0.2514,0.2514,0.2514,0.2514,0.2671,0.3179,0.5251,0.7123,0.8098,1.0319,1.1953,1.2463,1.2501,1.2501,1.2501,1.2501,1.2501,1.2501,1.2501,1.2501,1.2501,1.2501,1.2501,1.2501,1.2501,1.2501,1.2501,1.2501,1.2501,1.2501,1.2501,1.2501,0.0096,-0.0066,0.0,0.0,-0.0065,0.0063,0.0729,0.0378,0.025,0.1448,0.0837,0.0275,0.0782,0.0449,0.0057,-0.0092,0.0,0.0,-0.0196,-0.01,-0.0034,-0.0105,-0.0105,0.0214,0.111,0.1975,0.2466,0.2467,0.2456,0.2473,0.2475,0.2475,0.2121,0.1296,0.2043,0.2475,0.2475,0.2484,0.2469,0.2469,0.2401,0.231,0.2206,0.2324,0.2333,0.2197,0.2282,0.2264,0.2196,0.2283,0.2262,0.2201,0.2355,0.2415,0.2382,0.2412,0.2385,0.2385,0.2385,0.2385,0.2428,0.2459,0.2507,0.2513,0.2504,0.2472,0.2429,0.2498,0.2491,0.2514,0.2514,0.2514,0.2514,0.2514,0.2514,0.2514,0.2514,0.2514,0.2514,0.2514,0.2514,0.2514,0.2514,0.2514,0.3062,0.474,0.5014,0.6222,0.9537,1.0008,1.0668,1.2308,1.2501,1.2501,1.2501,1.2501,1.2501,1.2501,1.2501,1.2501,1.2501,1.2501,1.2501,1.2501,1.2501,1.2501,1.2501,1.2501,1.2501,1.2501,1.2501,1.2501,0.1245,0.1253,0.1317,0.1362,0.1351,0.1353,0.1474,0.138,0.1369,0.17,0.1524,0.1379,0.1485,0.1036,0.0645,0.0665,0.0337,0.0063,0.0,0.0034,0.0242,0.0717,0.128,0.1752,0.2054,0.2251,0.241,0.2493,0.2432,0.2389,0.251,0.2495,0.2375,0.212,0.2377,0.2484,0.2484,0.2453,0.2428,0.2444,0.2397,0.2313,0.2207,0.2293,0.2277,0.2196,0.2303,0.2296,0.2196,0.2337,0.2288,0.2229,0.2358,0.2409,0.241,0.2382,0.2436,0.2455,0.2455,0.2469,0.2487,0.2497,0.25,0.2502,0.2511,0.25,0.2488,0.2497,0.2507,0.2514,0.2514,0.2514,0.2514,0.2514,0.2514,0.2514,0.2514,0.2514,0.2514,0.2514,0.2514,0.2867,0.3999,0.4194,0.4782,0.646,0.7669,0.8798,0.9848,1.1017,1.1914,1.2424,1.2501,1.2501,1.2501,1.2501,1.2501,1.2501,1.2501,1.2501,1.2501,1.2501,1.2501,1.2501,1.2501,1.2501,1.2501,1.2501,1.2501,1.2501,1.2501,1.2501,0.1812,0.1902,0.1952,0.2002,0.1951,0.1917,0.1853,0.1848,0.187,0.1836,0.1887,0.1919,0.1838,0.1536,0.1316,0.1306,0.1041,0.0858,0.0822,0.0837,0.1026,0.1516,0.2037,0.2399,0.25,0.2428,0.2394,0.2508,0.2433,0.2417,0.2493,0.2517,0.2516,0.2496,0.2467,0.2458,0.2507,0.2439,0.242,0.2451,0.2401,0.2323,0.2193,0.2312,0.2303,0.2196,0.2335,0.2353,0.0,0.2348,0.2343,0.2285,0.2408,0.244,0.2442,0.2454,0.247,0.2487,0.2487,0.2499,0.2514,0.2514,0.2514,0.2514,0.2514,0.2514,0.2514,0.2514,0.2514,0.2514,0.2514,0.2514,0.2514,0.2514,0.2514,0.2514,0.2514,0.2514,0.2671,0.3336,0.3452,0.3962,0.5639,0.5952,0.6499,0.8175,0.9343,1.0241,1.0862,1.1837,1.2501,1.2501,1.2501,1.2501,1.2501,1.2501,1.2501,1.2501,1.2501,1.2501,1.2501,1.2501,1.2501,1.2501,1.2501,1.2501,1.2501,1.2501,1.2501,1.2501,1.2501,1.2501,0.0,0.1949,0.1991,0.1994,0.1899,0.1824,0.1881,0.1861,0.0,0.1883,0.1963,0.1994,0.1909,0.1974,0.1955,0.1833,0.197,0.2078,0.2019,0.2059,0.2125,0.2185,0.2278,0.2345,0.2491,0.2493,0.2514,0.2511,0.2487,0.251,0.2507,0.2507,0.2507,0.2507,0.2439,0.2438,0.2507,0.2439,0.2433,0.2491,0.2433,0.232,0.2202,0.2328,0.2322,0.2217,0.2336,0.2389,0.2389,0.2391,0.2391,0.2395,0.2461,0.251,0.2514,0.2504,0.2514,0.2514,0.2514,0.2514,0.2514,0.2514,0.2514,0.2514,0.2514,0.2514,0.2514,0.2514,0.2514,0.2514,0.2514,0.2514,0.2514,0.2514,0.2514,0.2514,0.2671,0.2671,0.3179,0.4857,0.517,0.5717,0.7396,0.7669,0.8253,0.9931,1.0164,1.0752,1.2321,1.2515,1.2522,1.2535,1.2535,1.2535,1.2535,1.2515,1.2501,1.2501,1.2501,1.2501,1.2501,1.2501,1.2501,1.2501,1.2501,1.2501,1.2501,1.2501,1.2501,1.2501,1.2501,1.2501,0.1809,0.0,0.1837,0.1861,0.1821,0.1816,0.0,0.1864,0.1888,0.197,0.2022,0.2064,0.1998,0.2023,0.2041,0.1898,0.2016,0.2078,0.2018,0.2106,0.2173,0.219,0.2352,0.2458,0.2438,0.2469,0.2504,0.2481,0.2495,0.2493,0.2509,0.2507,0.2507,0.2507,0.2439,0.2438,0.2507,0.2439,0.2344,0.2263,0.2346,0.2312,0.2114,0.2327,0.2322,0.2218,0.2397,0.2458,0.2461,0.2484,0.2493,0.2493,0.25,0.2503,0.2504,0.2511,0.2514,0.2514,0.2514,0.2514,0.2514,0.2514,0.2514,0.2514,0.2514,0.2514,0.2514,0.2514,0.2514,0.2514,0.2514,0.2514,0.2514,0.2514,0.2514,0.2867,0.4116,0.4429,0.4899,0.6577,0.6928,0.7435,0.9109,0.942,0.997,1.1643,1.1914,1.2076,1.2579,1.2638,1.2718,1.288,1.2894,1.2894,1.2894,1.2637,1.2501,1.2501,1.2501,1.2501,1.2501,1.2501,1.2501,1.2501,1.2501,1.2501,1.2501,1.2501,1.2501,1.2501,1.2501,1.2501,0.2464,0.2213,0.1802,0.1846,0.1836,0.1806,0.1876,0.1863,0.1898,0.2015,0.2063,0.2049,0.2,0.2001,0.1994,0.1958,0.194,0.1967,0.2034,0.212,0.2207,0.219,0.2279,0.2364,0.2358,0.2453,0.2507,0.2491,0.2492,0.2487,0.2509,0.2507,0.2507,0.2507,0.2466,0.2466,0.2507,0.2453,0.2391,0.2252,0.237,0.2368,0.2193,0.238,0.2391,0.2334,0.2395,0.2446,0.2545,0.2453,0.2472,0.2534,0.2519,0.2514,0.2514,0.2514,0.2514,0.2514,0.2514,0.2514,0.2514,0.2514,0.2514,0.2514,0.2514,0.2514,0.2514,0.2514,0.2514,0.2514,0.2514,0.3114,0.3757,0.3757,0.4405,0.5257,0.6168,0.6366,0.6882,0.8546,0.8863,0.9421,1.1085,1.1367,1.1682,1.2594,1.2712,1.2739,1.2827,1.2834,1.2868,1.2989,1.3003,1.3003,1.3003,1.2846,1.2712,1.2712,1.2712,1.2712,1.2712,1.2712,1.2712,1.2712,1.2712,1.2712,1.2712,1.2712,1.2712,1.2712,1.2712,1.2712,0.3611,0.3117,0.2373,0.2482,0.2183,0.1964,0.2512,0.2346,0.2155,0.2326,0.2317,0.2219,0.2041,0.1981,0.1955,0.1955,0.191,0.1922,0.2091,0.2167,0.2206,0.2196,0.2236,0.2265,0.23,0.2446,0.2512,0.2507,0.2488,0.2513,0.2507,0.2512,0.2514,0.2514,0.25,0.2502,0.2514,0.2514,0.2428,0.2297,0.2418,0.2412,0.23,0.2463,0.2519,0.2508,0.2373,0.2438,0.2582,0.2414,0.2436,0.259,0.2525,0.2514,0.2514,0.2514,0.2514,0.2514,0.2514,0.2514,0.2514,0.2514,0.2514,0.2553,0.2789,0.291,0.2954,0.3227,0.3109,0.2914,0.2914,0.4245,0.5636,0.5636,0.6843,0.8061,0.8343,0.8384,0.8867,1.0563,1.0884,1.1332,1.2755,1.3003,1.3003,1.3003,1.3003,1.3009,1.303,1.303,1.3043,1.3064,1.3071,1.3071,1.3071,1.3071,1.3071,1.3071,1.3023,1.3003,1.3003,1.3003,1.3003,1.3003,1.3003,1.3003,1.3003,1.3003,1.3083,1.3196,1.3196,1.3283,0.5102,0.4976,0.4937,0.5275,0.3621,0.2516,0.4926,0.4414,0.3445,0.3585,0.3626,0.3288,0.2214,0.2138,0.2142,0.1876,0.1956,0.2088,0.2164,0.2249,0.2248,0.2199,0.2358,0.2446,0.2378,0.2458,0.2503,0.2517,0.2495,0.2496,0.2509,0.2493,0.2507,0.2507,0.2512,0.2512,0.2507,0.2507,0.2448,0.2297,0.2418,0.2412,0.2301,0.2485,0.2538,0.2515,0.2522,0.2523,0.2519,0.2496,0.25,0.2521,0.2517,0.2514,0.2514,0.2514,0.2514,0.2514,0.2514,0.2514,0.2514,0.2514,0.2514,0.2749,0.4194,0.4697,0.509,0.6515,0.5884,0.4775,0.4775,0.6174,0.7557,0.7557,0.777,0.8384,0.9793,1.0121,1.0603,1.2308,1.2635,1.2715,1.2963,1.3003,1.3003,1.3003,1.3003,1.3043,1.3166,1.318,1.3193,1.3322,1.3336,1.3336,1.3336,1.3336,1.3336,1.3336,1.3139,1.3003,1.3003,1.3003,1.3003,1.3003,1.3003,1.3003,1.3003,1.3003,1.3396,1.4116,1.4116,1.4508,0.6337,0.6082,0.6084,0.7868,0.5975,0.4215,0.6199,0.546,0.4325,0.4278,0.3936,0.3478,0.3017,0.2462,0.2044,0.1926,0.2117,0.2251,0.2264,0.2326,0.232,0.2277,0.2386,0.2436,0.2361,0.2451,0.2508,0.2495,0.2506,0.2508,0.2493,0.2507,0.2514,0.2514,0.2514,0.2522,0.2538,0.2522,0.2414,0.2297,0.2418,0.2412,0.23,0.2473,0.2527,0.2511,0.2459,0.2476,0.2611,0.3404,0.3807,0.3998,0.4873,0.5212,0.5212,0.5212,0.5212,0.5212,0.5212,0.5212,0.5218,0.5288,0.53,0.5463,0.6373,0.6647,0.6876,0.7637,0.7317,0.6715,0.6715,0.8069,0.9444,0.9444,1.0223,1.1137,1.1914,1.2077,1.2288,1.3071,1.3241,1.3241,1.3241,1.3241,1.3241,1.3241,1.3241,1.322,1.3288,1.3295,1.3322,1.3397,1.3403,1.3403,1.3403,1.3403,1.3403,1.3403,1.3275,1.3241,1.3241,1.3241,1.3445,1.3927,1.3927,1.4171,1.4611,1.4611,1.4815,1.5221,1.5221,1.5423,0.7624,0.7256,0.7239,0.9592,0.7733,0.578,0.7596,0.6645,0.5419,0.5524,0.4926,0.4431,0.4456,0.364,0.297,0.3142,0.3282,0.3413,0.35,0.3226,0.2999,0.2933,0.2642,0.2389,0.2343,0.2421,0.2514,0.2514,0.2514,0.2514,0.2514,0.2521,0.2722,0.3114,0.3162,0.3374,0.3793,0.3759,0.3249,0.2387,0.2858,0.304,0.2933,0.3442,0.3697,0.3681,0.3591,0.3629,0.3844,0.495,0.5521,0.5792,0.7033,0.7513,0.7517,0.7537,0.7546,0.7546,0.7609,0.7618,0.7626,0.7731,0.7752,0.7888,0.8402,0.8603,0.8702,0.9107,0.9247,0.9181,0.8747,0.9963,1.1329,1.1329,1.2402,1.3403,1.3403,1.3403,1.3403,1.3403,1.3403,1.3403,1.3403,1.3403,1.3403,1.3403,1.3403,1.3403,1.3403,1.3403,1.3403,1.3403,1.3403,1.3403,1.3403,1.3403,1.3403,1.3403,1.3403,1.3486,1.3687,1.3687,1.4101,1.5002,1.5002,1.5324,1.5983,1.5983,1.6106,1.632,1.632,1.6443,0.9118,0.9022,0.9092,0.968,0.7733,0.6534,0.9852,0.8664,0.7119,0.811,0.7821,0.7268,0.6828,0.6327,0.6114,0.6559,0.6455,0.6507,0.7031,0.5803,0.4797,0.4795,0.3441,0.2506,0.2502,0.2508,0.2514,0.2514,0.2514,0.2514,0.2514,0.2541,0.3353,0.4939,0.5072,0.5799,0.7326,0.7318,0.5722,0.2582,0.4093,0.481,0.4875,0.648,0.7197,0.7127,0.7177,0.7173,0.717,0.7255,0.7302,0.733,0.7439,0.7513,0.7525,0.7642,0.7671,0.7723,0.789,0.7963,0.7963,0.7972,0.7972,0.8254,0.9834,1.0397,1.0816,1.2372,1.2926,1.2627,1.0932,1.1864,1.3217,1.3217,1.3307,1.3403,1.3403,1.3403,1.3403,1.3403,1.3403,1.3403,1.3403,1.3403,1.3403,1.3403,1.3403,1.3403,1.3403,1.3403,1.3403,1.3403,1.3403,1.3403,1.3403,1.3403,1.3403,1.3403,1.3403,1.3769,1.4548,1.4589,1.5002,1.59,1.59,1.5942,1.5983,1.5983,1.6443,1.7322,1.7322,1.7732,0.9403,0.9322,0.9458,0.9971,0.9048,0.8533,1.0598,0.966,0.852,0.9036,0.8366,0.7372,0.6541,0.7218,0.772,0.7107,0.7096,0.7233,0.7482,0.6948,0.6538,0.6538,0.5991,0.5603,0.5603,0.5603,0.5603,0.5603,0.5679,0.574,0.574,0.5885,0.6247,0.6927,0.6828,0.7105,0.7765,0.7659,0.696,0.5698,0.6298,0.6538,0.6577,0.7232,0.7506,0.7517,0.7511,0.7506,0.7591,0.8643,0.9071,0.9158,1.0286,1.0803,1.0918,1.0964,1.0981,1.1027,1.1079,1.1097,1.1108,1.1225,1.1248,1.1387,1.209,1.2358,1.2526,1.315,1.3356,1.3217,1.2538,1.2901,1.3403,1.3403,1.3403,1.3403,1.3403,1.3403,1.3403,1.3403,1.3403,1.3403,1.3403,1.3403,1.3403,1.3403,1.3403,1.3403,1.3403,1.3403,1.3403,1.3403,1.3403,1.3403,1.3403,1.3894,1.4225,1.4225,1.3687,1.3769,1.4672,1.4713,1.5373,1.6821,1.6862,1.715,1.7682,1.7682,1.7846,1.8224,1.8224,1.8387,0.9693,0.9479,0.9458,0.9944,0.975,0.975,1.1043,1.0403,0.9647,1.0007,0.9554,0.884,0.7979,0.8887,0.9504,0.8745,0.8727,0.8879,0.9051,0.8604,0.8292,0.8292,0.7825,0.7513,0.7513,0.7537,0.7554,0.7554,0.7715,0.7804,0.7804,0.7936,0.8257,0.8791,0.867,0.8811,0.9342,0.9199,0.914,0.9135,0.9105,0.8798,0.8292,0.8837,0.9071,0.9071,0.9071,0.9071,0.9153,1.0364,1.0873,1.1076,1.2325,1.2868,1.3009,1.305,1.3071,1.3077,1.3125,1.3139,1.3159,1.3214,1.3247,1.3261,1.337,1.3403,1.3403,1.3403,1.3403,1.3403,1.3403,1.3403,1.3403,1.3403,1.3403,1.3403,1.3403,1.3403,1.3403,1.3403,1.3403,1.3403,1.3403,1.3403,1.3403,1.3403,1.3403,1.3403,1.3403,1.3403,1.3528,1.3769,1.4059,1.4225,1.4225,1.4754,1.5126,1.5126,1.4548,1.4631,1.5497,1.5538,1.6246,1.7773,1.7814,1.8101,1.8714,1.8714,1.8714,1.8714,1.8714,1.8714,1.0164,0.9667,0.9282,0.9537,0.9496,0.9774,1.1267,1.0921,1.0493,1.124,1.187,1.2189,1.1847,1.1678,1.1721,1.205,1.1816,1.183,1.242,1.1056,1.0008,1.0008,0.8565,0.7556,0.7556,0.7669,0.7763,0.7763,0.793,0.8065,0.8065,0.8072,0.8816,1.0488,1.0517,1.1236,1.2693,1.2686,1.2611,1.2501,1.2501,1.1643,1.0086,1.1721,1.2501,1.2501,1.2508,1.2508,1.2515,1.2632,1.2827,1.3003,1.3003,1.3003,1.3023,1.3166,1.3214,1.3241,1.3349,1.3403,1.3403,1.3403,1.3403,1.3403,1.3403,1.3403,1.3403,1.3403,1.3403,1.3403,1.3403,1.3403,1.3403,1.3403,1.3403,1.3403,1.3403,1.3403,1.3403,1.3403,1.3403,1.3403,1.3403,1.3403,1.3403,1.3403,1.3403,1.3403,1.3397,1.3397,1.3769,1.4631,1.5497,1.5983,1.5983,1.6024,1.6024,1.6024,1.6024,1.6443,1.7363,1.7404,1.7814,1.8673,1.8714,1.8714,1.8714,1.8714,1.8714,1.8714,1.8714,1.8714,1.1497,1.0726,0.9931,1.0338,1.025,1.0198,1.0806,1.0765,1.0744,1.128,1.1619,1.1721,1.1416,1.1843,1.2203,1.2118,1.2162,1.2298,1.2474,1.2069,1.176,1.176,1.1333,1.1059,1.1149,1.1197,1.1296,1.1432,1.1559,1.1672,1.1672,1.1764,1.1981,1.2375,1.2317,1.2402,1.2693,1.2623,1.2603,1.2625,1.2625,1.233,1.1766,1.2376,1.2625,1.2671,1.2779,1.2867,1.2867,1.2874,1.3016,1.3152,1.3152,1.3214,1.3275,1.3315,1.3336,1.3342,1.3383,1.3403,1.3403,1.3403,1.3403,1.3403,1.3403,1.3403,1.3403,1.3403,1.3403,1.3403,1.3403,1.3403,1.3403,1.3403,1.3403,1.3403,1.3403,1.3403,1.3403,1.3403,1.3403,1.3403,1.3403,1.3403,1.3604,1.4225,1.4307,1.4548,1.5167,1.5249,1.5332,1.5579,1.5859,1.5983,1.5983,1.6607,1.6985,1.6985,1.756,1.7764,1.7404,1.7404,1.7814,1.8673,1.8714,1.8714,1.8714,1.8714,1.8714,1.8714,1.9907,2.0464,1.2171,1.16,1.1127,1.1956,1.1704,1.1303,1.1577,1.1648,1.1901,1.275,1.2941,1.2905,1.2742,1.3147,1.3439,1.3287,1.3113,1.2965,1.2965,1.2695,1.2501,1.2501,1.2556,1.263,1.2679,1.2834,1.2942,1.3077,1.318,1.3261,1.3261,1.3295,1.3241,1.3132,1.2949,1.2827,1.2693,1.2637,1.2671,1.282,1.282,1.2773,1.2684,1.2779,1.282,1.2827,1.2962,1.303,1.3084,1.3084,1.3173,1.3261,1.3261,1.3322,1.3403,1.3403,1.3403,1.3403,1.3403,1.3403,1.3403,1.3403,1.3403,1.3403,1.3403,1.3403,1.3403,1.3403,1.3403,1.3403,1.3403,1.3645,1.3811,1.348,1.3403,1.3486,1.3852,1.3935,1.4018,1.439,1.4424,1.4424,1.4424,1.4424,1.4589,1.5126,1.5208,1.5414,1.5942,1.632,1.6566,1.6566,1.6854,1.7059,1.7059,1.76,1.7937,1.7937,1.8387,1.8469,1.7937,1.7937,1.8142,1.8673,1.8714,1.8714,1.8714,1.8714,1.9031,1.9713,2.0748,2.1585,1.2615,1.244,1.258,1.3802,1.3419,1.2832,1.33,1.34,1.3729,1.4927,1.5025,1.4925,1.499,1.5006,1.5006,1.5006,1.4353,1.3814,1.3814,1.3211,1.2754,1.2754,1.2892,1.2943,1.2943,1.3231,1.3396,1.3396,1.3528,1.3562,1.3562,1.3472,1.3334,1.3243,1.3058,1.2943,1.2943,1.2943,1.3065,1.3257,1.3257,1.3264,1.3278,1.311,1.303,1.3043,1.3043,1.3111,1.3234,1.3234,1.3275,1.3403,1.3403,1.3403,1.3403,1.3403,1.3403,1.3403,1.3403,1.3403,1.3403,1.3403,1.3403,1.3403,1.3403,1.3403,1.3403,1.3403,1.3403,1.3403,1.3486,1.4101,1.4507,1.3811,1.3645,1.3852,1.4631,1.4837,1.5043,1.5859,1.5983,1.5983,1.5983,1.5983,1.6024,1.6106,1.6196,1.6229,1.6229,1.6985,1.7527,1.7527,1.8224,1.8714,1.8714,1.8714,1.8714,1.8714,1.8714,1.8714,1.8714,1.8714,1.8714,1.8714,1.8714,1.8714,1.8714,1.8837,1.9713,2.1222,2.1534,2.2499,1.4688,1.3911,1.3017,1.3462,1.3161,1.3294,1.5253,1.5613,1.5444,1.5113,1.4658,1.4441,1.4901,1.5006,1.5006,1.5006,1.4853,1.4737,1.4737,1.4702,1.4711,1.4711,1.4861,1.4963,1.4884,1.4954,1.4994,1.4914,1.4945,1.4968,1.4968,1.4929,1.4938,1.4939,1.4907,1.4924,1.4963,1.4963,1.5058,1.5191,1.5191,1.5261,1.5297,1.3831,1.3193,1.3308,1.3308,1.3322,1.3349,1.3349,1.337,1.3403,1.3403,1.3403,1.3403,1.3403,1.3403,1.3403,1.3403,1.3403,1.3403,1.3403,1.3403,1.3403,1.3403,1.3403,1.3403,1.3403,1.3403,1.3562,1.4225,1.4548,1.4837,1.5332,1.5456,1.5497,1.5695,1.5736,1.5777,1.5942,1.5983,1.5983,1.5983,1.5983,1.6238,1.6985,1.7682,1.8133,1.8133,1.8305,1.8428,1.8428,1.8592,1.8714,1.8714,1.8714,1.8714,1.8714,1.8714,1.8714,1.8714,1.8714,1.8714,1.8714,1.8714,1.8714,1.8714,2.0028,2.0858,2.1262,2.3939,2.5384,1.4462,1.4576,1.4647,1.495,1.5087,1.5336,1.6113,1.6545,1.6675,1.623,1.5907,1.5786,1.6078,1.6156,1.6156,1.6156,1.5928,1.5717,1.5717,1.5565,1.5445,1.5445,1.5526,1.5536,1.5496,1.5456,1.5456,1.5408,1.5408,1.5449,1.5538,1.5465,1.5497,1.5626,1.5584,1.5576,1.5666,1.5714,1.5755,1.5894,1.5894,1.5943,1.5983,1.4993,1.459,1.4631,1.4631,1.4424,1.4018,1.4018,1.3769,1.3403,1.3403,1.3403,1.3403,1.3403,1.3403,1.3445,1.3894,1.4018,1.4101,1.4507,1.4631,1.4631,1.4631,1.4631,1.4631,1.4631,1.4631,1.4754,1.5208,1.5661,1.6139,1.6675,1.6419,1.6106,1.6566,1.6648,1.678,1.7223,1.7305,1.7305,1.7305,1.7305,1.7478,1.7937,1.8387,1.8714,1.8714,1.8714,1.8714,1.8714,1.8714,1.8714,1.8714,1.8714,1.8714,1.8714,1.8714,1.8714,1.8714,1.8714,1.8714,1.8714,1.8714,1.9072,1.9907,2.0777,2.2057,2.366,2.5463,2.6741,1.3769,1.4893,1.6252,1.6604,1.6972,1.7058,1.6528,1.6821,1.7218,1.7359,1.7388,1.7388,1.7388,1.7416,1.7444,1.7444,1.7073,1.6772,1.6772,1.638,1.6054,1.6021,1.6006,1.5958,1.5891,1.5843,1.5787,1.5762,1.5787,1.587,1.6028,1.596,1.6025,1.6249,1.6147,1.6155,1.6308,1.6308,1.6375,1.6484,1.6484,1.6484,1.6484,1.6484,1.632,1.5983,1.5983,1.5571,1.4919,1.4919,1.4507,1.3852,1.3852,1.3852,1.3852,1.3852,1.3852,1.3935,1.4672,1.4919,1.5043,1.5777,1.6007,1.6031,1.6031,1.6097,1.6121,1.6121,1.6121,1.6163,1.6328,1.6915,1.7587,1.7903,1.7275,1.6782,1.7543,1.7666,1.7822,1.8607,1.8743,1.8714,1.8714,1.8714,1.8714,1.8714,1.8714,1.8714,1.8714,1.8714,1.8714,1.8714,1.8714,1.8714,1.8714,1.8714,1.8714,1.8714,1.8714,1.8714,1.8714,1.8714,1.8714,1.8714,1.8714,1.9388,2.0777,2.1343,2.31,2.5859,2.6465,2.7541,1.4823,1.5432,1.5996,1.6207,1.5782,1.5615,1.6926,1.6783,1.6556,1.7275,1.7388,1.7388,1.7388,1.7529,1.7642,1.7642,1.7753,1.7805,1.7805,1.7943,1.7929,1.7713,1.7882,1.7845,1.7453,1.7416,1.7303,1.7137,1.7276,1.7386,1.7414,1.7562,1.7777,1.8021,1.8043,1.8136,1.83,1.8309,1.8318,1.8346,1.8346,1.8346,1.8346,1.8346,1.7478,1.5983,1.5983,1.5942,1.5818,1.5818,1.5736,1.5654,1.5654,1.5654,1.5654,1.5654,1.5654,1.5654,1.5777,1.5818,1.5859,1.5942,1.6137,1.6267,1.6267,1.6415,1.6622,1.6622,1.6622,1.6791,1.7518,1.7822,1.8126,1.8913,1.8978,1.8876,1.9002,1.874,1.8559,1.8883,1.8837,1.8714,1.8714,1.8714,1.8714,1.8714,1.8714,1.8714,1.8714,1.8714,1.8714,1.8714,1.8714,1.8714,1.8714,1.8714,1.8714,1.8714,1.8714,1.8714,1.8714,1.8714,1.8714,1.8714,1.8714,1.8796,1.9031,2.1988,2.37,2.4231,2.7174,2.8691,1.5602,1.547,1.5319,1.6698,1.5945,1.5342,1.7011,1.6783,1.6453,1.7359,1.7558,1.7558,1.7558,1.7727,1.7869,1.7869,1.8087,1.822,1.822,1.8335,1.8364,1.8229,1.8087,1.7974,1.7869,1.7756,1.7699,1.7737,1.7822,1.7916,1.8068,1.8163,1.8314,1.8572,1.8572,1.8619,1.8714,1.8714,1.8714,1.8714,1.8714,1.8714,1.8714,1.8714,1.8265,1.7519,1.7519,1.7232,1.678,1.678,1.6484,1.5983,1.5983,1.5983,1.5999,1.6146,1.6178,1.6277,1.6918,1.7128,1.722,1.768,1.79,1.7971,1.7971,1.8075,1.8146,1.8146,1.8146,1.8231,1.8621,1.8748,1.886,1.9354,1.9254,1.9121,1.9223,1.8895,1.8627,1.8745,1.8704,1.8722,1.8981,1.9023,1.9023,1.9023,1.8919,1.8885,1.8885,1.879,1.8714,1.8714,1.8714,1.8714,1.8714,1.8714,1.8714,1.8714,1.8714,1.9113,2.0069,2.011,2.0545,2.1556,2.0586,2.0586,2.1556,2.4031,2.57,2.6701,2.8207,2.8886,1.5772,1.5375,1.4936,1.6736,1.5971,1.5096,1.6445,1.6311,1.616,1.7199,1.7586,1.7784,1.7879,1.8021,1.8086,1.8086,1.8295,1.8458,1.8402,1.8392,1.8373,1.8326,1.8002,1.7831,1.7991,1.7859,1.7831,1.8001,1.8057,1.8191,1.8383,1.8449,1.8553,1.8714,1.8714,1.8714,1.8714,1.8714,1.8714,1.8714,1.8714,1.8714,1.8714,1.8714,1.8714,1.8714,1.8714,1.8346,1.7732,1.7786,1.7384,1.6757,1.6808,1.6833,1.685,1.6994,1.7045,1.7187,1.8042,1.8316,1.8452,1.9086,1.9335,1.9373,1.9373,1.941,1.9458,1.9458,1.9458,1.9458,1.9458,1.9458,1.9495,1.9647,1.9426,1.9118,1.9046,1.8845,1.8685,1.8685,1.8733,1.8908,1.9255,1.9297,1.9297,1.9297,1.9165,1.9102,1.9102,1.897,1.8815,1.8799,1.879,1.8771,1.8683,1.8714,1.8877,1.9316,1.9357,2.0069,2.1775,2.1856,2.2459,2.378,2.294,2.294,2.378,2.5463,2.6977,2.8261,2.8691,2.8886,1.503,1.521,1.5228,1.5627,1.5007,1.4436,1.4917,1.4993,1.5257,1.633,1.7303,1.8048,1.8326,1.8373,1.8383,1.8383,1.8563,1.8629,1.8421,1.8392,1.8326,1.8048,1.801,1.8001,1.801,1.8001,1.8001,1.801,1.8229,1.8383,1.8392,1.8591,1.8705,1.8714,1.8714,1.8714,1.8714,1.8714,1.8714,1.8714,1.8714,1.8714,1.8714,1.8714,1.8714,1.8714,1.8714,1.8673,1.8651,1.884,1.8874,1.8851,1.9058,1.9142,1.9142,1.9152,1.9152,1.9152,1.9213,1.9213,1.9255,1.9297,1.9429,1.9581,1.9581,1.9722,1.9892,1.9892,1.9892,1.9892,1.9892,1.9892,1.9892,1.9902,1.9858,1.9597,1.8733,1.8703,1.8904,1.8904,1.9089,1.9255,1.9297,1.9297,1.9297,1.9297,1.9288,1.9278,1.9278,1.9278,1.9184,1.8985,1.8957,1.8923,1.8733,1.8714,1.9398,2.098,2.106,2.1856,2.358,2.366,2.3712,2.378,2.5265,2.5304,2.378,2.5463,2.6346,2.6465,2.8129,2.8886,1.4823,1.4719,1.4657,1.557,1.4651,1.3865,1.5054,1.5224,1.52,1.5602,1.7048,1.8106,1.7634,1.8146,1.86,1.86,1.8667,1.8638,1.8421,1.8392,1.8316,1.8038,1.801,1.8057,1.8229,1.8248,1.8305,1.8437,1.8021,1.7993,1.8572,1.8125,1.8125,1.8695,1.8714,1.8714,1.8714,1.8714,1.8714,1.8714,1.8714,1.8714,1.8683,1.8847,1.8913,1.8913,1.9014,1.8995,1.8923,1.9099,1.9184,1.9193,1.9269,1.9297,1.9316,1.9439,1.9486,1.9514,1.9647,1.9694,1.9694,1.9694,1.9741,1.9807,1.9807,1.9855,1.9921,1.9921,1.9921,1.9921,1.9921,1.9921,1.9834,1.9519,1.9432,1.9345,1.9039,1.8811,1.8713,1.9017,1.9179,1.9349,1.9608,1.9694,1.9694,1.9694,1.9581,1.9486,1.9486,1.9382,1.9269,1.9193,1.9184,1.9155,1.908,1.8989,1.9594,2.1295,2.1267,2.2459,2.5304,2.5384,2.5938,2.7056,2.7659,2.7134,2.5423,2.7134,2.7972,2.7972,2.8612,2.8886,1.4465,1.4326,1.4194,1.4973,1.4282,1.3628,1.4462,1.5044,1.5422,1.5356,1.6981,1.825,1.7719,1.8201,1.8714,1.8714,1.8657,1.8534,1.8286,1.8248,1.8201,1.802,1.8067,1.8229,1.8487,1.8506,1.8563,1.8705,1.8163,1.8087,1.8686,1.8144,1.8097,1.8695,1.8714,1.8714,1.8714,1.8714,1.8714,1.8714,1.8714,1.8752,1.8818,1.896,1.9055,1.9099,1.9306,1.9278,1.9099,1.9306,1.9401,1.9401,1.9477,1.9505,1.9524,1.9656,1.9703,1.9722,1.9873,1.9921,1.9921,1.9921,1.9921,1.9921,1.9921,1.9921,1.9921,1.9921,1.9921,1.9921,1.9921,1.9921,1.9834,1.9519,1.9432,1.9432,1.9432,1.9083,1.8864,1.9345,1.9432,1.9519,1.9834,1.9921,1.9921,1.9921,1.9798,1.9703,1.9703,1.959,1.9477,1.9401,1.9942,2.0284,2.0214,2.065,2.1665,2.3341,2.3219,2.4354,2.7206,2.7229,2.7737,2.8886,2.8886,2.8339,2.7187,2.8339,2.8886,2.8886,2.8886,2.8886,0.0,0.0,0.0,1.375,1.3854,1.3797,1.3013,1.4405,1.5807,1.5598,1.7057,1.843,1.8629,1.8695,1.8714,1.8714,1.8534,1.8326,1.8048,1.802,1.802,1.802,1.8239,1.8487,1.8695,1.8714,1.8714,1.8714,1.8695,1.8654,1.8714,1.8714,1.8714,1.8714,1.8714,1.8714,1.8714,1.8714,1.8714,1.8714,1.8724,1.8828,1.9017,1.9027,1.9108,1.9316,1.9524,1.9495,1.9335,1.9524,1.9609,1.9628,1.9836,1.9921,1.9921,1.9921,1.9921,1.9921,1.9921,1.9921,1.9921,1.9921,1.9921,1.9921,1.9921,1.9921,1.9921,1.9921,1.9921,1.9921,1.9921,1.9921,1.9921,1.9921,1.9921,1.9921,1.9921,1.9519,1.9345,1.9834,1.9921,1.9921,1.9921,1.9921,1.9921,1.9921,1.9964,1.9964,1.9964,2.0051,2.0009,1.9799,2.1332,2.2328,2.2101,2.3773,2.5507,2.72,2.7001,2.7616,2.9343,2.9076,2.89,2.89,2.89,2.8886,2.8886,2.8886,2.8886,2.8886,2.8886,2.8886,1.3759,0.0,0.0,0.0,0.0,0.0,1.3523,1.4345,1.5092,1.4733,1.6273,1.7653,1.7558,1.8163,1.8714,1.8714,1.8534,1.8373,1.8316,1.8307,1.8307,1.8307,1.8496,1.8648,1.8673,1.8714,1.8714,1.8714,1.8116,1.804,1.8686,1.8714,1.8714,1.8714,1.8714,1.8714,1.8714,1.8714,1.8714,1.8724,1.8866,1.896,1.9027,1.9288,1.9458,1.9524,1.9741,1.9798,1.9751,1.9807,1.9826,1.9836,1.9902,1.9921,1.9921,1.9921,1.9921,1.9921,1.9921,1.9921,1.9921,1.9921,1.9921,1.9921,1.9921,1.9921,1.9921,1.9921,1.9921,1.9921,1.9921,1.9921,1.9921,1.9921,1.9921,1.9921,1.9921,1.979,1.9737,1.9877,1.9921,1.9921,1.9921,1.9921,1.9921,1.9921,2.1032,2.1834,2.1834,2.303,2.3867,2.3787,2.4245,2.4519,2.4449,2.4807,2.5741,2.7411,2.7309,2.7932,2.968,2.9452,2.9237,2.9237,2.9017,2.8886,2.8886,2.8886,2.8886,2.8886,2.8886,2.8886,0.0,0.0,0.0,1.3964,0.0,0.0,1.3523,1.4477,1.5337,1.4922,1.6424,1.7672,1.719,1.7605,1.7993,1.7908,1.7748,1.7795,1.8316,1.8316,1.8258,1.8383,1.8582,1.8714,1.8714,1.8714,1.8714,1.8714,1.822,1.8163,1.8654,1.8714,1.8714,1.8714,1.8714,1.8714,1.8714,1.8714,1.8762,1.8847,1.8919,1.9112,1.924,1.9486,1.9647,1.9741,1.9864,1.9921,1.9921,1.9921,1.9921,1.9921,1.9921,1.9921,1.9921,1.9921,1.9921,1.9921,1.9921,1.9921,1.9921,1.9921,1.9921,1.9921,1.9921,1.9921,1.9921,1.9921,1.9921,1.9921,1.9921,1.9921,1.9921,1.9921,1.9921,1.9921,1.9921,2.0477,2.0815,2.0051,1.9921,2.0129,2.0902,2.1032,2.1282,2.2104,2.3073,2.3761,2.3761,2.4733,2.5416,2.5416,2.6096,2.652,2.652,2.7097,2.7884,2.8855,2.8743,2.9039,3.0071,2.9789,2.9613,2.9613,2.9306,2.9032,2.8886,2.8886,2.8886,2.8886,2.8886,2.8886,0.0,0.0,0.0,0.0,1.4177,0.0,1.3616,1.4846,1.6031,1.5788,1.696,1.7852,1.719,1.7067,1.7001,1.6802,1.6566,1.6867,1.808,1.8116,1.8057,1.8278,1.8544,1.8714,1.8714,1.8714,1.8714,1.8714,1.8714,1.8714,1.8714,1.8714,1.8714,1.8714,1.8714,1.8714,1.8714,1.8743,1.8837,1.9017,1.9065,1.924,1.9599,1.9618,1.9741,1.9921,1.9921,1.9921,1.9921,1.9921,1.9921,1.9921,1.9921,1.9921,1.9921,1.9921,1.9921,1.9921,1.9921,1.9921,1.9921,1.9921,1.9921,1.9921,1.9921,1.9921,1.9921,1.9921,1.9921,1.9921,1.9921,1.9921,1.9964,2.0129,2.0216,2.026,2.0477,2.1801,2.2438,2.0815,2.052,2.1032,2.2643,2.2901,2.346,2.516,2.5586,2.5714,2.5714,2.5884,2.6011,2.6011,2.7464,2.8391,2.8391,2.9886,3.0776,3.0776,3.0554,3.0448,3.0448,3.0126,2.995,2.995,2.9599,2.9237,2.8944,2.89,2.8886,2.8886,2.8886,2.8886,0.0,0.0,0.0,0.0,0.0,0.0,1.5888,1.5693,1.5727,1.6359,1.6128,1.6056,1.6736,1.6859,1.6793,1.6575,1.6261,1.6337,1.7218,1.7718,1.7897,1.7643,1.8239,1.8714,1.8714,1.8714,1.8714,1.8714,1.8714,1.8714,1.8714,1.8714,1.8714,1.8714,1.8714,1.8714,1.8714,1.8875,1.8979,1.8976,1.9316,1.9514,1.9599,1.9779,1.9883,1.9921,1.9921,1.9921,1.9921,1.9921,1.9921,1.9921,1.9921,1.9921,1.9921,1.9921,1.9921,1.9921,1.9921,1.9921,1.9921,1.9921,1.9921,1.9921,1.9921,1.9921,1.9921,1.9921,1.9921,1.9921,1.9921,1.9921,2.026,2.1715,2.205,2.2481,2.4018,2.4617,2.4733,2.4403,2.4318,2.4446,2.4788,2.4873,2.5001,2.5331,2.666,2.7591,2.7591,2.8867,2.976,2.976,3.0053,3.0276,3.0276,3.0609,3.0776,3.0776,3.0759,3.0729,3.0729,3.0463,3.0302,3.0302,2.9716,2.9379,2.932,2.9017,2.8886,2.8886,2.8886,2.8886,0.0,0.0,0.0,1.7308,0.0,0.0,0.0,1.671,1.6816,1.7433,1.7339,1.7059,1.6852,1.6788,1.6509,1.5606,1.5256,1.5242,1.5689,1.6683,1.7539,1.7851,1.8352,1.8714,1.8714,1.8714,1.8714,1.8714,1.8714,1.8714,1.8714,1.8714,1.8714,1.8714,1.8714,1.8714,1.8714,1.8913,1.9032,1.9136,1.9448,1.9656,1.976,1.9873,1.9921,1.9921,1.9921,1.9921,1.9921,1.9921,1.9921,1.9921,1.9921,1.9921,1.9921,1.9921,1.9921,1.9921,1.9921,1.9921,1.9921,1.9921,1.9921,1.9921,1.9921,1.9921,2.0095,2.0988,2.1238,2.1455,2.2395,2.2654,2.2869,2.3803,2.4018,2.4275,2.5215,2.6096,2.6732,2.6732,2.7464,2.7801,2.6914,2.6732,2.7041,2.797,2.8867,2.9453,2.9453,3.0234,3.0776,3.0776,3.0776,3.0776,3.0776,3.0776,3.0776,3.0776,3.0776,3.0776,3.0776,3.0671,3.0551,3.039,3.0068,2.9818,2.9657,2.9295,2.9047,2.8886,2.8886,2.8886,0.0,0.0,0.0,0.0,0.0,1.7994,0.0,0.0,0.0,1.847,1.8692,1.8484,1.7356,1.7117,1.665,1.521,1.4972,1.4998,1.5003,1.618,1.7223,1.7626,1.8004,1.8222,1.8174,1.8354,1.8503,1.8705,1.8714,1.8714,1.8714,1.8714,1.8714,1.8714,1.8714,1.8733,1.8771,1.8979,1.9146,1.9354,1.9562,1.9751,1.9921,1.9921,1.9921,1.9921,1.9921,1.9921,1.9921,1.9921,1.9921,1.9921,1.9921,1.9921,1.9921,1.9921,1.9921,1.9921,1.9921,1.9921,1.9921,1.9921,2.0129,2.0477,2.0858,2.0945,2.1238,2.2729,2.3116,2.3503,2.5001,2.5416,2.5501,2.5841,2.5926,2.6011,2.6351,2.7591,2.8615,2.8615,2.9802,3.0359,2.8867,2.8615,2.9118,3.0567,3.0776,3.0776,3.0776,3.0776,3.0776,3.0776,3.0776,3.0776,3.0776,3.0776,3.0776,3.0776,3.0776,3.0776,3.0776,3.0776,3.07,3.0492,3.0419,3.0217,2.9873,2.9512,2.9231,2.8988,2.8915,2.8886,0.0,0.0,0.0,0.0,2.0379,0.0,2.0017,0.0,1.9111,1.9025,0.0,1.796,1.827,0.0,0.0,1.7131,1.7246,1.7402,1.7183,1.7707,1.7343,1.528,1.5886,1.6422,1.6233,1.702,1.7879,1.8617,1.8714,1.8714,1.8714,1.8714,1.8714,1.8714,1.8714,1.8799,1.8938,1.9155,1.9363,1.9562,1.9779,1.9892,1.9921,1.9921,1.9921,1.9921,1.9921,1.9921,1.9921,1.9921,1.9921,1.9921,1.9921,1.9921,1.9921,1.9921,1.9921,1.9921,1.9921,1.9921,1.9921,1.9921,2.0988,2.2611,2.4275,2.4776,2.4831,2.5032,2.5075,2.5129,2.5331,2.5416,2.5799,2.7422,2.7801,2.8223,2.9844,3.0359,3.0484,3.0484,3.0651,3.0734,3.0526,3.0484,3.0567,3.0776,3.0776,3.0776,3.0776,3.0776,3.0776,3.0776,3.0776,3.0776,3.0776,3.0776,3.0776,3.0776,3.0776,3.0776,3.0776,3.0776,3.0803,3.0773,3.0536,3.017,2.9731,2.9401,2.9246,2.935,2.9017,2.8886,0.0,0.0,0.0,0.0,0.0,0.0,2.2181,0.0,2.0719,0.0,0.0,0.0,0.0,0.0,0.0,0.0,1.7816,1.7762,1.7391,1.7482,1.7566,1.7506,1.8153,1.8507,1.8197,1.7377,1.7123,1.7719,1.7993,1.8021,1.7776,1.8343,1.9153,2.011,1.9194,1.926,2.0446,1.9687,1.9401,1.9599,1.9817,2.0434,2.1455,2.1455,2.205,2.3084,2.3084,2.3084,2.3084,2.3084,2.3084,2.3084,2.3084,2.1801,2.0051,2.1075,2.1455,2.1628,2.2697,2.3084,2.3084,2.3084,2.3632,2.436,2.516,2.5416,2.5629,2.666,2.6957,2.721,2.8265,2.8531,2.8741,2.9509,2.9677,2.9886,3.0651,3.0776,3.0776,3.0776,3.0776,3.0776,3.0776,3.0776,3.0776,3.0776,3.0776,3.0776,3.0776,3.0776,3.0776,3.0776,3.0776,3.0776,3.0776,3.0776,3.0776,3.0776,3.0776,3.0776,3.0776,3.0776,3.0776,3.0776,3.0451,3.0186,2.9979,2.9362,2.9094,2.9155,2.8895,2.884,2.3404,0.0,0.0,0.0,0.0,0.0,0.0,0.0,0.0,0.0,2.1968,0.0,0.0,0.0,0.0,0.0,0.0,1.8945,1.8268,1.8262,1.8486,1.8868,1.9588,1.9906,1.9619,1.8503,1.7795,1.7849,1.8555,1.8744,1.8299,1.9419,2.0677,2.1856,2.0272,2.0089,2.1592,2.0575,2.0184,2.0449,2.1081,2.2093,2.3374,2.3374,2.4092,2.5416,2.5416,2.5416,2.5416,2.5416,2.5416,2.5416,2.5416,2.3761,2.1585,2.2858,2.3374,2.3546,2.4904,2.5416,2.5458,2.5969,2.6139,2.6223,2.6745,2.6872,2.7168,2.8488,2.8825,2.916,3.0442,3.0776,3.0776,3.0776,3.0776,3.0776,3.0776,3.0776,3.0776,3.0776,3.0776,3.0776,3.0776,3.0776,3.0776,3.0776,3.0776,3.0776,3.0776,3.0776,3.0776,3.0776,3.0776,3.0776,3.0776,3.0776,3.0776,3.0776,3.0776,3.0776,3.0776,3.0776,3.0776,3.0776,3.0499,3.029,3.0221,2.9604,2.9227,2.9005,2.8756,2.8744,0.0,0.0,0.0,2.3558,0.0,0.0,0.0,0.0,2.2483,0.0,0.0,0.0,0.0,0.0,0.0,0.0,0.0,0.0,0.0,2.108,2.0388,1.753,1.8262,1.9066,1.9112,2.0235,2.0626,1.9878,2.1273,2.1905,2.1311,2.2746,2.3672,2.3712,2.2017,2.1366,2.188,2.1891,2.2096,2.2514,2.4349,2.5245,2.5288,2.5288,2.5331,2.5416,2.5416,2.5416,2.5416,2.5416,2.5416,2.5416,2.5416,2.5331,2.5215,2.53,2.5288,2.5343,2.5385,2.5416,2.5671,2.7464,2.8012,2.8349,3.0094,3.0609,3.0651,3.0692,3.0692,3.0734,3.0776,3.0776,3.0776,3.0776,3.0776,3.0776,3.0776,3.0776,3.0776,3.0776,3.0776,3.0776,3.0776,3.0776,3.0776,3.0776,3.0776,3.0776,3.0776,3.0776,3.0776,3.0776,3.0776,3.0776,3.0776,3.0776,3.0776,3.0776,3.0776,3.0776,3.0776,3.0776,3.0776,3.0776,3.079,3.0582,3.0221,3.0165,2.9744,2.9005,2.8643,2.8577,2.5255,2.5285,2.5051,2.524,0.0,0.0,0.0,0.0,0.0,0.0,0.0,0.0,0.0,0.0,0.0,0.0,0.0,0.0,0.0,2.1319,2.095,1.9943,1.9447,1.9507,2.029,1.9277,1.8569,1.8588,1.9121,1.926,1.8774,2.0947,2.2728,2.383,2.3451,2.393,2.5318,2.4496,2.4182,2.4434,2.5087,2.6011,2.721,2.721,2.7844,2.895,2.895,2.895,2.895,2.895,2.895,2.895,2.895,2.895,2.8825,2.7633,2.721,2.7379,2.8573,2.895,2.9076,2.9677,2.9886,3.0011,3.0609,3.0776,3.0776,3.0776,3.0776,3.0776,3.0776,3.0776,3.0776,3.0776,3.0776,3.0776,3.0776,3.0776,3.0776,3.0776,3.0776,3.0776,3.0776,3.0776,3.0776,3.0776,3.0776,3.0776,3.0776,3.0776,3.0776,3.0776,3.0776,3.0776,3.0776,3.0776,3.0776,3.0776,3.0776,3.0776,3.0776,3.0776,3.0776,3.0776,3.054,3.0346,3.0221,2.9872,2.9607,2.9327,2.9215,2.8934,2.6044,2.608,2.5911,2.6123,2.5617,2.5108,2.5278,0.0,2.3687,0.0,0.0,0.0,0.0,0.0,0.0,0.0,0.0,0.0,0.0,2.1437,2.1164,2.1043,2.0809,2.0763,2.1036,2.0136,1.9299,1.8775,1.9392,1.9545,1.8954,2.1658,2.3707,2.4805,2.5076,2.5775,2.7092,2.6421,2.6159,2.6351,2.6986,2.7928,2.9076,2.9076,2.9718,3.0776,3.0776,3.0776,3.0776,3.0776,3.0776,3.0776,3.0776,3.0776,3.0651,2.9509,2.9076,2.9244,3.0401,3.0776,3.0776,3.0776,3.0776,3.0776,3.0776,3.0776,3.0805,3.0922,3.0878,3.0805,3.0964,3.0905,3.0776,3.0776,3.0776,3.0776,3.0776,3.0776,3.0776,3.0776,3.0776,3.0776,3.0776,3.0776,3.0776,3.0776,3.0776,3.0776,3.0776,3.0776,3.0776,3.0776,3.0776,3.0776,3.0776,3.0776,3.0776,3.0776,3.0776,3.0776,3.0776,3.0776,3.0776,3.0776,3.054,3.0415,3.0415,3.0123,2.99,2.9747,2.9747,2.9438]},{"header":{"parameterUnit":"m.s-1","parameterCategory":1,"la1":30.6,"la2":29.2853,"lo1":-89.7004,"lo2":-87.6739,"dy":0.0162,"dx":0.0183,"nx":112,"ny":82,"refTime":"2023-09-26T12:00:00:Z","depth":0,"parameterNumber":3,"parameterNumberName":"V-component_of_WINDS"},"data":[0.0,0.0,0.0,0.0,0.0,0.0,0.0,0.0,0.0,0.0,0.0,0.0,0.0,0.0,0.0,0.0,0.0,0.0,0.0,0.0,0.0,0.0,0.0,0.0,0.0,0.0,0.0,0.0,0.0,0.0,0.0,0.0,0.0,0.0,0.0,0.0,0.0,0.0,0.0,0.0,0.0,0.0,0.0,0.0,0.0,0.0,0.0,0.0,0.0,0.0,0.0,0.0,0.0,0.0,0.0,0.0,0.0,0.0,0.0,0.0,0.0,0.0,0.0,0.0,0.0,0.0,0.0,0.0,0.0,0.0,0.0,0.0,0.0,0.0,0.0,0.0,0.0,0.0,0.0,0.0,0.0,0.0,0.0,0.0,0.0,0.0,0.0,0.0,0.0,0.0,3.9998,4.7382,5.0025,5.1243,5.1239,5.1117,4.8873,4.3751,0.0,0.0,0.0,0.0,0.0,0.0,0.0,0.0,0.0,0.0,0.0,0.0,0.0,0.0,0.0,0.0,0.0,0.0,0.0,0.0,0.0,0.0,0.0,0.0,0.0,0.0,0.0,0.0,0.0,0.0,0.0,0.0,0.0,0.0,0.0,0.0,0.0,0.0,0.0,0.0,0.0,0.0,0.0,0.0,0.0,0.0,0.0,0.0,0.0,0.0,0.0,0.0,0.0,0.0,0.0,0.0,0.0,0.0,0.0,0.0,0.0,0.0,0.0,0.0,0.0,0.0,0.0,0.0,0.0,0.0,0.0,0.0,0.0,0.0,0.0,0.0,0.0,0.0,0.0,0.0,0.0,0.0,0.0,0.0,0.0,0.0,0.0,0.0,0.0,0.0,0.0,0.0,0.0,0.0,0.0,0.0,0.0,0.0,0.0,0.0,0.0,0.0,0.0,0.0,4.4597,5.0226,5.1169,5.1367,5.1366,5.1363,4.9132,4.397,0.0,0.0,0.0,0.0,0.0,0.0,0.0,0.0,0.0,0.0,0.0,0.0,0.0,0.0,0.0,0.0,0.0,0.0,0.0,0.0,0.0,0.0,0.0,0.0,0.0,0.0,0.0,0.0,0.0,0.0,0.0,0.0,0.0,0.0,0.0,0.0,0.0,0.0,0.0,0.0,0.0,0.0,0.0,0.0,0.0,0.0,0.0,0.0,0.0,0.0,0.0,0.0,0.0,0.0,0.0,0.0,0.0,0.0,0.0,0.0,0.0,0.0,0.0,0.0,0.0,0.0,0.0,0.0,0.0,0.0,0.0,0.0,0.0,0.0,0.0,0.0,0.0,0.0,0.0,0.0,0.0,0.0,0.0,0.0,0.0,0.0,0.0,0.0,0.0,0.0,0.0,0.0,0.0,0.0,0.0,0.0,0.0,0.0,0.0,0.0,0.0,0.0,0.0,4.4317,4.8764,5.115,5.1395,5.14,5.1404,5.1406,4.9218,4.402,4.3262,0.0,0.0,0.0,0.0,0.0,0.0,0.0,0.0,0.0,0.0,0.0,0.0,0.0,0.0,0.0,0.0,0.0,0.0,0.0,0.0,0.0,0.0,0.0,0.0,0.0,0.0,0.0,0.0,0.0,0.0,0.0,0.0,0.0,0.0,0.0,0.0,0.0,0.0,0.0,0.0,0.0,0.0,0.0,0.0,0.0,0.0,0.0,0.0,0.0,0.0,0.0,0.0,0.0,0.0,0.0,0.0,0.0,0.0,0.0,0.0,0.0,0.0,0.0,0.0,0.0,0.0,0.0,0.0,0.0,0.0,0.0,0.0,0.0,0.0,0.0,0.0,0.0,0.0,0.0,0.0,0.0,0.0,0.0,0.0,0.0,0.0,0.0,0.0,0.0,0.0,0.0,0.0,0.0,0.0,0.0,0.0,0.0,0.0,0.0,0.0,0.0,0.0,4.689,5.0261,5.1295,5.1388,5.1394,5.1394,5.1401,4.9218,4.4023,4.371,0.0,0.0,0.0,0.0,0.0,0.0,0.0,0.0,0.0,0.0,0.0,0.0,0.0,0.0,0.0,0.0,0.0,0.0,0.0,0.0,0.0,0.0,0.0,0.0,0.0,0.0,0.0,0.0,0.0,0.0,0.0,0.0,0.0,0.0,0.0,0.0,0.0,0.0,0.0,0.0,0.0,0.0,0.0,0.0,0.0,0.0,0.0,0.0,0.0,0.0,0.0,0.0,0.0,0.0,0.0,0.0,0.0,0.0,0.0,0.0,0.0,0.0,0.0,0.0,0.0,0.0,0.0,0.0,0.0,0.0,0.0,0.0,0.0,0.0,0.0,0.0,0.0,0.0,0.0,0.0,0.0,0.0,0.0,0.0,0.0,0.0,0.0,0.0,0.0,0.0,0.0,0.0,0.0,0.0,0.0,0.0,0.0,0.0,0.0,0.0,0.0,0.0,4.4625,4.6961,5.0984,5.1415,5.1416,5.1416,5.1417,4.9196,4.4049,4.3696,0.0,0.0,0.0,0.0,0.0,0.0,0.0,0.0,0.0,0.0,0.0,0.0,0.0,0.0,0.0,0.0,0.0,0.0,0.0,0.0,0.0,0.0,0.0,0.0,0.0,0.0,0.0,0.0,0.0,0.0,0.0,0.0,0.0,0.0,0.0,0.0,0.0,0.0,0.0,0.0,0.0,0.0,0.0,0.0,0.0,0.0,0.0,0.0,0.0,0.0,0.0,0.0,0.0,0.0,0.0,0.0,0.0,0.0,0.0,0.0,0.0,0.0,0.0,0.0,0.0,0.0,0.0,0.0,0.0,0.0,0.0,0.0,0.0,0.0,0.0,0.0,0.0,0.0,0.0,0.0,0.0,0.0,0.0,0.0,0.0,0.0,0.0,0.0,0.0,0.0,0.0,0.0,0.0,0.0,0.0,0.0,0.0,0.0,0.0,0.0,0.0,0.0,4.6627,4.951,5.1231,5.1391,5.1397,5.1413,5.1414,4.9191,4.4045,0.0,0.0,0.0,0.0,0.0,0.0,0.0,0.0,0.0,0.0,0.0,0.0,0.0,0.0,0.0,0.0,0.0,0.0,0.0,0.0,0.0,0.0,0.0,0.0,0.0,0.0,0.0,0.0,0.0,0.0,0.0,0.0,0.0,0.0,0.0,0.0,0.0,0.0,0.0,0.0,0.0,0.0,0.0,0.0,0.0,0.0,0.0,0.0,0.0,0.0,0.0,0.0,0.0,0.0,0.0,0.0,0.0,0.0,0.0,0.0,0.0,0.0,0.0,0.0,0.0,0.0,0.0,0.0,0.0,0.0,0.0,0.0,0.0,0.0,0.0,0.0,0.0,0.0,0.0,0.0,0.0,0.0,0.0,0.0,0.0,0.0,0.0,0.0,0.0,0.0,0.0,0.0,0.0,0.0,0.0,0.0,0.0,0.0,0.0,0.0,0.0,0.0,4.3501,4.8037,5.1258,5.1353,5.1359,5.1372,5.1401,5.1403,4.9183,4.404,0.0,0.0,0.0,0.0,0.0,0.0,0.0,0.0,0.0,0.0,0.0,0.0,0.0,0.0,0.0,0.0,0.0,0.0,0.0,0.0,0.0,0.0,0.0,0.0,0.0,0.0,0.0,0.0,0.0,0.0,0.0,0.0,0.0,0.0,0.0,0.0,0.0,0.0,0.0,0.0,0.0,0.0,0.0,0.0,0.0,0.0,0.0,0.0,0.0,0.0,0.0,0.0,0.0,0.0,0.0,0.0,0.0,0.0,0.0,0.0,0.0,0.0,0.0,0.0,0.0,0.0,0.0,0.0,0.0,0.0,0.0,0.0,0.0,0.0,0.0,0.0,0.0,0.0,0.0,0.0,0.0,0.0,0.0,0.0,0.0,0.0,0.0,0.0,0.0,0.0,0.0,0.0,0.0,0.0,0.0,0.0,0.0,0.0,0.0,0.0,0.0,0.0,4.3467,4.8026,5.1279,5.1279,5.1279,5.1335,5.1372,5.1375,4.9197,0.0,0.0,0.0,0.0,0.0,0.0,0.0,0.0,0.0,0.0,0.0,0.0,0.0,0.0,0.0,0.0,0.0,0.0,0.0,0.0,0.0,0.0,0.0,0.0,0.0,0.0,0.0,0.0,0.0,0.0,0.0,0.0,0.0,0.0,0.0,0.0,0.0,0.0,0.0,0.0,0.0,0.0,0.0,0.0,0.0,0.0,0.0,0.0,0.0,0.0,0.0,0.0,0.0,0.0,0.0,0.0,0.0,0.0,0.0,0.0,0.0,0.0,0.0,0.0,0.0,0.0,0.0,0.0,0.0,0.0,0.0,0.0,0.0,0.0,0.0,0.0,0.0,0.0,0.0,0.0,0.0,0.0,0.0,0.0,0.0,0.0,0.0,0.0,0.0,0.0,0.0,0.0,0.0,0.0,0.0,0.0,0.0,0.0,0.0,0.0,0.0,0.0,0.0,4.2466,4.6507,4.9639,5.0261,5.0302,5.0592,5.1255,5.0815,4.8526,4.3916,0.0,0.0,0.0,0.0,0.0,0.0,0.0,0.0,0.0,0.0,0.0,0.0,0.0,0.0,0.0,0.0,0.0,0.0,0.0,0.0,0.0,0.0,0.0,0.0,0.0,0.0,0.0,0.0,0.0,0.0,0.0,0.0,0.0,0.0,0.0,0.0,0.0,0.0,0.0,0.0,0.0,0.0,0.0,0.0,0.0,0.0,0.0,0.0,0.0,0.0,0.0,0.0,0.0,0.0,0.0,0.0,0.0,0.0,0.0,0.0,0.0,0.0,0.0,0.0,0.0,0.0,0.0,0.0,0.0,0.0,0.0,0.0,0.0,0.0,0.0,0.0,0.0,0.0,0.0,0.0,0.0,0.0,0.0,0.0,0.0,0.0,0.0,0.0,0.0,0.0,0.0,0.0,0.0,0.0,0.0,0.0,0.0,0.0,0.0,0.0,0.0,0.0,4.2502,4.6678,4.9857,5.0361,5.0402,5.0658,5.1211,5.0811,4.9,4.5388,0.0,0.0,0.0,0.0,0.0,0.0,0.0,0.0,0.0,0.0,0.0,0.0,0.0,0.0,0.0,0.0,0.0,0.0,0.0,0.0,0.0,0.0,0.0,0.0,0.0,0.0,0.0,0.0,0.0,0.0,0.0,0.0,0.0,0.0,0.0,0.0,0.0,0.0,0.0,0.0,0.0,0.0,0.0,0.0,0.0,0.0,0.0,0.0,0.0,0.0,0.0,0.0,0.0,0.0,0.0,0.0,0.0,0.0,0.0,0.0,0.0,0.0,0.0,0.0,0.0,0.0,0.0,0.0,0.0,0.0,0.0,0.0,0.0,0.0,0.0,0.0,0.0,0.0,0.0,0.0,0.0,0.0,0.0,0.0,0.0,0.0,0.0,0.0,0.0,0.0,0.0,0.0,0.0,0.0,0.0,0.0,0.0,0.0,0.0,0.0,0.0,0.0,4.3144,4.772,5.1005,5.1086,5.1086,5.1106,5.1198,5.1128,5.0038,4.7655,0.0,0.0,0.0,0.0,0.0,0.0,0.0,0.0,0.0,0.0,0.0,0.0,0.0,0.0,0.0,0.0,0.0,0.0,0.0,0.0,0.0,0.0,0.0,0.0,0.0,0.0,0.0,0.0,0.0,0.0,0.0,0.0,0.0,0.0,0.0,0.0,0.0,0.0,0.0,0.0,0.0,0.0,0.0,0.0,0.0,0.0,0.0,0.0,0.0,0.0,0.0,0.0,0.0,0.0,0.0,0.0,0.0,0.0,0.0,0.0,4.4144,4.1308,0.0,0.0,0.0,0.0,0.0,0.0,0.0,0.0,0.0,0.0,0.0,0.0,0.0,0.0,0.0,0.0,0.0,0.0,0.0,0.0,0.0,0.0,0.0,0.0,0.0,0.0,0.0,0.0,0.0,0.0,0.0,0.0,0.0,0.0,0.0,0.0,0.0,0.0,0.0,0.0,4.2131,4.6242,4.9415,5.0117,5.0195,5.0431,5.1142,5.056,4.94,4.7538,4.6943,0.0,0.0,0.0,0.0,0.0,0.0,0.0,0.0,0.0,0.0,0.0,0.0,0.0,0.0,0.0,0.0,0.0,0.0,0.0,0.0,0.0,0.0,0.0,0.0,0.0,0.0,0.0,0.0,0.0,0.0,0.0,0.0,0.0,0.0,0.0,0.0,0.0,0.0,0.0,0.0,0.0,0.0,0.0,0.0,0.0,0.0,0.0,0.0,0.0,0.0,0.0,0.0,0.0,0.0,0.0,0.0,0.0,0.0,0.0,4.4297,4.3206,0.0,0.0,0.0,0.0,0.0,0.0,0.0,0.0,0.0,0.0,0.0,0.0,0.0,0.0,0.0,0.0,0.0,0.0,0.0,0.0,0.0,0.0,0.0,0.0,0.0,0.0,0.0,0.0,0.0,0.0,0.0,0.0,0.0,0.0,0.0,0.0,0.0,0.0,0.0,0.0,4.3073,4.7737,5.1205,5.1674,5.1713,5.1904,5.2368,5.2008,5.1395,5.0568,4.9377,0.0,0.0,0.0,0.0,0.0,0.0,0.0,0.0,0.0,0.0,0.0,0.0,0.0,0.0,0.0,0.0,0.0,0.0,0.0,0.0,0.0,0.0,0.0,0.0,0.0,0.0,0.0,0.0,0.0,0.0,0.0,0.0,0.0,0.0,0.0,0.0,0.0,0.0,0.0,0.0,0.0,0.0,0.0,0.0,0.0,0.0,0.0,0.0,0.0,0.0,0.0,0.0,0.0,4.5912,4.6076,4.6076,4.6018,4.571,4.5229,4.5328,4.6126,4.722,4.4729,0.0,0.0,0.0,0.0,0.0,0.0,0.0,0.0,0.0,0.0,0.0,0.0,0.0,0.0,0.0,0.0,0.0,0.0,0.0,0.0,0.0,0.0,4.3061,4.731,4.5539,4.3863,4.7326,0.0,0.0,0.0,0.0,0.0,0.0,0.0,0.0,0.0,0.0,0.0,4.4324,4.9789,5.3692,5.3692,5.3692,5.3692,5.3692,5.3692,5.3739,5.3873,5.2001,5.0669,0.0,0.0,0.0,0.0,0.0,0.0,0.0,0.0,0.0,0.0,0.0,0.0,0.0,0.0,0.0,0.0,0.0,0.0,0.0,0.0,0.0,0.0,0.0,0.0,0.0,0.0,0.0,0.0,0.0,0.0,0.0,0.0,3.9713,4.2917,0.0,0.0,0.0,0.0,0.0,0.0,0.0,0.0,0.0,0.0,0.0,0.0,0.0,4.4357,4.5004,4.7112,4.861,4.9469,5.1126,5.1873,5.1873,5.1867,5.1811,5.1526,4.8717,0.0,4.7808,4.8642,0.0,0.0,0.0,0.0,0.0,0.0,0.0,0.0,0.0,0.0,0.0,0.0,0.0,0.0,0.0,0.0,0.0,0.0,0.0,0.0,0.0,0.0,5.2811,5.339,4.9946,4.7805,5.2618,4.5966,4.0183,4.4133,4.1875,3.9684,0.0,0.0,0.0,0.0,0.0,0.0,4.3634,4.9439,5.3692,5.3692,5.3692,5.3692,5.3692,5.3692,5.3721,5.3818,5.4219,5.313,5.0203,5.3002,0.0,0.0,0.0,0.0,0.0,0.0,0.0,0.0,0.0,0.0,0.0,0.0,0.0,0.0,0.0,0.0,0.0,0.0,0.0,0.0,0.0,0.0,0.0,0.0,0.0,0.0,0.0,0.0,0.0,4.0111,4.2066,4.4276,4.5445,4.5002,0.0,0.0,0.0,0.0,0.0,0.0,0.0,0.0,0.0,4.4717,4.6668,4.7516,4.7133,4.9777,5.1352,5.1847,5.2608,5.2947,5.2947,5.2947,5.318,5.3503,5.2006,5.1644,5.1914,4.9672,4.936,5.0077,0.0,0.0,0.0,0.0,4.5082,4.6293,4.3694,4.5512,4.8776,4.7344,0.0,0.0,0.0,0.0,0.0,0.0,0.0,4.8217,4.8495,5.0928,5.37,5.5036,5.377,5.2925,5.5116,5.0121,4.5738,4.7537,4.5582,4.3266,4.2024,4.2984,0.0,0.0,0.0,4.8434,4.7833,5.2074,5.5168,5.5168,5.5168,5.5168,5.5168,5.5168,5.5157,5.5213,5.5553,5.5121,5.3681,5.5123,5.3812,0.0,0.0,0.0,0.0,0.0,0.0,0.0,0.0,0.0,0.0,0.0,0.0,0.0,0.0,0.0,0.0,0.0,0.0,0.0,0.0,0.0,0.0,0.0,0.0,0.0,0.0,0.0,0.0,4.2483,4.3771,4.5724,4.7199,4.6929,0.0,0.0,0.0,0.0,0.0,0.0,4.7188,4.7262,4.719,4.704,4.9614,5.0566,4.9692,5.211,5.3475,5.3717,5.3627,5.3587,5.3587,5.3587,5.389,5.4434,5.4434,5.4804,5.5091,5.1308,5.0444,5.1483,5.1106,5.0168,4.894,4.7859,4.8153,4.8676,4.6124,4.7917,5.1077,4.941,4.9827,5.0705,4.9441,0.0,0.0,0.0,0.0,5.0038,5.087,5.2185,5.3754,5.5595,5.5991,5.5954,5.5954,5.2959,5.0446,5.1227,4.9465,4.711,4.4886,4.6077,0.0,4.3469,4.7757,5.1163,5.0883,5.4038,5.6295,5.6295,5.6295,5.6295,5.6295,5.6295,5.6314,5.6286,5.6303,5.6329,5.6368,5.6451,5.5264,5.2696,0.0,0.0,0.0,0.0,0.0,0.0,0.0,0.0,0.0,0.0,0.0,0.0,0.0,0.0,0.0,0.0,0.0,0.0,0.0,0.0,0.0,0.0,0.0,0.0,0.0,0.0,0.0,0.0,0.0,4.7486,4.9215,0.0,0.0,0.0,0.0,4.8101,4.7706,4.8482,5.0805,5.0456,5.0944,5.2554,5.2757,5.3222,5.3989,5.4137,5.4635,5.537,5.5364,5.5364,5.5364,5.5364,5.5367,5.5338,5.5338,5.5339,5.5396,5.5129,5.5052,5.4976,5.3301,5.262,5.2079,4.8022,4.9061,5.2088,4.9523,5.1312,5.4855,5.5577,5.4759,5.2622,4.7928,4.7573,0.0,0.0,4.8398,5.1254,4.9855,5.2699,5.5943,5.6059,5.5563,5.5055,5.5055,5.2971,5.2093,5.5356,5.2598,5.0228,5.1618,0.0,5.0647,4.6419,4.9526,5.1743,5.0156,5.3653,5.6295,5.6295,5.6295,5.6295,5.6295,5.6295,5.6295,5.6298,5.6317,5.6311,5.6314,5.6366,5.6332,5.6248,5.3832,0.0,0.0,0.0,0.0,0.0,0.0,0.0,0.0,0.0,0.0,0.0,0.0,0.0,0.0,0.0,0.0,0.0,0.0,0.0,0.0,0.0,0.0,0.0,0.0,0.0,0.0,0.0,0.0,4.9244,5.0619,0.0,5.0089,5.0402,5.04,4.9783,5.0553,5.1697,5.3115,5.3,5.3435,5.4565,5.4603,5.475,5.5057,5.5016,5.5169,5.5485,5.5476,5.5457,5.5457,5.5457,5.5421,5.5396,5.5396,5.5384,5.5396,5.5396,5.5396,5.532,5.4715,5.4486,5.4288,5.2786,5.3156,5.4327,5.3398,5.3995,5.5192,5.5538,5.5226,5.4419,5.2622,5.2514,5.2774,5.1866,5.2815,5.3984,5.3307,5.4498,5.5904,5.5973,5.5847,5.5715,5.5824,5.513,5.4843,5.6065,5.3692,5.171,5.229,5.3805,5.3805,5.0584,5.2837,5.4702,5.4119,5.5828,5.7149,5.7149,5.7612,5.7923,5.7923,5.7923,5.7923,5.7923,5.7907,5.792,5.792,5.8019,5.807,5.8124,5.7236,5.4762,0.0,0.0,0.0,0.0,0.0,0.0,0.0,0.0,0.0,0.0,0.0,0.0,0.0,0.0,0.0,0.0,0.0,0.0,0.0,0.0,0.0,0.0,0.0,0.0,0.0,4.5209,4.7838,5.0263,5.1551,5.2127,5.1853,5.2318,5.2532,5.222,5.3217,5.4093,5.4644,5.4677,5.4939,5.5457,5.5457,5.5611,5.5879,5.5835,5.5989,5.63,5.625,5.6231,5.6231,5.6231,5.5594,5.4562,5.5441,5.5174,5.4174,5.5052,5.5396,5.5396,5.5396,5.5396,5.5403,5.5409,5.5435,5.5403,5.5384,5.5517,5.5727,5.5747,5.5981,5.6207,5.5963,5.5873,5.5846,5.5489,5.5549,5.5638,5.5489,5.5706,5.5951,5.599,5.6312,5.664,5.6742,5.5844,5.5447,5.6936,5.5333,5.3339,5.2173,5.3417,5.3689,5.1086,5.1901,5.2915,5.3222,5.4779,5.5867,5.5867,5.7612,5.8827,5.881,5.7742,5.7596,5.8809,5.7776,5.7657,5.8809,5.7819,5.7271,5.7286,5.5908,5.3516,5.0127,0.0,0.0,0.0,0.0,0.0,0.0,0.0,0.0,0.0,0.0,0.0,0.0,0.0,0.0,0.0,0.0,0.0,0.0,0.0,0.0,0.0,0.0,0.0,4.3034,4.7412,5.0517,5.0637,5.2099,5.3409,5.4246,5.4323,5.4668,5.5441,5.5517,5.5488,5.5382,5.5306,5.5275,5.5288,5.532,5.5708,5.6479,5.6594,5.7052,5.7886,5.7886,5.7886,5.7886,5.7886,5.6091,5.3116,5.5562,5.4791,5.1996,5.4441,5.5473,5.5473,5.5435,5.5403,5.5422,5.5476,5.5445,5.5384,5.53,5.5899,5.6671,5.6673,5.7308,5.7949,5.7241,5.7073,5.701,5.6278,5.6097,5.6097,5.6097,5.615,5.6256,5.6285,5.7035,5.7745,5.7747,5.5108,5.3931,5.8198,5.7595,5.533,5.2024,5.1441,5.0586,4.8061,4.6937,0.0,4.7556,5.0586,5.2646,5.2646,5.6295,5.8807,5.8954,5.5794,5.5308,5.8843,5.5923,5.5568,5.8925,5.5845,5.4093,5.414,4.9962,4.9444,5.2859,0.0,0.0,0.0,0.0,0.0,0.0,0.0,0.0,0.0,0.0,0.0,0.0,0.0,0.0,0.0,0.0,0.0,0.0,0.0,0.0,0.0,4.7996,4.9674,4.9258,4.9864,5.1264,5.3755,5.445,5.4833,5.5062,5.5101,5.5197,5.5422,5.5415,5.5409,5.539,5.367,5.2626,5.2646,5.3225,5.3613,5.3842,5.6288,5.7657,5.7886,5.7886,5.7886,5.7886,5.7886,5.739,5.6549,5.7243,5.7008,5.6205,5.6931,5.7199,5.7084,5.5861,5.5422,5.547,5.5505,5.5558,5.5286,5.2834,5.3778,5.6054,5.623,5.6869,5.7567,5.7347,5.7728,5.818,5.7913,5.7826,5.7826,5.7826,5.7851,5.7895,5.8038,5.8302,5.8521,5.8639,5.7899,5.7582,5.8752,5.8611,5.7959,5.7009,5.6851,5.6611,5.5894,5.558,5.5502,5.5735,5.7172,5.8128,5.8045,5.7459,5.8087,6.0589,5.7623,5.7144,6.0594,5.9922,5.9803,6.0752,5.9958,5.948,5.9553,5.597,5.4844,0.0,0.0,0.0,0.0,0.0,0.0,0.0,0.0,0.0,0.0,0.0,0.0,0.0,0.0,0.0,0.0,0.0,0.0,0.0,0.0,0.0,0.0,4.9616,5.2302,5.313,5.2759,5.3161,5.5148,5.5415,5.5415,5.5415,5.5415,5.5403,5.5403,5.5396,5.5396,5.5396,5.3983,5.2684,5.1614,5.3416,5.4034,5.3339,5.6702,5.8574,5.8963,5.8963,5.8963,5.8963,5.8963,5.8192,5.6893,5.7963,5.7619,5.6403,5.7538,5.7985,5.7909,0.0,0.0,0.0,0.0,5.6796,5.6641,5.4703,5.5338,5.7024,5.7209,5.7626,5.8087,5.8087,5.7445,5.6721,5.6622,5.5324,5.4346,5.6145,5.6342,5.6544,5.8487,5.9195,5.9476,5.9576,5.8446,5.7978,5.9779,5.8685,0.0,5.9804,5.829,5.6501,5.5391,5.4921,5.4843,5.5194,5.6903,5.8098,5.807,5.8338,5.9355,6.1359,5.8386,0.0,0.0,0.0,5.942,5.942,5.9444,0.0,0.0,0.0,5.4813,5.6708,5.4717,0.0,0.0,5.3398,5.2211,0.0,0.0,0.0,0.0,0.0,0.0,0.0,0.0,0.0,0.0,0.0,0.0,0.0,0.0,0.0,0.0,5.0139,5.2274,5.5103,5.5484,5.5435,5.5403,5.5396,5.5396,5.5396,5.5396,5.5396,5.5396,5.5396,5.5396,5.5396,5.5205,0.0,0.0,0.0,5.5753,5.4256,5.7574,5.9644,6.0415,6.0415,6.0415,6.0415,6.0436,5.8792,5.611,5.834,5.7589,5.5045,5.7428,5.841,5.8383,5.823,5.8115,5.8123,5.793,5.8164,5.8559,5.8257,0.0,0.0,5.8907,5.9039,5.9153,5.9153,5.7141,5.4883,5.4883,5.2148,5.0078,5.3867,5.4297,5.4687,5.8472,5.9992,6.0539,6.054,5.8157,5.7143,6.0976,5.8633,5.7226,6.1053,5.7863,5.3988,5.1676,5.0698,5.0501,5.1241,5.3963,5.5829,5.5825,5.8895,0.0,6.1554,5.841,5.7916,6.1482,5.8815,5.7087,5.7087,5.7087,5.5291,5.1464,5.1394,5.2872,5.5937,5.5897,5.7841,6.1402,5.6861,5.5939,0.0,0.0,0.0,0.0,0.0,0.0,0.0,0.0,0.0,0.0,0.0,0.0,0.0,0.0,0.0,5.2184,5.3711,5.5075,5.5572,5.5654,5.5564,5.5422,5.5396,5.5396,5.5396,5.5396,5.5396,5.5396,5.5396,5.5396,5.5396,5.4065,5.3072,5.2581,5.4562,5.5473,5.5129,5.8459,6.0224,6.0415,6.0415,0.0,6.0384,6.0493,6.0201,5.9633,6.0206,6.0095,5.953,6.0048,6.031,6.0234,5.8857,5.8356,5.8011,5.5482,5.6275,5.8299,5.5701,5.6635,5.8977,5.909,5.9606,6.0116,6.0116,6.0156,0.0,6.0195,5.9609,5.914,6.0,6.0078,6.0156,6.1015,6.1328,6.1445,6.1445,6.0937,6.0703,6.1523,6.1015,6.0742,6.1561,6.0851,6.0018,5.9502,5.9296,5.925,5.9406,6.0029,6.041,6.0343,5.8629,5.8591,6.1363,5.8437,5.7983,6.1483,6.1052,6.0699,6.0699,6.0699,6.0309,5.9488,5.9404,5.9686,6.0351,6.0301,6.0691,6.148,6.0477,6.0309,0.0,0.0,0.0,0.0,0.0,0.0,0.0,0.0,0.0,0.0,0.0,5.0433,4.9665,0.0,5.1554,5.1969,5.3172,5.4477,5.5671,5.5818,5.573,5.5585,5.5562,5.5562,5.5562,5.5562,5.5562,5.5562,5.5562,5.5753,5.6181,5.5381,5.4505,5.3667,5.6116,5.6839,5.5541,5.891,6.0591,6.0591,6.0591,6.0591,6.0591,6.0654,6.0685,6.0691,6.0757,6.0787,6.0787,6.0844,6.0967,6.1036,6.0192,5.9844,5.9653,5.8167,5.8698,5.9921,5.8341,5.8901,6.0345,6.0429,6.0703,6.1055,6.1055,6.0156,5.914,5.914,5.7617,5.6445,5.8594,5.8828,5.9023,6.1172,6.1719,6.1719,6.1719,6.1719,6.1719,6.1719,6.1719,6.1719,6.1718,6.1716,6.1712,6.1705,6.17,6.1697,6.1697,6.1693,6.1686,6.1635,6.0107,5.9791,6.1504,6.0063,5.9835,6.1601,6.1719,6.1719,6.1719,6.1719,6.1719,6.1719,6.1662,6.1639,6.1554,6.1538,6.1478,6.1442,6.1442,6.1442,0.0,0.0,0.0,0.0,0.0,0.0,0.0,5.0894,5.1553,5.0894,5.1284,5.1345,5.0023,5.0339,5.1041,5.1796,5.2534,5.3691,5.5733,5.5972,5.5952,5.6018,5.585,5.5708,5.5708,5.5862,5.5939,5.5939,5.6093,5.6478,5.7214,5.7407,5.6873,5.5504,5.8259,5.8759,5.6697,5.9407,6.0787,6.0787,6.0787,6.0787,6.0787,6.0804,6.0816,6.0821,6.0844,6.0883,6.0894,6.0977,6.11,6.1311,6.134,6.1349,6.1376,6.153,6.1605,6.1612,6.1677,6.1719,6.1719,6.1719,6.1719,6.1719,6.1719,5.9765,5.7578,5.7578,5.5117,5.3242,5.668,5.707,5.7422,6.0898,6.1719,6.1719,6.1719,6.1719,6.1719,6.1719,6.1719,6.1719,6.1719,6.1718,6.1716,6.1712,6.171,6.1709,6.1707,6.1702,6.1697,6.1695,6.1686,6.1758,6.1953,6.2109,6.2226,6.2226,6.2226,6.2226,6.2226,6.2226,6.2192,6.2201,6.2169,6.2109,6.1978,6.2003,6.1965,6.1921,6.1921,6.1727,5.0305,4.8148,4.678,4.7476,4.9332,5.041,0.0,5.1613,5.4551,5.1493,5.3275,5.5367,5.5183,5.5312,5.5485,5.5608,5.5747,5.5937,5.6142,5.6191,5.6396,5.7043,5.6284,5.5708,5.5708,5.6401,5.6863,5.6863,5.7522,5.7945,5.8061,5.8792,5.9144,5.8951,6.0062,6.0517,6.021,6.0594,6.0787,6.0787,6.0787,6.0787,6.0787,6.085,6.0894,6.0899,6.1002,6.1147,6.1256,6.1263,6.1321,6.1405,6.1524,6.1586,6.1588,6.1601,6.1605,6.1612,6.1677,6.1719,6.1719,6.1719,6.1719,6.1719,6.1719,6.1445,6.1133,6.1133,6.0781,6.0508,6.1015,6.1055,6.1094,6.1601,6.1719,6.1719,6.1719,6.1719,6.1719,6.1719,6.1719,6.1719,6.1719,6.1719,6.1718,6.1717,6.1712,6.1707,6.17,6.1698,6.1694,6.1683,6.168,6.1992,6.2774,6.3556,6.4025,6.4025,6.4025,6.4025,6.4025,6.4025,6.3965,6.3906,6.3858,6.3776,6.3721,6.3702,6.3708,6.3715,6.3715,6.2896,5.0606,5.0298,5.0368,5.0716,5.2376,5.3571,5.2531,5.419,5.5582,5.4151,5.5002,5.6003,5.6102,5.4935,5.4654,5.6669,5.5786,5.5547,5.7543,5.7812,5.7897,5.826,5.6517,5.5269,5.518,5.686,5.7323,5.5813,5.74,5.864,5.9142,5.9528,5.9953,6.0416,6.0797,6.0985,6.0985,6.0985,6.1216,6.1718,6.1718,6.1994,6.2506,6.2558,6.261,6.2705,6.2779,6.2824,6.2872,6.2872,6.2937,6.2977,6.2534,6.2362,6.2337,6.1869,6.1673,6.1674,6.1679,6.1719,6.1719,6.1719,6.1719,6.1719,6.1719,6.1719,6.1719,6.1719,6.1719,6.1719,6.1719,6.1719,6.1719,6.1719,6.1719,6.1719,6.1719,6.1719,6.1836,6.2344,6.2461,6.2617,6.3125,6.3203,6.3203,6.3203,6.2772,6.2654,6.3161,6.3195,6.3223,6.3206,6.3204,6.336,6.3712,6.4103,6.4298,6.4298,6.4298,6.4298,6.4298,6.4244,6.4216,6.4219,6.4121,6.4067,6.4013,6.4009,6.3985,6.3983,6.3934,6.3479,5.0782,5.1482,5.2341,5.327,5.4426,5.5427,5.5892,5.6008,5.602,5.6036,5.6241,5.6451,5.6559,5.5294,5.5034,5.7589,5.6451,5.6161,5.8636,5.8957,5.8742,5.8299,5.6539,5.4842,5.3557,5.618,5.749,5.6327,5.8182,5.9615,6.0235,6.026,6.0499,6.1079,6.135,6.1461,6.1461,6.1715,6.2172,6.2787,6.2805,6.3179,6.3769,6.3814,6.3917,6.3996,6.3996,6.4012,6.4033,6.3799,6.3766,6.3771,6.2911,6.2611,6.2578,6.1914,6.1719,6.1719,6.1719,6.1719,6.1719,6.1719,6.1719,6.1719,6.1719,6.1719,6.1719,6.1719,6.1719,6.1719,6.1719,6.1719,6.1758,6.1992,6.207,6.2109,6.2383,6.2422,6.2617,6.3242,6.3359,6.3555,6.418,6.4297,6.4375,6.4609,6.4101,6.3867,6.4258,6.4292,6.4318,6.43,6.4532,6.4649,6.4649,6.4844,6.5001,6.5001,6.5001,6.5007,6.498,6.4959,6.4881,6.4869,6.4796,6.4772,6.4707,6.4651,6.4636,6.461,6.4515,6.4471,5.0476,4.9742,4.9359,5.2689,5.354,5.4,5.5621,5.6008,5.6058,5.6181,5.6877,5.7465,5.7541,5.8245,5.883,5.8948,5.9015,5.9021,5.8995,5.8988,5.8343,5.6587,5.6299,5.4615,5.0432,5.3868,5.7336,5.9675,6.0717,6.1222,6.126,6.1143,6.1079,6.1118,6.1926,6.2351,6.2351,6.3243,6.3715,6.3754,6.3893,6.3987,6.3987,6.3989,6.3994,6.3996,6.3996,6.4084,6.4143,6.3283,6.2954,6.2969,6.207,6.1758,6.1758,6.1719,6.1719,6.1719,6.1719,6.1719,6.1719,6.1719,6.1719,6.1719,6.1719,6.1719,6.1719,6.1719,6.1719,6.1719,6.1719,6.1719,6.1914,6.2773,6.2969,6.3203,6.4023,6.4219,6.4219,6.4258,6.4258,6.4258,6.4297,6.4297,6.4609,6.543,6.5547,6.5234,6.4412,6.4286,6.431,6.4299,6.5077,6.5546,6.5546,6.6288,6.6718,6.6718,6.6718,6.6738,6.6718,6.6719,6.6664,6.6527,6.652,6.6501,6.6435,6.6277,6.6234,6.623,6.6163,6.6113,4.9393,5.048,5.207,5.3231,5.4349,5.5465,5.671,5.7007,5.7165,5.7845,5.7318,5.6721,5.6841,5.5695,5.5521,5.7885,5.6366,5.6289,6.0231,5.7848,5.6712,5.9555,5.6858,5.552,5.748,5.7346,5.6826,5.5942,5.9293,6.1359,6.1359,6.1867,6.2157,6.2157,6.3016,6.3444,6.3444,6.3762,6.421,6.4791,6.5413,6.5463,6.4932,6.4918,6.4666,6.4194,6.4185,6.4542,6.5102,6.4827,6.5067,6.5503,6.4643,6.4292,6.4214,6.3628,6.3432,6.3277,6.2109,6.1719,6.1719,6.1719,6.1719,6.1719,6.1719,6.2109,6.2578,6.2578,6.2969,6.3437,6.3437,6.3437,6.3515,6.3789,6.3867,6.3945,6.4258,6.4297,6.4453,6.5039,6.5156,6.5351,6.5937,6.6015,6.6133,6.6405,6.6444,6.6365,6.6048,6.6,6.5949,6.5978,6.6211,6.6406,6.6406,6.664,6.6796,6.6796,6.6783,6.6794,6.6797,6.6728,6.6607,6.6459,6.6408,6.6376,6.6288,6.6259,6.624,6.624,6.6123,6.6069,5.021,5.2087,5.416,5.4795,5.6008,5.72,5.7836,5.8012,5.8161,5.8802,5.831,5.7587,5.7089,5.5649,5.5342,5.7929,5.6211,5.6211,6.1015,5.8828,5.7656,6.0077,5.742,5.6323,5.8648,5.8464,5.7343,5.5339,5.8221,6.021,6.0524,6.1041,6.1882,6.3134,6.3994,6.4457,6.4447,6.4482,6.4819,6.5425,6.5968,6.6148,6.5949,6.5941,6.4821,6.3004,6.4563,6.4678,6.3858,6.5108,6.5927,6.6356,6.5496,6.5145,6.5067,6.452,6.4286,6.4131,6.3005,6.2615,6.2615,6.2615,6.2615,6.2615,6.2615,6.3006,6.3475,6.3475,6.3866,6.4295,6.4295,6.4295,6.4374,6.4687,6.4765,6.4843,6.5156,6.5234,6.539,6.5976,6.6055,6.625,6.6797,6.6914,6.6914,6.6912,6.691,6.6907,6.6861,6.6816,6.6808,6.6798,6.6796,6.6796,6.6796,6.6796,6.6803,6.6818,6.6794,6.6795,6.6738,6.6658,6.6546,6.6351,6.6324,6.6253,6.6185,6.6144,6.6123,6.6123,6.6001,6.6136,5.2657,5.4296,5.5536,5.7229,5.8304,5.8893,5.8975,5.8975,5.8999,5.8982,5.9577,5.9628,5.8007,5.7578,5.7812,5.8906,5.8203,5.8437,6.1131,6.1404,6.0465,5.8155,5.7958,5.7021,5.4676,5.7495,5.9015,5.7934,5.7972,5.8402,5.9222,5.9239,6.0718,6.3966,6.49,6.5314,6.5325,6.5375,6.5469,6.5615,6.5655,6.6084,6.6825,6.6825,6.456,6.0813,6.495,6.4443,6.0929,6.4247,6.5613,6.5574,6.4753,6.4441,6.4441,6.4441,6.4441,6.4441,6.4441,6.4363,6.4286,6.4286,6.4286,6.4286,6.4286,6.4325,6.4364,6.4364,6.4403,6.4442,6.4442,6.4442,6.4639,6.5465,6.5661,6.5896,6.6718,6.6914,6.6914,6.6914,6.6914,6.6914,6.6914,6.6914,6.6914,6.6911,6.6946,6.6939,6.6813,6.6811,6.6808,6.6798,6.6796,6.6798,6.68,6.6839,6.6857,6.6875,6.6874,6.6855,6.6712,6.6696,6.6607,6.6411,6.6406,6.6394,6.6325,6.6168,6.6111,6.6111,6.6069,6.6442,5.278,5.5225,5.8008,5.8442,5.8756,5.909,5.9783,5.9951,5.9776,5.9199,5.8268,5.702,5.5307,5.2925,5.2534,5.6597,5.4331,5.3667,5.8237,5.7181,5.6437,5.7766,5.8428,5.9287,6.0576,6.21,6.2099,5.9866,6.1513,6.2724,6.2953,6.3568,6.4305,6.5165,6.54,6.5516,6.5513,6.5523,6.5571,6.5615,6.6279,6.6356,6.5926,6.5921,6.4981,6.338,6.4466,6.4697,6.4346,6.5243,6.5946,6.6453,6.6258,6.6141,6.6141,6.6141,6.6141,6.6141,6.6141,6.533,6.4286,6.4286,6.4286,6.4286,6.4286,6.4754,6.5262,6.5262,6.5731,6.6239,6.6239,6.6239,6.6279,6.6514,6.6554,6.6633,6.6869,6.6908,6.6908,6.6908,6.6908,6.6908,6.6908,6.6908,6.6867,6.6821,6.7364,6.7557,6.689,6.6806,6.68,6.6796,6.6796,6.6811,6.6793,6.7341,6.7695,6.7672,6.8147,6.8413,6.8388,6.8221,6.8123,6.8033,6.7989,6.7971,6.7839,6.7808,6.7789,6.7789,6.7757,6.7853,5.5353,5.7346,5.9531,5.9552,5.9831,6.0077,5.9839,5.9767,5.9344,5.7763,5.6984,5.5968,5.382,5.1555,5.1437,5.589,5.3898,5.3233,5.7294,5.6627,5.6391,5.8225,5.8848,6.0293,6.3261,6.4358,6.4279,6.279,6.2606,6.2766,6.3153,6.3621,6.4403,6.5576,6.5615,6.5419,6.5025,6.5412,6.5761,6.6113,6.6619,6.701,6.7282,6.7277,6.5986,6.3837,6.5706,6.5742,6.4609,6.6483,6.7537,6.7889,6.7537,6.7381,6.7303,6.6952,6.6796,6.6796,6.6796,6.618,6.5408,6.5408,6.5408,6.5408,6.5408,6.572,6.6111,6.6111,6.6463,6.6854,6.6854,6.6854,6.6855,6.6858,6.6859,6.686,6.6902,6.6903,6.6903,6.6903,6.7176,6.7411,6.7411,6.7723,6.7996,6.7957,6.8347,6.8505,6.8,6.7945,6.7928,6.7928,6.7877,6.7811,6.7811,6.8183,6.8372,6.8364,6.8686,6.8902,6.8868,6.8748,6.8679,6.8598,6.8592,6.8525,6.8391,6.8391,6.8391,6.8391,6.8391,6.8584,5.8462,5.9654,6.0492,6.0567,6.1159,6.1315,5.9793,5.9169,5.8231,5.5811,5.5615,5.5264,5.3115,5.1982,5.249,5.5888,5.5067,5.4636,5.6504,5.7518,5.8178,5.8558,5.8986,6.0627,6.4142,6.4853,6.5245,6.5585,6.2906,6.1548,6.2173,6.2212,6.3189,6.5379,6.5652,6.5336,6.4468,6.5434,6.6288,6.6952,6.7109,6.7928,6.9412,6.9412,6.7381,6.4062,6.7771,6.7303,6.414,6.7888,6.9412,6.9295,6.8439,6.8088,6.7971,6.7117,6.6806,6.6806,6.6806,6.6806,6.6805,6.6799,6.6796,6.6796,6.6796,6.6796,6.6796,6.6796,6.6799,6.6801,6.6801,6.6801,6.6803,6.6812,6.6812,6.6812,6.686,6.698,6.7099,6.7218,6.7804,6.8273,6.8273,6.8897,6.9407,6.9412,6.949,6.9569,6.957,6.9482,6.9386,6.9352,6.9218,6.9082,6.907,6.9055,6.903,6.8954,6.9045,6.9086,6.9026,6.9005,6.8949,6.8915,6.8915,6.886,6.8737,6.8737,6.8737,6.8737,6.8737,6.9122,5.8233,5.9635,6.1456,6.1452,6.1607,6.1607,6.1334,5.9578,5.751,5.5676,5.3685,5.2396,5.2631,5.2005,5.2317,5.5089,5.466,5.341,5.1689,5.5749,5.817,5.6178,5.8441,6.1525,6.5038,6.3556,6.3283,6.5429,6.5667,6.5474,6.4965,6.4926,6.481,6.4539,6.5866,6.6216,6.5392,6.6912,6.7732,6.7888,6.8591,6.91,6.9412,6.9412,6.8983,6.8319,6.91,6.8983,6.8358,6.91,6.9412,6.9296,6.8456,6.811,6.7995,6.7106,6.6796,6.6796,6.6796,6.6796,6.6794,6.6809,6.6796,6.6796,6.6796,6.6796,6.6796,6.6796,6.681,6.6782,6.6782,6.6782,6.6782,6.6784,6.6812,6.68,6.6802,6.7364,6.8119,6.8827,6.9062,6.9179,6.9179,6.9297,6.9414,6.9414,7.0,7.0469,7.0469,6.9843,6.9336,6.9161,6.9108,6.9014,6.8871,6.9507,6.9878,6.9802,7.0358,7.0714,7.0673,7.0568,7.0497,7.0509,7.0509,7.0502,7.0475,7.0475,7.0475,7.0475,7.0475,7.0552,5.8886,6.0034,6.1688,6.1681,6.1719,6.1133,5.887,5.7387,5.5514,5.1999,5.0633,5.0048,5.0048,5.0048,5.1219,5.4733,5.4967,5.4693,5.477,5.7269,5.8986,5.8675,6.008,6.1915,6.4023,6.3125,6.2891,6.414,6.504,6.5547,6.5585,6.6014,6.6249,6.6288,6.7068,6.7303,6.6912,6.8161,6.8981,6.9448,6.9894,7.0328,7.0758,7.0768,7.0498,7.0069,7.0069,6.8817,6.6862,6.8661,6.8348,6.6824,6.7769,6.8084,6.8006,6.7109,6.6797,6.6797,6.6797,6.6797,6.6797,6.6791,6.6788,6.6788,6.6788,6.6788,6.6788,6.6788,6.6791,6.6794,6.6794,6.7146,6.7497,6.7497,6.7807,6.8156,6.8156,6.8472,6.8905,6.9336,6.9765,7.0078,7.0078,7.0469,7.0742,7.0739,7.1001,7.1218,7.1204,7.0778,7.0495,7.0458,7.0284,7.0134,7.0054,7.0354,7.0517,7.0482,7.0799,7.0998,7.0998,7.0932,7.0898,7.0898,7.0898,7.0898,7.0898,7.0898,7.0898,7.0898,7.0898,7.0898,5.9924,6.0665,6.1719,6.1719,6.1719,6.0666,5.6728,5.54,5.372,4.9081,4.8218,4.8292,4.8412,4.8917,5.0711,5.4889,5.528,5.5864,5.8244,5.8869,5.9767,6.1485,6.1719,6.2268,6.3679,6.3133,6.3018,6.3766,6.4626,6.5402,6.6092,6.6723,6.739,6.8092,6.8448,6.8646,6.8646,6.9505,7.0286,7.0988,7.0965,7.1243,7.1711,7.1718,7.125,7.043,7.043,6.8086,6.457,6.8007,6.7382,6.453,6.7109,6.8085,6.8007,6.7108,6.6795,6.6795,6.6795,6.6795,6.6834,6.7029,6.6952,6.6797,6.6797,6.6797,6.6836,6.7031,6.707,6.7109,6.7304,6.7851,6.8398,6.8398,6.8906,6.9453,6.9648,6.9686,6.9725,6.9919,7.0505,7.0974,7.0974,7.156,7.1988,7.2016,7.1864,7.1731,7.1711,7.1584,7.1531,7.1587,7.1369,7.1164,7.1157,7.101,7.0898,7.0898,7.0898,7.0898,7.0898,7.0898,7.0898,7.0898,7.0898,7.0898,7.0898,7.0898,7.0898,7.0898,7.0898,7.0898,6.106,6.1563,6.1719,6.1719,6.1719,6.0982,5.8186,5.5798,5.3296,5.0466,4.8076,4.7476,5.0495,5.1112,5.2312,5.5902,5.5162,5.4732,5.6566,5.8127,5.9767,6.1485,6.1719,6.2938,6.6158,6.3622,6.3119,6.6211,6.7265,6.7808,6.7852,6.7949,6.8036,6.8114,6.9646,7.0468,7.0468,7.1328,7.1796,7.1874,7.1875,7.1523,7.082,7.082,7.0351,6.9531,6.9531,6.7539,6.457,6.8007,6.7382,6.4531,6.7106,6.8117,6.7999,6.7123,6.6803,6.6803,6.6803,6.6803,6.6921,6.7739,6.7451,6.6797,6.6797,6.6797,6.6953,6.7773,6.7967,6.8155,6.8974,6.9209,6.929,6.9296,6.9336,6.9609,7.0422,7.0576,7.0806,7.1608,7.1839,7.1878,7.1878,7.1956,7.1995,7.1991,7.1987,7.1922,7.1716,7.1584,7.143,7.1247,7.1224,7.1141,7.094,7.0919,7.0898,7.0898,7.0898,7.0898,7.0898,7.0898,7.0898,7.0898,7.0898,7.0898,7.0898,7.0898,7.0898,7.0898,7.0898,7.0898,5.8705,6.0111,6.1712,6.1712,6.1712,6.062,5.6443,5.5113,5.3629,4.9453,4.8163,4.8239,4.9569,5.0696,5.2015,5.3929,5.4545,5.5942,5.922,6.0235,6.1686,6.4432,6.4785,6.4909,6.5272,6.4062,6.4258,6.6601,6.668,6.7734,7.0306,6.9958,6.992,7.0428,7.1132,7.1484,7.1484,7.1836,7.1758,7.1211,7.1209,7.0777,6.9918,6.9911,6.9438,6.8618,6.8618,6.5222,6.0107,6.5573,6.4597,6.0184,6.5292,6.7319,6.7278,6.6917,6.7146,6.7576,6.7576,6.7927,6.8436,6.8786,6.8643,6.8344,6.8344,6.8344,6.8422,6.8773,6.8885,6.8958,6.9308,6.9776,7.0324,7.0841,7.096,7.1075,7.1419,7.1495,7.1609,7.1912,7.1987,7.1987,7.1987,7.1987,7.1987,7.1987,7.1828,7.1683,7.1587,7.1329,7.1101,7.1036,7.103,7.0985,7.0912,7.0898,7.0898,7.0898,7.0898,7.0898,7.0898,7.0898,7.0898,7.0898,7.0898,7.0898,7.0898,7.0898,7.0898,7.0898,7.0898,7.0898,5.7461,5.9453,6.1719,6.1719,6.1133,5.9453,5.5312,5.4258,5.2969,4.8826,4.8593,4.9257,4.953,5.0586,5.1949,5.359,5.4873,5.7015,6.076,6.1542,6.2797,6.5696,6.6049,6.5896,6.5467,6.5894,6.6674,6.7846,6.7652,6.8825,7.1832,7.1402,7.1364,7.1991,7.1989,7.1988,7.1988,7.1754,7.1324,7.0699,7.0456,6.9318,6.7522,6.856,6.8005,6.6247,6.7264,6.4062,5.8557,6.4414,6.336,5.8713,6.4804,6.7185,6.7224,6.746,6.7966,6.8474,6.8474,6.8903,6.9451,6.9684,6.9762,6.984,7.0074,6.9802,6.9451,6.9723,6.9957,7.0154,7.0154,7.0621,7.1245,7.1831,7.1987,7.1987,7.1987,7.1987,7.1987,7.1987,7.1987,7.1987,7.1987,7.1987,7.1982,7.1922,7.1722,7.1521,7.1417,7.117,7.0953,7.0905,7.0898,7.0898,7.0898,7.0898,7.0898,7.0898,7.0898,7.0898,7.0898,7.0898,7.0898,7.0898,7.0898,7.0898,7.0898,7.0898,7.0898,7.0898,7.0898,7.0898,5.8398,6.0351,6.1719,6.1719,5.9765,5.7383,5.5698,5.328,5.0937,4.9158,4.9485,5.0351,5.1205,5.1404,5.2539,5.6015,5.6562,5.7461,6.0039,6.1172,6.2344,6.4101,6.4336,6.5312,6.7803,6.962,7.0621,7.066,7.1442,7.195,7.1989,7.1989,7.2,7.2019,7.2002,7.1989,7.1989,7.1128,7.0699,7.0699,6.9841,6.7187,6.3164,6.6561,6.5779,6.1953,6.5351,6.4843,6.1914,6.539,6.4765,6.207,6.6403,6.8082,6.82,6.9059,6.9373,6.9373,6.9373,6.9373,6.9528,7.0426,7.0698,7.0854,7.1714,7.0777,6.9567,7.0424,7.1324,7.1987,7.1987,7.1987,7.1987,7.1987,7.1987,7.1987,7.1987,7.1987,7.1987,7.1987,7.1987,7.1987,7.1987,7.1987,7.1927,7.1718,7.17,7.1566,7.1239,7.1214,7.1118,7.0932,7.0898,7.0898,7.0898,7.0898,7.0898,7.0898,7.0898,7.0898,7.0898,7.0898,7.0898,7.0898,7.0898,7.0898,7.0898,7.0898,7.0898,7.0898,7.0898,7.0898,5.4361,5.6001,5.7485,5.807,5.7601,5.6351,5.4042,5.381,5.3381,5.1065,5.1735,5.2677,5.2362,5.2763,5.3746,5.5426,5.621,5.789,6.164,6.2422,6.3437,6.5738,6.7058,6.8337,6.9735,6.8752,6.902,7.1402,6.9645,6.949,7.187,7.1441,7.1367,7.1961,7.1406,7.1128,7.1128,7.023,6.9528,6.8902,6.863,6.6249,6.2226,6.5663,6.5194,6.1914,6.5936,6.5741,6.2891,6.6912,6.6562,6.3828,6.7537,6.8981,6.902,6.9295,6.9762,7.0309,7.0309,7.0699,7.1206,7.1519,7.1597,7.1636,7.1909,7.1597,7.1245,7.1519,7.1792,7.1987,7.1987,7.1987,7.1987,7.1987,7.1987,7.1987,7.1987,7.1987,7.1987,7.1987,7.1987,7.1974,7.1803,7.1791,7.1755,7.1584,7.1465,7.1334,7.1197,7.1065,7.096,7.0912,7.0898,7.0898,7.0898,7.0898,7.0898,7.0898,7.0898,7.0898,7.0898,7.0898,7.0898,7.0898,7.0898,7.0898,7.0898,7.0898,7.0898,7.0898,7.0898,7.0898,5.2703,5.4459,5.5903,5.6449,5.5864,5.4888,5.3913,5.3757,5.3561,5.2585,5.4029,5.4966,5.3484,5.4158,5.4828,5.4398,5.6123,5.8275,6.0307,6.14,6.2726,6.4631,6.6687,6.8708,7.0502,6.9528,6.9646,7.1831,6.9684,6.9215,7.1402,7.0971,7.0932,7.148,7.066,7.0387,7.0698,6.984,6.9294,6.9097,6.8747,6.6522,6.2813,6.6209,6.5936,6.2891,6.6873,6.7381,0.0,6.8319,6.8163,6.6484,6.8942,6.9879,6.9918,7.027,7.0738,7.1206,7.1206,7.1558,7.1987,7.1987,7.1987,7.1987,7.1987,7.1987,7.1987,7.1987,7.1987,7.1987,7.1987,7.1987,7.1987,7.1987,7.1987,7.1987,7.1987,7.1987,7.1982,7.1915,7.187,7.1844,7.1653,7.1628,7.158,7.1408,7.1265,7.1181,7.1089,7.0973,7.0898,7.0898,7.0898,7.0898,7.0898,7.0898,7.0898,7.0898,7.0898,7.0898,7.0898,7.0898,7.0898,7.0898,7.0898,7.0898,7.0898,7.0898,7.0898,7.0898,7.0898,7.0898,0.0,5.4965,5.6136,5.6215,5.4381,5.3054,5.4733,5.3288,0.0,5.3912,5.6216,5.7113,5.4654,5.5668,5.5981,5.3328,5.6411,5.8596,5.6917,5.8948,6.0861,6.1602,6.4217,6.7146,7.0229,7.1402,7.1987,7.1909,7.1206,7.0776,7.0698,7.0698,7.0698,7.0698,6.984,6.9801,7.0698,6.984,6.9684,7.0229,6.9684,6.7499,6.4064,6.7733,6.7538,6.4493,6.7968,6.949,6.949,6.9568,6.9568,6.9685,7.0465,7.0776,7.0893,7.1714,7.1987,7.1987,7.1987,7.1987,7.1987,7.1987,7.1987,7.1987,7.1987,7.1987,7.1987,7.1987,7.1987,7.1987,7.1987,7.1987,7.1987,7.1987,7.1987,7.1987,7.1982,7.1982,7.1922,7.1711,7.1689,7.1647,7.1493,7.1465,7.1399,7.1225,7.1192,7.1145,7.1009,7.0975,7.1014,7.1091,7.1091,7.1091,7.1091,7.0975,7.0898,7.0898,7.0898,7.0898,7.0898,7.0898,7.0898,7.0898,7.0898,7.0898,7.0898,7.0898,7.0898,7.0898,7.0898,7.0898,5.1804,0.0,5.1803,5.2467,5.2156,5.1999,0.0,5.3366,5.4068,5.6411,5.7894,5.8205,5.6332,5.7933,5.8441,5.5202,5.7738,5.9495,5.7777,6.0315,6.2228,6.1758,6.6325,6.9292,6.8746,7.0699,7.1714,7.105,7.1441,7.1402,7.0737,7.0698,7.0698,7.0698,6.984,6.9801,7.0698,6.984,6.8202,6.582,6.8241,6.6209,6.0549,6.6639,6.7538,6.4532,6.863,7.0387,7.0465,7.1128,7.1402,7.1402,7.1597,7.1675,7.1714,7.1909,7.1987,7.1987,7.1987,7.1987,7.1987,7.1987,7.1987,7.1987,7.1987,7.1987,7.1987,7.1987,7.1987,7.1987,7.1987,7.1987,7.1987,7.1987,7.1987,7.1974,7.1796,7.1777,7.1747,7.1573,7.154,7.1489,7.1295,7.1255,7.1219,7.1005,7.096,7.121,7.1797,7.1905,7.2129,7.2815,7.2892,7.2892,7.2892,7.1668,7.0898,7.0898,7.0898,7.0898,7.0898,7.0898,7.0898,7.0898,7.0898,7.0898,7.0898,7.0898,7.0898,7.0898,7.0898,7.0898,5.1308,5.1319,5.1609,5.2858,5.2585,5.2547,5.4577,5.4187,5.4342,5.7699,5.8166,5.7776,5.727,5.7309,5.7113,5.6059,5.6451,5.7232,5.8246,6.0705,6.2226,6.1758,6.5273,6.7693,6.7537,7.023,7.1792,7.1324,7.1363,7.1206,7.0737,7.0698,7.0698,7.0698,7.0621,7.0621,7.0698,7.023,6.8474,6.5508,6.8943,6.781,6.2813,6.8161,6.9568,6.7889,6.8591,7.0035,7.1752,7.023,7.0777,7.2573,7.2143,7.1987,7.1987,7.1987,7.1987,7.1987,7.1987,7.1987,7.1987,7.1987,7.1987,7.1987,7.1987,7.1987,7.1987,7.1987,7.1987,7.1987,7.1987,7.2237,7.2442,7.2442,7.2679,7.2896,7.2786,7.2769,7.2722,7.2545,7.2507,7.2476,7.228,7.2276,7.2225,7.2112,7.2091,7.2245,7.2745,7.2783,7.2976,7.343,7.3507,7.3507,7.3507,7.2622,7.2091,7.2091,7.2091,7.2091,7.2091,7.2091,7.2091,7.2091,7.2091,7.2091,7.2091,7.2091,7.2091,7.2091,7.2091,7.2091,5.124,5.1899,5.3033,5.4787,5.4057,5.3714,5.6819,5.5106,5.4098,5.8391,5.8157,5.7262,5.7542,5.6723,5.5981,5.5981,5.4693,5.5044,5.8947,6.1094,6.2187,6.1914,6.4023,6.5898,6.6913,7.0035,7.1948,7.1792,7.1245,7.0854,7.0698,7.0815,7.0893,7.0893,7.1597,7.1636,7.0893,7.0893,6.9528,6.6835,7.0349,7.0154,6.6913,7.0543,7.2143,7.1831,6.9022,6.9801,7.2806,6.9137,6.9762,7.304,7.23,7.1987,7.1987,7.1987,7.1987,7.1987,7.1987,7.1987,7.1987,7.1987,7.1987,7.1986,7.1977,7.205,7.2166,7.2115,7.212,7.2168,7.2168,7.2649,7.3142,7.3142,7.3589,7.3976,7.3945,7.394,7.3884,7.37,7.3653,7.3625,7.3511,7.3507,7.3507,7.3507,7.3507,7.3546,7.3661,7.3661,7.3738,7.3853,7.3892,7.3892,7.3892,7.3892,7.3892,7.3892,7.3623,7.3507,7.3507,7.3507,7.3507,7.3507,7.3507,7.3507,7.3507,7.3507,7.3493,7.3433,7.3433,7.3457,5.1231,5.1675,5.2777,5.4472,5.4332,5.4238,5.5955,5.494,5.4853,5.9149,5.9812,5.9049,5.7144,6.1213,6.2307,5.4577,5.602,5.8869,6.1016,6.3397,6.4375,6.2969,6.7537,7.0035,6.8083,7.0387,7.1675,7.0971,7.1441,7.148,7.0737,7.1402,7.1792,7.1792,7.1948,7.1948,7.1792,7.1792,7.0113,6.6835,7.0349,7.0154,6.6952,7.1167,7.269,7.2026,7.2221,7.226,7.2143,7.148,7.1597,7.2182,7.2065,7.1987,7.1987,7.1987,7.1987,7.1987,7.1987,7.1987,7.1987,7.1987,7.1987,7.1979,7.1791,7.2269,7.2791,7.2638,7.2731,7.2851,7.2851,7.3334,7.3833,7.3833,7.3929,7.394,7.3767,7.3762,7.3694,7.3547,7.3532,7.3518,7.3514,7.3507,7.3507,7.3507,7.3507,7.3738,7.443,7.4507,7.4822,7.5553,7.563,7.563,7.563,7.563,7.563,7.563,7.4276,7.3507,7.3507,7.3507,7.3507,7.3507,7.3507,7.3507,7.3507,7.3507,7.3397,7.3262,7.3262,7.3145,5.1841,5.2618,5.4191,5.621,5.4556,5.3937,5.96,5.5749,5.3105,6.0709,5.8579,5.5868,5.7577,5.9363,5.9457,5.6021,6.0627,6.4453,6.3827,6.5584,6.6444,6.5194,6.8318,6.9762,6.7615,7.0191,7.1831,7.1441,7.1753,7.1831,7.1402,7.1792,7.1987,7.1987,7.1987,7.2221,7.269,7.2221,7.0232,6.6835,7.0349,7.0154,6.6913,7.0816,7.2378,7.1909,7.0426,7.0894,7.2492,7.0073,7.0444,7.2507,7.1944,7.1725,7.1725,7.1725,7.1725,7.1725,7.1725,7.1725,7.1803,7.2228,7.2384,7.245,7.2847,7.3214,7.3507,7.3432,7.3465,7.3522,7.3522,7.4054,7.456,7.456,7.4812,7.5077,7.4957,7.4931,7.4937,7.4844,7.4853,7.4853,7.4853,7.4853,7.4853,7.4853,7.4853,7.4976,7.5361,7.5399,7.5553,7.5976,7.6015,7.6015,7.6015,7.6015,7.6015,7.6015,7.5284,7.4853,7.4853,7.4853,7.4817,7.4689,7.4689,7.4643,7.4518,7.4518,7.4478,7.4396,7.4396,7.4355,5.2378,5.31,5.4758,5.713,5.4809,5.4145,6.243,5.6407,5.1827,6.1589,5.7759,5.4037,5.8659,5.7463,5.668,5.9331,6.4643,6.7961,6.6783,6.7931,6.8684,6.8023,6.9168,6.949,6.8163,7.0427,7.1987,7.1987,7.1987,7.1987,7.1987,7.2182,7.2292,7.2237,7.2431,7.2734,7.3144,7.2481,7.0863,6.8357,7.0762,7.052,6.8023,7.0854,7.2053,7.1741,6.9243,6.9984,7.2593,6.9159,6.9664,7.2582,7.1805,7.1481,7.152,7.1714,7.1792,7.1792,7.2021,7.2099,7.2176,7.2794,7.2988,7.313,7.3741,7.4072,7.4218,7.4169,7.4309,7.4436,7.4252,7.4729,7.5245,7.5245,7.563,7.6015,7.6015,7.6015,7.6015,7.6015,7.6015,7.6015,7.6015,7.6015,7.6015,7.6015,7.6015,7.6015,7.6015,7.6015,7.6015,7.6015,7.6015,7.6015,7.6015,7.6015,7.6015,7.6015,7.6015,7.6,7.5924,7.5924,7.5849,7.5636,7.5636,7.5531,7.5395,7.5395,7.5368,7.5362,7.5362,7.5336,5.2376,5.1996,5.2738,5.5252,5.5242,5.5987,6.1125,5.629,5.2961,6.0829,5.9409,5.7629,6.0514,5.8958,5.9099,6.4786,6.5542,6.644,6.9449,7.0778,7.1401,7.1362,7.1636,7.1753,7.1636,7.1831,7.1987,7.1987,7.1987,7.1987,7.1987,7.2768,7.3126,7.2919,7.3693,7.3678,7.2757,7.2679,7.2705,7.2806,7.2071,7.1596,7.1396,7.2249,7.226,7.156,7.2065,7.2026,7.1595,7.1272,7.1346,7.1618,7.1528,7.1481,7.1598,7.2332,7.2604,7.2716,7.3523,7.3829,7.3829,7.3907,7.3907,7.3876,7.3761,7.4276,7.4887,7.4685,7.5225,7.5712,7.5107,7.544,7.5928,7.5928,7.5952,7.6015,7.6015,7.6015,7.6015,7.6015,7.6015,7.6015,7.6015,7.6015,7.6015,7.6015,7.6015,7.6015,7.6015,7.6015,7.6015,7.6015,7.6015,7.6015,7.6015,7.6015,7.6015,7.6015,7.6015,7.591,7.5724,7.5716,7.5636,7.5412,7.5412,7.5403,7.5395,7.5395,7.5336,7.5218,7.5218,7.5123,5.3159,5.2697,5.3467,5.6549,5.5557,5.5441,6.1476,5.696,5.4178,6.354,6.0242,5.6474,5.9131,6.098,6.3163,6.6575,6.8226,6.9547,7.0817,7.1342,7.1577,7.1577,7.1625,7.1695,7.1695,7.1695,7.1695,7.1695,7.216,7.2429,7.2429,7.324,7.372,7.362,7.3433,7.3368,7.3497,7.2487,7.2283,7.2903,7.199,7.1577,7.1573,7.1824,7.1796,7.152,7.1835,7.1796,7.1473,7.1353,7.13,7.1368,7.1766,7.2283,7.2779,7.3088,7.3204,7.3237,7.3584,7.37,7.3778,7.4274,7.4428,7.4525,7.5008,7.5361,7.561,7.5543,7.5745,7.5928,7.5687,7.5824,7.6015,7.6015,7.6015,7.6015,7.6015,7.6015,7.6015,7.6015,7.6015,7.6015,7.6015,7.6015,7.6015,7.6015,7.6015,7.6015,7.6015,7.6015,7.6015,7.6015,7.6015,7.6015,7.6015,7.5887,7.5826,7.5826,7.5924,7.591,7.57,7.5692,7.5561,7.5292,7.5283,7.5218,7.5095,7.5095,7.5056,7.5005,7.5005,7.4965,5.3107,5.2749,5.3467,5.6395,5.5121,5.5121,6.2429,5.8813,5.6328,6.4778,6.2753,5.9819,6.1122,6.3482,6.5801,6.7561,6.8902,7.0104,7.1145,7.1358,7.1395,7.1395,7.1448,7.1481,7.1481,7.1714,7.187,7.187,7.2638,7.31,7.31,7.395,7.4269,7.3932,7.3592,7.3418,7.3431,7.2308,7.1843,7.2119,7.1571,7.1334,7.1395,7.1329,7.13,7.13,7.13,7.13,7.1329,7.1479,7.168,7.1965,7.2435,7.2976,7.3546,7.3776,7.3892,7.393,7.4199,7.4276,7.4392,7.4938,7.513,7.5207,7.5822,7.6015,7.6015,7.6015,7.6015,7.6015,7.6015,7.6015,7.6015,7.6015,7.6015,7.6015,7.6015,7.6015,7.6015,7.6015,7.6015,7.6015,7.6015,7.6015,7.6015,7.6015,7.6015,7.6015,7.6015,7.6015,7.5993,7.591,7.5856,7.5826,7.5826,7.5684,7.5611,7.5611,7.5724,7.5708,7.5536,7.5527,7.5418,7.5113,7.5103,7.5035,7.4884,7.4884,7.4884,7.4884,7.4884,7.4884,5.1984,5.1841,5.2308,5.4087,5.3857,5.5434,6.3897,6.1935,5.9511,6.3743,6.7321,6.9129,6.7404,6.6442,6.6474,6.8122,6.7013,6.709,7.0437,7.1059,7.1214,7.1214,7.1363,7.1516,7.1516,7.2211,7.2712,7.2712,7.3519,7.4015,7.4015,7.4839,7.4834,7.375,7.4535,7.4074,7.2213,7.2175,7.1752,7.0898,7.0898,7.1005,7.1203,7.0992,7.0898,7.0898,7.0937,7.0937,7.0975,7.1867,7.2745,7.3507,7.3507,7.3507,7.3623,7.443,7.47,7.4853,7.5707,7.6015,7.6015,7.6015,7.6015,7.6015,7.6015,7.6015,7.6015,7.6015,7.6015,7.6015,7.6015,7.6015,7.6015,7.6015,7.6015,7.6015,7.6015,7.6015,7.6015,7.6015,7.6015,7.6015,7.6015,7.6015,7.6015,7.6015,7.6015,7.6015,7.5976,7.5976,7.591,7.5708,7.5536,7.5395,7.5395,7.5386,7.5386,7.5386,7.5386,7.5336,7.5209,7.52,7.5103,7.4895,7.4884,7.4884,7.4884,7.4884,7.4884,7.4884,7.4884,7.4884,5.4823,5.3466,5.2308,5.4616,5.5983,5.7104,5.8304,5.9344,6.0935,6.3974,6.5897,6.6474,6.4743,6.7167,6.9206,6.8507,6.8975,6.9744,7.0744,7.0934,7.0985,7.0985,7.1055,7.1335,7.1914,7.2223,7.2603,7.3214,7.4025,7.4481,7.4481,7.5337,7.5382,7.4447,7.41,7.3373,7.2213,7.1591,7.1475,7.1828,7.1828,7.1523,7.1024,7.1555,7.1828,7.186,7.2476,7.2738,7.2738,7.3014,7.3584,7.4353,7.4353,7.47,7.5284,7.5515,7.563,7.5668,7.5899,7.6015,7.6015,7.6015,7.6015,7.6015,7.6015,7.6015,7.6015,7.6015,7.6015,7.6015,7.6015,7.6015,7.6015,7.6015,7.6015,7.6015,7.6015,7.6015,7.6015,7.6015,7.6015,7.6015,7.6015,7.6015,7.5939,7.5826,7.581,7.5724,7.5603,7.5586,7.557,7.5519,7.5421,7.5395,7.5395,7.53,7.5255,7.5255,7.5123,7.5075,7.52,7.52,7.5103,7.4895,7.4884,7.4884,7.4884,7.4884,7.4884,7.4884,7.4455,7.4263,5.4757,5.4282,5.454,5.8438,5.9007,5.8488,5.8036,5.9575,6.2311,6.6563,6.7561,6.7369,6.6326,6.8635,7.0369,6.9364,7.0112,7.0815,7.0815,7.0864,7.0898,7.0898,7.1206,7.1629,7.2136,7.2783,7.3399,7.393,7.4745,7.5207,7.5207,7.5399,7.5091,7.4238,7.3437,7.2745,7.2213,7.1668,7.186,7.2706,7.2706,7.2437,7.1937,7.2476,7.2706,7.2745,7.3276,7.3661,7.3969,7.3969,7.4469,7.5207,7.5207,7.5553,7.6015,7.6015,7.6015,7.6015,7.6015,7.6015,7.6015,7.6015,7.6015,7.6015,7.6015,7.6015,7.6015,7.6015,7.6015,7.6015,7.6015,7.5932,7.5902,7.5962,7.6015,7.6,7.5894,7.5879,7.5864,7.5794,7.5748,7.5748,7.5748,7.5748,7.5716,7.5611,7.5595,7.5553,7.5403,7.5362,7.5309,7.5309,7.5245,7.5199,7.5199,7.5114,7.5074,7.5074,7.4965,7.4945,7.5074,7.5074,7.5025,7.4895,7.4884,7.4884,7.4884,7.4884,7.4764,7.4547,7.4184,7.3904,5.3574,5.4977,5.7787,6.3238,6.1642,5.9411,6.1908,6.2206,6.3733,7.0228,7.0686,7.0029,7.0334,7.0411,7.0411,7.0411,7.0547,7.0654,7.0654,7.0849,7.0972,7.0972,7.1741,7.2248,7.2248,7.3625,7.4548,7.4548,7.5278,7.5709,7.5709,7.4971,7.4202,7.3464,7.2664,7.2248,7.2248,7.2248,7.2702,7.3541,7.3541,7.3579,7.3656,7.3647,7.3661,7.3738,7.3738,7.4123,7.4815,7.4815,7.5284,7.6015,7.6015,7.6015,7.6015,7.6015,7.6015,7.6015,7.6015,7.6015,7.6015,7.6015,7.6015,7.6015,7.6015,7.6015,7.6015,7.6015,7.6015,7.6015,7.6,7.5849,7.5732,7.5902,7.5932,7.5894,7.5708,7.5668,7.5628,7.5421,7.5395,7.5395,7.5395,7.5395,7.5386,7.5368,7.5389,7.5342,7.5342,7.5255,7.5171,7.5171,7.5005,7.4884,7.4884,7.4884,7.4884,7.4884,7.4884,7.4884,7.4884,7.4884,7.4884,7.4884,7.4884,7.4884,7.4884,7.4854,7.4547,7.4009,7.3879,7.359,5.9463,5.8365,5.6809,5.8751,5.7577,5.8308,6.7237,6.6633,6.5428,6.9788,6.8408,6.7216,6.9914,7.0411,7.0411,7.0411,7.0443,7.0467,7.0467,7.1073,7.151,7.151,7.2237,7.2734,7.2751,7.3095,7.3286,7.3303,7.3456,7.3571,7.3571,7.3379,7.3218,7.3019,7.2866,7.2743,7.2734,7.2734,7.3194,7.4044,7.4044,7.4388,7.4979,7.4627,7.4822,7.5476,7.5476,7.5553,7.5707,7.5707,7.5822,7.6015,7.6015,7.6015,7.6015,7.6015,7.6015,7.6015,7.6015,7.6015,7.6015,7.6015,7.6015,7.6015,7.6015,7.6015,7.6015,7.6015,7.6015,7.5947,7.5826,7.5724,7.5668,7.557,7.5544,7.5536,7.5455,7.5447,7.5438,7.5403,7.5395,7.5395,7.5395,7.5395,7.538,7.5255,7.5095,7.4987,7.4987,7.4985,7.4955,7.4955,7.4915,7.4884,7.4884,7.4884,7.4884,7.4884,7.4884,7.4884,7.4884,7.4884,7.4884,7.4884,7.4884,7.4884,7.4884,7.4422,7.4113,7.3998,7.3135,7.2687,5.7869,5.9289,6.0719,6.1972,6.2542,6.3727,6.7438,6.7775,6.7824,6.9778,6.873,6.8036,6.9813,7.0156,7.0156,7.0156,7.0568,7.0896,7.0896,7.1689,7.2274,7.2274,7.2656,7.2894,7.2902,7.2911,7.2911,7.2881,7.2881,7.3072,7.3493,7.3149,7.3102,7.3514,7.3123,7.3085,7.3505,7.3535,7.3925,7.4775,7.4775,7.5004,7.5395,7.516,7.5279,7.5708,7.5708,7.5748,7.5864,7.5864,7.591,7.6015,7.6015,7.6015,7.6015,7.6015,7.6015,7.6007,7.5887,7.5864,7.5849,7.5732,7.5708,7.5708,7.5708,7.5708,7.5708,7.5708,7.5708,7.5684,7.5595,7.5502,7.5521,7.5805,7.5621,7.5368,7.5309,7.529,7.5301,7.5161,7.5142,7.5142,7.5142,7.5142,7.5142,7.5074,7.4965,7.4884,7.4884,7.4884,7.4884,7.4884,7.4884,7.4884,7.4884,7.4884,7.4884,7.4884,7.4884,7.4884,7.4884,7.4884,7.4884,7.4884,7.4884,7.4754,7.4455,7.4135,7.3724,7.3225,7.266,7.2241,5.5223,5.9734,6.5031,6.6594,6.8072,6.8574,6.6291,6.7466,6.9219,6.9787,6.9901,6.9901,6.9901,7.0015,7.0128,7.0128,7.0943,7.1577,7.1577,7.2389,7.2981,7.2829,7.2952,7.2923,7.2617,7.2588,7.252,7.2406,7.252,7.2902,7.3627,7.3122,7.3228,7.4059,7.3401,7.3439,7.4326,7.4326,7.4631,7.5327,7.5327,7.5327,7.5327,7.5327,7.5362,7.5395,7.5395,7.5481,7.5652,7.5652,7.5732,7.5894,7.5894,7.5894,7.5894,7.5894,7.5894,7.5879,7.57,7.5652,7.5628,7.5438,7.5509,7.5624,7.5624,7.573,7.5844,7.5844,7.5844,7.5836,7.58,7.5711,7.5799,7.6407,7.6151,7.5701,7.5609,7.558,7.5503,7.5152,7.4998,7.4884,7.4884,7.4884,7.4884,7.4884,7.4884,7.4884,7.4884,7.4884,7.4884,7.4884,7.4884,7.4884,7.4884,7.4884,7.4884,7.4884,7.4884,7.4884,7.4884,7.4884,7.4884,7.4884,7.4884,7.4632,7.4135,7.3975,7.3404,7.252,7.2342,7.1981,5.959,6.1894,6.4008,6.5002,6.3296,6.2774,6.8043,6.7314,6.6404,6.9285,6.9901,6.9901,6.9901,7.047,7.0924,7.0924,7.1702,7.2252,7.2252,7.2983,7.3268,7.2557,7.3078,7.2926,7.1494,7.1342,7.1048,7.0365,7.0934,7.139,7.1504,7.2111,7.2822,7.3647,7.3562,7.3941,7.4786,7.4824,7.4861,7.4975,7.4975,7.4975,7.4975,7.4975,7.5142,7.5395,7.5395,7.5403,7.5429,7.5429,7.5447,7.5464,7.5464,7.5464,7.5464,7.5464,7.5464,7.5464,7.5438,7.5429,7.5421,7.5403,7.5921,7.6532,7.6532,7.702,7.7575,7.7575,7.7575,7.7539,7.7418,7.7388,7.7358,7.729,7.7193,7.7138,7.7107,7.7131,7.6934,7.609,7.5377,7.4884,7.4884,7.4884,7.4884,7.4884,7.4884,7.4884,7.4884,7.4884,7.4884,7.4884,7.4884,7.4884,7.4884,7.4884,7.4884,7.4884,7.4884,7.4884,7.4884,7.4884,7.4884,7.4884,7.4884,7.4864,7.4764,7.3786,7.3212,7.308,7.2079,7.1573,6.2576,6.2046,6.1439,6.6973,6.4101,6.1675,6.8385,6.7314,6.5988,6.9787,7.0583,7.0583,7.0583,7.1266,7.1834,7.1834,7.2545,7.3075,7.3075,7.3368,7.3482,7.3113,7.2545,7.209,7.1834,7.1379,7.1152,7.1304,7.1645,7.2024,7.2469,7.2848,7.3454,7.4316,7.4316,7.4505,7.4884,7.4884,7.4884,7.4884,7.4884,7.4884,7.4884,7.4884,7.4995,7.5133,7.5133,7.5199,7.5301,7.5301,7.5327,7.5395,7.5395,7.5395,7.5471,7.5959,7.6112,7.6171,7.6511,7.6665,7.6684,7.6579,7.6769,7.7073,7.7073,7.733,7.7634,7.7634,7.7634,7.7614,7.7562,7.7531,7.7624,7.7986,7.8131,7.8325,7.8742,7.8138,7.7399,7.6969,7.6617,7.6331,7.6307,7.6297,7.6297,7.6297,7.588,7.5566,7.5566,7.5188,7.4884,7.4884,7.4884,7.4884,7.4884,7.4884,7.4884,7.4884,7.4884,7.4743,7.4411,7.44,7.4241,7.3954,7.4229,7.4229,7.3954,7.3145,7.2576,7.2255,7.1723,7.1494,6.3259,6.1667,6.0045,6.7125,6.4055,6.0689,6.611,6.5419,6.4813,6.8982,7.0697,7.1493,7.1711,7.2279,7.2706,7.2706,7.3378,7.3861,7.3634,7.3596,7.352,7.3331,7.2203,7.1683,7.2327,7.1796,7.1683,7.2365,7.2592,7.2962,7.3558,7.3823,7.424,7.4884,7.4884,7.4884,7.4884,7.4884,7.4884,7.4884,7.4884,7.4884,7.4884,7.4884,7.4884,7.4884,7.4884,7.4975,7.5123,7.5351,7.5485,7.5586,7.5815,7.593,7.6006,7.6654,7.6883,7.6931,7.7377,7.7594,7.7602,7.7448,7.7548,7.7699,7.7699,7.7851,7.804,7.804,7.804,7.804,7.804,7.804,7.8192,7.8798,7.9014,7.925,7.991,7.8874,7.7827,7.7827,7.7655,7.7452,7.7407,7.7396,7.7396,7.7396,7.6865,7.6438,7.6438,7.5908,7.5463,7.5225,7.5188,7.5112,7.4932,7.4884,7.4843,7.4691,7.468,7.4411,7.3808,7.3784,7.3603,7.3187,7.3454,7.3454,7.3187,7.266,7.2153,7.1744,7.1573,7.1494,6.0424,6.1144,6.122,6.253,6.0189,5.8036,5.9969,6.0273,6.1334,6.5495,6.956,7.2554,7.3331,7.352,7.3558,7.3558,7.4278,7.4543,7.371,7.3596,7.3331,7.2554,7.2403,7.2365,7.2403,7.2365,7.2365,7.2403,7.3113,7.3558,7.3596,7.4392,7.4846,7.4884,7.4884,7.4884,7.4884,7.4884,7.4884,7.4884,7.4884,7.4884,7.4884,7.4884,7.4884,7.4884,7.4884,7.4895,7.4981,7.5739,7.6052,7.6138,7.6973,7.7314,7.7314,7.7352,7.7352,7.7352,7.7417,7.7417,7.7407,7.7396,7.7927,7.8533,7.8533,7.9102,7.9784,7.9784,7.9784,7.9784,7.9784,7.9784,7.9784,7.9822,7.9833,7.9897,8.0144,7.9429,7.8739,7.8739,7.8011,7.7407,7.7396,7.7396,7.7396,7.7396,7.7358,7.732,7.732,7.732,7.6941,7.6145,7.6032,7.5718,7.496,7.4884,7.467,7.4079,7.4056,7.3784,7.3251,7.3225,7.325,7.3187,7.2729,7.2715,7.3187,7.266,7.2386,7.2342,7.1754,7.1494,5.959,5.9173,5.8786,6.2303,5.8627,5.5481,6.0378,6.106,6.1106,6.2576,6.8375,7.262,7.0725,7.2611,7.443,7.443,7.4695,7.4581,7.371,7.3596,7.3293,7.2517,7.2403,7.2592,7.3113,7.3189,7.3416,7.3947,7.2279,7.2166,7.4316,7.2696,7.2696,7.4809,7.4884,7.4884,7.4884,7.4884,7.4884,7.4884,7.4884,7.4884,7.4932,7.5415,7.568,7.568,7.6259,7.6183,7.5718,7.66,7.6941,7.6979,7.7282,7.7396,7.7472,7.7965,7.8154,7.8268,7.8798,7.8988,7.8988,7.8988,7.9177,7.9443,7.9443,7.9632,7.9898,7.9898,7.9898,7.9898,7.9898,7.9898,7.9919,7.9956,7.9978,7.9999,8.0072,7.9885,7.9667,7.9595,7.9315,7.9073,7.9009,7.8988,7.8988,7.8988,7.8533,7.8154,7.8154,7.7737,7.7282,7.6979,7.6941,7.6828,7.6524,7.5983,7.5426,7.4882,7.4321,7.3603,7.2715,7.2687,7.2491,7.2123,7.1936,7.2094,7.2673,7.2094,7.1815,7.1815,7.1604,7.1494,5.815,5.746,5.6929,5.9915,5.7149,5.4534,5.7869,6.034,6.1856,6.1591,6.7949,7.3027,7.1066,7.2999,7.4884,7.4884,7.4657,7.4164,7.3341,7.3189,7.2999,7.2441,7.263,7.3113,7.3975,7.4051,7.4278,7.4846,7.2848,7.2545,7.4771,7.2772,7.2583,7.4809,7.4884,7.4884,7.4884,7.4884,7.4884,7.4884,7.4884,7.5036,7.5301,7.587,7.6249,7.66,7.7434,7.732,7.66,7.7434,7.7813,7.7813,7.8116,7.823,7.8306,7.8836,7.9026,7.9102,7.9708,7.9898,7.9898,7.9898,7.9898,7.9898,7.9898,7.9898,7.9898,7.9898,7.9898,7.9898,7.9898,7.9898,7.9919,7.9956,7.9978,7.9978,7.9978,8.0062,8.0113,7.9999,7.9978,7.9956,7.9919,7.9898,7.9898,7.9898,7.9405,7.9026,7.9026,7.8571,7.8116,7.7813,7.7636,7.7386,7.7121,7.6399,7.5711,7.517,7.4349,7.345,7.2526,7.2225,7.1906,7.1494,7.1494,7.1713,7.2116,7.1713,7.1494,7.1494,7.1494,7.1494,0.0,0.0,0.0,5.5148,5.5564,5.5337,5.207,5.7641,6.325,6.2416,6.8252,7.3747,7.4543,7.4809,7.4884,7.4884,7.4164,7.3331,7.2554,7.2441,7.2441,7.2441,7.3151,7.3975,7.4809,7.4884,7.4884,7.4884,7.4809,7.4819,7.4884,7.4884,7.4884,7.4884,7.4884,7.4884,7.4884,7.4884,7.4884,7.4884,7.4922,7.5339,7.6097,7.6135,7.6638,7.7472,7.8306,7.8192,7.7548,7.8306,7.8647,7.8723,7.9556,7.9898,7.9898,7.9898,7.9898,7.9898,7.9898,7.9898,7.9898,7.9898,7.9898,7.9898,7.9898,7.9898,7.9898,7.9898,7.9898,7.9898,7.9898,7.9898,7.9898,7.9898,7.9898,7.9898,7.9898,7.9956,7.9999,7.9919,7.9898,7.9898,7.9898,7.9898,7.9898,7.9898,7.9887,7.9887,7.9887,7.9865,7.9513,7.868,7.8076,7.739,7.6602,7.5977,7.5412,7.486,7.4059,7.3373,7.2742,7.1965,7.1531,7.1531,7.1531,7.1494,7.1494,7.1494,7.1494,7.1494,7.1494,7.1494,5.5185,0.0,0.0,0.0,0.0,0.0,5.4238,5.7535,6.053,5.9089,6.5267,7.0801,7.0422,7.2848,7.4884,7.4884,7.4164,7.352,7.3293,7.3255,7.3255,7.3255,7.4013,7.4619,7.4895,7.4884,7.4884,7.4884,7.2658,7.2355,7.4771,7.4884,7.4884,7.4884,7.4884,7.4884,7.4884,7.4884,7.4884,7.4922,7.5491,7.587,7.6135,7.7358,7.804,7.8306,7.9177,7.9405,7.9215,7.9443,7.9519,7.9556,7.9822,7.9898,7.9898,7.9898,7.9898,7.9898,7.9898,7.9898,7.9898,7.9898,7.9898,7.9898,7.9898,7.9898,7.9898,7.9898,7.9898,7.9898,7.9898,7.9898,7.9898,7.9898,7.9898,7.9898,7.9898,7.993,7.9903,7.9908,7.9898,7.9898,7.9898,7.9898,7.9898,7.9898,7.9532,7.9234,7.9234,7.8854,7.8523,7.8262,7.808,7.7913,7.7689,7.6919,7.624,7.5697,7.4903,7.4214,7.3575,7.2782,7.2364,7.2364,7.182,7.1494,7.1494,7.1494,7.1494,7.1494,7.1494,7.1494,0.0,0.0,0.0,5.5617,0.0,0.0,5.4238,5.8066,6.1515,5.9847,6.5874,7.0877,6.8944,7.0612,7.2166,7.1824,7.1019,7.1208,7.3293,7.3293,7.3227,7.3558,7.4354,7.4884,7.4884,7.4884,7.4884,7.4884,7.3075,7.2848,7.4819,7.4884,7.4884,7.4884,7.4884,7.4884,7.4884,7.4884,7.5074,7.5415,7.588,7.6476,7.7169,7.8154,7.8798,7.9177,7.967,7.9898,7.9898,7.9898,7.9898,7.9898,7.9898,7.9898,7.9898,7.9898,7.9898,7.9898,7.9898,7.9898,7.9898,7.9898,7.9898,7.9898,7.9898,7.9898,7.9898,7.9898,7.9898,7.9898,7.9898,7.9898,7.9898,7.9898,7.9898,7.9898,7.9898,7.9717,7.9589,7.9865,7.9898,7.9805,7.9566,7.9532,7.9425,7.92,7.8841,7.8637,7.8637,7.8295,7.8077,7.8077,7.7852,7.7708,7.7708,7.7054,7.6481,7.6162,7.5369,7.4795,7.4428,7.3615,7.3181,7.3181,7.242,7.1857,7.1494,7.1494,7.1494,7.1494,7.1494,7.1494,0.0,0.0,0.0,0.0,5.5442,0.0,5.3127,5.8457,6.3556,6.2449,6.7552,7.1436,6.8944,6.8451,6.8186,6.739,6.6442,6.7494,7.2345,7.2658,7.2592,7.3141,7.4202,7.4884,7.4884,7.4884,7.4884,7.4884,7.4884,7.4884,7.4884,7.4884,7.4884,7.4884,7.4884,7.4884,7.4884,7.4998,7.5377,7.6097,7.6287,7.7169,7.8609,7.8685,7.9177,7.9898,7.9898,7.9898,7.9898,7.9898,7.9898,7.9898,7.9898,7.9898,7.9898,7.9898,7.9898,7.9898,7.9898,7.9898,7.9898,7.9898,7.9898,7.9898,7.9898,7.9898,7.9898,7.9898,7.9898,7.9898,7.9898,7.9898,7.9887,7.9805,7.9783,7.9772,7.9717,7.9284,7.9065,7.9589,7.9705,7.9532,7.8966,7.8891,7.8727,7.8159,7.8021,7.7979,7.7979,7.7923,7.788,7.788,7.7421,7.7086,7.7086,7.6603,7.6292,7.6292,7.5623,7.5244,7.5244,7.4448,7.4013,7.4013,7.3144,7.2364,7.1639,7.1531,7.1494,7.1494,7.1494,7.1494,0.0,0.0,0.0,0.0,0.0,0.0,5.396,5.5642,5.8185,6.0523,6.2362,6.4396,6.7125,6.7617,6.7352,6.648,6.5069,6.5372,6.9058,7.1228,7.1948,7.0763,7.3151,7.4884,7.4884,7.4884,7.4884,7.4884,7.4884,7.4884,7.4884,7.4884,7.4884,7.4884,7.4884,7.4884,7.4884,7.5529,7.5945,7.6107,7.7472,7.8268,7.8609,7.9329,7.9746,7.9898,7.9898,7.9898,7.9898,7.9898,7.9898,7.9898,7.9898,7.9898,7.9898,7.9898,7.9898,7.9898,7.9898,7.9898,7.9898,7.9898,7.9898,7.9898,7.9898,7.9898,7.9898,7.9898,7.9898,7.9898,7.9898,7.9898,7.9772,7.9307,7.9174,7.9053,7.8559,7.8373,7.8295,7.844,7.8466,7.8427,7.8319,7.8292,7.8251,7.8104,7.7702,7.7376,7.7376,7.6951,7.6652,7.6652,7.6538,7.6492,7.6492,7.6359,7.6292,7.6292,7.613,7.6058,7.6058,7.5281,7.4882,7.4882,7.3434,7.2601,7.2456,7.182,7.1494,7.1494,7.1494,7.1494,0.0,0.0,0.0,5.3767,0.0,0.0,0.0,5.4977,5.7229,5.9328,6.1225,6.2843,6.3869,6.4047,6.3837,6.3179,6.1616,6.1418,6.3963,6.754,7.0346,7.1597,7.3606,7.4884,7.4884,7.4884,7.4884,7.4884,7.4884,7.4884,7.4884,7.4884,7.4884,7.4884,7.4884,7.4884,7.4884,7.568,7.6335,7.6752,7.8002,7.8836,7.9253,7.9708,7.9898,7.9898,7.9898,7.9898,7.9898,7.9898,7.9898,7.9898,7.9898,7.9898,7.9898,7.9898,7.9898,7.9898,7.9898,7.9898,7.9898,7.9898,7.9898,7.9898,7.9898,7.9898,7.9854,7.9543,7.9436,7.9378,7.9077,7.9004,7.8941,7.8624,7.8559,7.848,7.8183,7.7852,7.7636,7.7636,7.7421,7.7301,7.7614,7.7636,7.757,7.724,7.6951,7.6728,7.6728,7.6508,7.6292,7.6292,7.6292,7.6292,7.6292,7.6292,7.6292,7.6292,7.6292,7.6292,7.6292,7.5913,7.5498,7.51,7.4303,7.3687,7.3289,7.2509,7.1893,7.1494,7.1494,7.1494,0.0,0.0,0.0,0.0,0.0,5.3583,0.0,0.0,0.0,5.8358,6.0784,6.2276,6.0651,6.0313,6.0039,5.921,5.8021,5.7732,5.9344,6.3276,6.7203,7.0365,7.2042,7.2914,7.2724,7.3444,7.4212,7.4846,7.4884,7.4884,7.4884,7.4884,7.4884,7.4884,7.4884,7.496,7.5112,7.5945,7.679,7.7623,7.8457,7.9215,7.9898,7.9898,7.9898,7.9898,7.9898,7.9898,7.9898,7.9898,7.9898,7.9898,7.9898,7.9898,7.9898,7.9898,7.9898,7.9898,7.9898,7.9898,7.9898,7.9898,7.9805,7.9717,7.9577,7.9554,7.9436,7.8941,7.8829,7.8714,7.8251,7.8077,7.8049,7.7937,7.7909,7.788,7.7766,7.7376,7.7045,7.7045,7.6636,7.6459,7.6951,7.7045,7.6856,7.6376,7.6292,7.6292,7.6292,7.6292,7.6292,7.6292,7.6292,7.6292,7.6292,7.6292,7.6292,7.6292,7.6292,7.6292,7.6292,7.6292,7.5985,7.5353,7.5172,7.479,7.4171,7.339,7.2577,7.1748,7.1567,7.1494,0.0,0.0,0.0,0.0,5.3349,0.0,5.3986,0.0,5.6298,5.7274,0.0,5.8517,5.8952,0.0,0.0,5.6033,5.608,5.6808,5.7894,5.9776,6.0858,6.0442,6.3713,6.5713,6.4955,6.8262,7.1711,7.4667,7.4884,7.4884,7.4884,7.4884,7.4884,7.4884,7.4884,7.5225,7.5956,7.6828,7.7661,7.8457,7.9329,7.9784,7.9898,7.9898,7.9898,7.9898,7.9898,7.9898,7.9898,7.9898,7.9898,7.9898,7.9898,7.9898,7.9898,7.9898,7.9898,7.9898,7.9898,7.9898,7.9898,7.9898,7.9543,7.9016,7.848,7.8282,7.8306,7.82,7.8187,7.821,7.8104,7.8077,7.7951,7.7436,7.7301,7.7148,7.6619,7.6459,7.6409,7.6409,7.6342,7.6309,7.6392,7.6409,7.6376,7.6292,7.6292,7.6292,7.6292,7.6292,7.6292,7.6292,7.6292,7.6292,7.6292,7.6292,7.6292,7.6292,7.6292,7.6292,7.6292,7.6292,7.6239,7.6167,7.5462,7.5146,7.5237,7.4401,7.3538,7.2529,7.182,7.1494,0.0,0.0,0.0,0.0,0.0,0.0,5.6673,0.0,5.5601,0.0,0.0,0.0,0.0,0.0,0.0,0.0,5.6721,5.6656,5.7669,5.7519,5.8595,6.2071,6.4364,6.6172,6.7472,6.7647,6.8679,7.1066,7.2166,7.2279,7.1294,7.3568,7.4733,7.44,7.4722,7.5149,7.5645,7.6814,7.7813,7.8609,7.9481,7.9728,7.9378,7.9378,7.9174,7.8879,7.8879,7.8879,7.8879,7.8879,7.8879,7.8879,7.8879,7.9284,7.9865,7.952,7.9378,7.9331,7.8991,7.8879,7.8879,7.8879,7.8676,7.8453,7.8159,7.8077,7.8007,7.7702,7.7599,7.7511,7.7133,7.7076,7.6998,7.6749,7.6684,7.6603,7.6342,7.6292,7.6292,7.6292,7.6292,7.6292,7.6292,7.6292,7.6292,7.6292,7.6292,7.6292,7.6292,7.6292,7.6292,7.6292,7.6292,7.6292,7.6292,7.6292,7.6292,7.6292,7.6292,7.6292,7.6292,7.6292,7.6292,7.6292,7.6085,7.6023,7.6105,7.5382,7.4815,7.4372,7.3005,7.206,5.913,0.0,0.0,0.0,0.0,0.0,0.0,0.0,0.0,0.0,5.6672,0.0,0.0,0.0,0.0,0.0,0.0,5.6724,5.7069,5.6415,5.7533,6.1956,6.3451,6.5111,6.7723,6.6578,6.6124,6.7201,6.9398,6.9954,6.8294,7.2159,7.4245,7.3784,7.4356,7.4972,7.561,7.6621,7.7694,7.8715,7.9195,7.9162,7.8753,7.8753,7.8495,7.8077,7.8077,7.8077,7.8077,7.8077,7.8077,7.8077,7.8077,7.8637,7.9343,7.8904,7.8753,7.8701,7.8241,7.8077,7.8063,7.7894,7.7838,7.7809,7.7673,7.7629,7.7526,7.7092,7.6967,7.684,7.6426,7.6292,7.6292,7.6292,7.6292,7.6292,7.6292,7.6292,7.6292,7.6292,7.6292,7.6292,7.6292,7.6292,7.6292,7.6292,7.6292,7.6292,7.6292,7.6292,7.6292,7.6292,7.6292,7.6292,7.6292,7.6292,7.6292,7.6292,7.6292,7.6292,7.6292,7.6292,7.6292,7.6292,7.6445,7.6528,7.6597,7.6126,7.5769,7.5561,7.4066,7.2855,0.0,0.0,0.0,6.0287,0.0,0.0,0.0,0.0,5.7352,0.0,0.0,0.0,0.0,0.0,0.0,0.0,0.0,0.0,0.0,5.6759,5.7177,5.5705,5.7481,5.9562,6.1432,6.3453,6.4435,6.3893,6.7468,6.8948,6.7333,7.1057,7.3263,7.325,7.3736,7.4821,7.6462,7.65,7.7375,7.9003,7.8416,7.8132,7.8118,7.8118,7.8104,7.8077,7.8077,7.8077,7.8077,7.8077,7.8077,7.8077,7.8077,7.8104,7.8183,7.8155,7.8118,7.8141,7.8128,7.8077,7.7993,7.7421,7.7225,7.7102,7.6521,7.6359,7.6342,7.6326,7.6326,7.6309,7.6292,7.6292,7.6292,7.6292,7.6292,7.6292,7.6292,7.6292,7.6292,7.6292,7.6292,7.6292,7.6292,7.6292,7.6292,7.6292,7.6292,7.6292,7.6292,7.6292,7.6292,7.6292,7.6292,7.6292,7.6292,7.6292,7.6292,7.6292,7.6292,7.6292,7.6292,7.6292,7.6292,7.6292,7.6328,7.6412,7.6597,7.6578,7.6239,7.5561,7.4738,7.3843,6.6331,6.6738,6.645,6.5752,0.0,0.0,0.0,0.0,0.0,0.0,0.0,0.0,0.0,0.0,0.0,0.0,0.0,0.0,0.0,5.6085,5.5848,5.5261,5.6678,5.8513,6.0641,5.9329,5.8449,5.873,6.0528,6.0853,5.9204,6.5563,6.9051,6.872,7.2308,7.4616,7.5394,7.6239,7.7281,7.8389,7.8224,7.788,7.7511,7.7511,7.7286,7.692,7.692,7.692,7.692,7.692,7.692,7.692,7.692,7.692,7.6967,7.7361,7.7511,7.7451,7.7061,7.692,7.6872,7.6684,7.6603,7.6554,7.6359,7.6292,7.6292,7.6292,7.6292,7.6292,7.6292,7.6292,7.6292,7.6292,7.6292,7.6292,7.6292,7.6292,7.6292,7.6292,7.6292,7.6292,7.6292,7.6292,7.6292,7.6292,7.6292,7.6292,7.6292,7.6292,7.6292,7.6292,7.6292,7.6292,7.6292,7.6292,7.6292,7.6292,7.6292,7.6292,7.6292,7.6292,7.6292,7.6292,7.6429,7.6548,7.6597,7.6692,7.6628,7.64,7.6109,7.5254,6.9541,6.9986,6.9882,6.9177,6.7615,6.6053,6.5318,0.0,5.9942,0.0,0.0,0.0,0.0,0.0,0.0,0.0,0.0,0.0,0.0,5.5663,5.5224,5.527,5.6692,5.7831,5.8189,5.7059,5.5655,5.4142,5.6119,5.6562,5.4658,6.2238,6.6486,6.6125,7.1305,7.4329,7.4816,7.5925,7.6924,7.7766,7.7548,7.7255,7.6872,7.6872,7.6668,7.6292,7.6292,7.6292,7.6292,7.6292,7.6292,7.6292,7.6292,7.6292,7.6342,7.6749,7.6872,7.6808,7.6442,7.6292,7.6292,7.6292,7.6292,7.6292,7.6292,7.6292,7.6364,7.6654,7.6546,7.6364,7.6637,7.6492,7.6292,7.6292,7.6292,7.6292,7.6292,7.6292,7.6292,7.6292,7.6292,7.6292,7.6292,7.6292,7.6292,7.6292,7.6292,7.6292,7.6292,7.6292,7.6292,7.6292,7.6292,7.6292,7.6292,7.6292,7.6292,7.6292,7.6292,7.6292,7.6292,7.6292,7.6292,7.6292,7.6429,7.6478,7.6478,7.6594,7.6639,7.6741,7.6741,7.619]}]]